     2              OBSERVATION DATA                        RINEX VERSION / TYPE
DAT2RIN 1.01d Dan Johnson 14SEP96 20:11:42 GMT              PGM / RUN BY / DATE
Mojave '96 team Central Washington U                        OBSERVER / AGENCY
16331 TRIMBLE 4000SSI Nav 7.09 Sig 3.03                     REC # / TYPE / VERS
66916 TRIMBLE CHOKE                                         ANT # / TYPE
KMED KENNEDY MEADOWS                                        MARKER NAME
 -2436057.0000 -4555503.0000  3731342.0000                  APPROX POSITION XYZ
        0.0814        0.0000        0.0000                  ANTENNA: DELTA H/E/N
     1     1     0                                          WAVELENGTH FACT L1/2
     5    L1    C1    P1    L2    P2                        # / TYPES OF OBSERV
    30                                                      INTERVAL
                                                            COMMENT
PANGA GPS Data Analysis Center                              COMMENT
Department of Geology                                       COMMENT
Central Washington University                               COMMENT
Ellensburg, WA 98926                                        COMMENT
                                                            COMMENT
http://www.panga.cwu.edu                                    COMMENT
ftp://panga.cwu.edu                                         COMMENT
                                                            COMMENT
  1996     9    13     0     0   30.000000                  TIME OF FIRST OBS
  1996     9    13    23    59    0.000000                  TIME OF LAST OBS
    25                                                      # OF SATELLITES
           1   743   744     0   741   741                  PRN / # OF OBS
           2   847   847     0   837   837                  PRN / # OF OBS
           3   915   915     0   910   910                  PRN / # OF OBS
           4   793   793     0   785   785                  PRN / # OF OBS
           5   721   721     0   716   716                  PRN / # OF OBS
           6   782   782     0   777   777                  PRN / # OF OBS
           7   738   738     0   736   736                  PRN / # OF OBS
           9   872   872     0   864   864                  PRN / # OF OBS
          10   872   873     0   862   862                  PRN / # OF OBS
          14   713   713     0   711   711                  PRN / # OF OBS
          15   882   882     0   874   874                  PRN / # OF OBS
          16   898   899     0   887   887                  PRN / # OF OBS
          17   842   843     0   840   840                  PRN / # OF OBS
          18   768   768     0   762   762                  PRN / # OF OBS
          19   841   841     0   838   838                  PRN / # OF OBS
          21   855   855     0   848   848                  PRN / # OF OBS
          22   884   884     0   870   870                  PRN / # OF OBS
          23   795   795     0   790   790                  PRN / # OF OBS
          24   698   698     0   690   690                  PRN / # OF OBS
          25   656   656     0   654   654                  PRN / # OF OBS
          26   938   938     0   929   929                  PRN / # OF OBS
          27   801   801     0   797   797                  PRN / # OF OBS
          28   695     0   695   694   694                  PRN / # OF OBS
          29   845   845     0   843   843                  PRN / # OF OBS
          31   922   924     0   913   913                  PRN / # OF OBS
                                                            END OF HEADER
 96  9 13  0  0 30.0000000  0  6  1 14 15 21 25 29
  37543198.64010  23219298.39100                  29334257.10050  23219303.24240
  -1956188.01210  22486410.74200                  -1501272.79650  22486415.21940
   2079250.19710  20814290.29700                   1687236.97950  20814295.18440
  53015403.12510  23960196.93800                  10782534.46650  23960200.94540
   2869511.83310  20755979.51600                   2273614.73450  20755982.87940
   -304187.17610  22704808.68000                   -212124.07150  22704812.55940
 96  9 13  0  1  0.0000000  0  6  1 14 15 21 25 29
  37685789.97900  23246432.89100                  29445367.22040  23246438.34040
  -1969416.74300  22483892.92200                  -1511580.89340  22483897.60940
   2158778.16400  20829424.15600                   1749206.82440  20829428.75040
  53173200.28100  23990224.22700                  10905493.21140  23990230.90640
   2946514.41000  20770632.35200                   2333616.74840  20770635.77340
   -296574.64200  22706256.92200                   -206192.19040  22706260.89540
 96  9 13  0  1 30.0000000  0  6  1 14 15 21 25 29
  37828359.61900  23273563.28100                  29556460.42740  23273567.95740
  -1982589.19800  22481386.85900                  -1521845.12440  22481391.86340
   2238897.40900  20844670.22700                   1811637.40140  20844674.94940
  53331174.29600  24020287.14800                  11028589.81140  24020288.67240
   3024015.50400  20785380.49200                   2394007.21740  20785383.89140
   -288816.77400  22707732.91400                   -200147.06740  22707737.40240
 96  9 13  0  2  0.0000000  0  6  1 14 15 21 25 29
  37970912.66700  23300690.02300                  29667540.69440  23300694.27740
  -1995698.46600  22478892.97700                  -1532060.12440  22478897.82840
   2319603.97300  20860028.14800                   1874525.63240  20860032.88340
  53489312.57600  24050379.53100                  11151814.37940  24050386.44940
   3102011.84200  20800222.75800                   2454783.59540  20800226.09840
   -280901.75000  22709238.64800                   -193979.48440  22709243.26640
 96  9 13  0  2 30.0000000  0  6  1 14 15 21 25 29
  38113472.62500  23327819.00000                  29778626.34740  23327823.52340
  -2008727.17500  22476413.52300                  -1542212.34840  22476418.43440
   2400901.46400  20875498.63300                   1937874.32440  20875503.35540
  53647616.17300  24080504.10200                  11275167.75040  24080510.39540
   3180492.22700  20815156.89100                   2515937.15240  20815160.25440
   -272844.57500  22710772.07800                   -187701.14040  22710775.62940
 96  9 13  0  3  0.0000000  0  6  1 14 15 21 25 29
  38256034.01900  23354947.27300                  29889713.13040  23354952.65240
  -2021668.86700  22473950.33600                  -1552296.76440  22473954.91840
   2482782.00900  20891080.00800                   2001677.34540  20891084.68440
  53806056.65400  24110654.22700                  11398627.81540  24110658.78540
   3259444.74600  20830181.07800                   2577458.60340  20830184.47740
   -264669.75100  22712327.91400                   -181331.10340  22712332.01640
 96  9 13  0  3 30.0000000  0  6  1 14 15 21 25 29
  38398598.36200  23382075.44500                  30000802.20840  23382081.39840
  -2034520.70600  22471505.14100                  -1562311.17040  22471509.61740
   2565246.38900  20906772.39100                   2065935.30440  20906777.05540
  53964626.15200  24140827.25000                  11522188.43940  24140834.00040
   3338874.56800  20845296.03100                   2639351.97640  20845299.35940
   -256385.70500  22713904.28900                   -174875.97740  22713908.25040
 96  9 13  0  4  0.0000000  0  6  1 14 15 21 25 29
  38541172.55100  23409206.76600                  30111898.97740  23409211.57040
  -2047265.51700  22469079.57800                  -1572242.17540  22469084.48840
   2648301.90600  20922577.40600                   2130653.88440  20922582.16440
  54123337.67500  24171031.10900                  11645859.61540  24171037.16840
   3418789.73000  20860503.44500                   2701623.53740  20860506.83240
   -247996.50000  22715500.61700                   -168338.90940  22715504.69540
 96  9 13  0  4 30.0000000  0  6  1 14 15 21 25 29
  38683737.87900  23436336.11700                  30222988.80640  23436341.10940
  -2059911.15600  22466673.38300                  -1582095.90640  22466677.81340
   2731944.23300  20938493.71900                   2195829.71740  20938498.52340
  54282203.31900  24201258.72700                  11769651.04140  24201266.13740
   3499182.33600  20875801.63300                   2764267.13540  20875804.99640
   -239514.30800  22717114.17200                   -161729.36940  22717118.54340
 96  9 13  0  5  0.0000000  0  6  1 14 15 21 25 29
  38826262.23200  23463457.95300                  30334046.73240  23463463.56640
  -2072473.83300  22464282.64800                  -1591884.99340  22464286.78540
   2816163.41100  20954520.32800                   2261455.04840  20954525.23840
  54441230.78000  24231523.67200                  11893568.45840  24231531.90240
   3580052.33100  20891190.71100                   2827282.72140  20891193.94540
   -230932.60000  22718748.36700                   -155042.30140  22718752.60940
 96  9 13  0  5 30.0000000  0  6  1 14 15 21 25 29
  38968742.64200  23490571.04700                  30445070.41340  23490575.78140
  -2084963.74100  22461905.76600                  -1601617.38040  22461910.03140
   2900958.34800  20970656.18800                   2327529.02040  20970661.02740
  54600440.13200  24261819.70300                  12017627.63040  24261824.40240
   3661398.50300  20906670.45300                   2890669.35040  20906673.66440
   -222238.64300  22720402.14800                   -148267.75540  22720405.65240
 96  9 13  0  6  0.0000000  0  6  1 14 15 21 25 29
  39111170.26600  23517673.79700                  30556052.94040  23517678.50840
  -2097395.94700  22459540.08600                  -1611304.79340  22459544.25840
   2986324.66400  20986901.18000                   2394048.22240  20986906.07840
  54759841.14600  24292153.25000                  12141836.11840  24292158.21940
   3743215.73900  20922239.82800                   2954423.04840  20922243.01640
   -213427.86200  22722079.17200                   -141402.17940  22722082.37140
 96  9 13  0  6 30.0000000  0  6  1 14 15 21 25 29
  39253548.36000  23544768.74200                  30666996.89840  23544773.27740
  -2109789.29500  22457181.44500                  -1620961.92940  22457186.08640
   3072260.87400  21003253.96100                   2461011.49540  21003258.81340
  54919422.39800  24322520.66400                  12266185.11040  24322523.98040
   3825503.32100  20937898.50000                   3018543.24540  20937901.88740
   -204489.07700  22723778.77300                   -134436.86740  22723783.22740
 96  9 13  0  7  0.0000000  0  6  1 14 15 21 25 29
  39395870.17700  23571850.59400                  30777897.02240  23571855.87940
  -2122164.61000  22454826.48400                  -1630605.00340  22454831.35940
   3158750.23300  21019712.32800                   2528405.79840  21019717.12140
  55079150.48000  24352914.68000                  12390648.52540  24352919.87140
   3908249.18800  20953644.52300                   3083020.55140  20953647.67640
   -195433.24800  22725503.05500                   -127380.35340  22725506.94540
 96  9 13  0  7 30.0000000  0  6  1 14 15 21 25 29
  39538163.47600  23598927.22700                  30888774.89440  23598931.63340
  -2134518.33600  22452475.82800                  -1640231.27040  22452480.69140
   3245798.88400  21036277.14800                   2596235.90840  21036281.88340
  55239018.02800  24383338.09400                  12515220.47440  24383343.12140
   3991458.20200  20969478.63300                   3147858.75040  20969482.00840
   -186255.59600  22727249.43000                   -120228.90740  22727252.98040
 96  9 13  0  8  0.0000000  0  6  1 14 15 21 25 29
  39680423.80000  23625999.45300                  30999627.07840  23626004.97340
  -2146857.50500  22450127.85200                  -1649846.18940  22450132.34040
   3333399.39600  21052947.08600                   2664496.03740  21052951.77340
  55399006.82500  24413780.78900                  12639887.15240  24413788.94940
   4075118.79600  20985398.57000                   3213048.82840  20985401.81640
   -176956.64800  22729018.77300                   -112982.95340  22729022.61740
 96  9 13  0  8 30.0000000  0  6  1 14 15 21 25 29
  39822668.05300  23653067.30500                  31110466.73240  23653072.62540
  -2159162.67000  22447786.43000                  -1659434.63040  22447790.60240
   3421557.91600  21069723.00000                   2733190.97940  21069727.74640
  55559111.51700  24444247.89800                  12764643.91540  24444252.75040
   4159229.51000  21001404.34400                   3278589.64440  21001407.61340
   -167531.11000  22730812.71900                   -105638.35340  22730816.98440
 96  9 13  0  9  0.0010000  0  6  1 14 15 21 25 29
  39964891.05100  23680131.56700                  31221289.86740  23680135.81040
  -2171425.99800  22445452.79400                  -1668990.45740  22445457.09540
   3510270.95700  21086604.48100                   2802318.01940  21086609.34540
  55719332.62200  24474739.86400                  12889491.49240  24474745.89940
   4243782.79900  21017494.52800                   3344475.33440  21017497.63440
   -157991.84600  22732627.63800                    -98205.12040  22732630.93140
 96  9 13  0  9 30.0010000  0  6  1 14 15 21 25 29
  40107075.56000  23707189.17700                  31332082.94140  23707195.71640
  -2183631.55400  22443130.17700                  -1678501.27340  22443134.37240
   3599533.53400  21103590.90300                   2871873.25940  21103595.80240
  55879661.88300  24505247.95000                  13014423.15340  24505252.50940
   4328756.52900  21033664.12200                   3410688.62940  21033667.53240
   -148344.02000  22734464.17700                    -90687.31240  22734468.23140
 96  9 13  0 10  0.0010000  0  6  1 14 15 21 25 29
  40249217.72500  23734238.27100                  31442843.04940  23734242.05640
  -2195751.42100  22440823.31700                  -1687945.30840  22440827.53640
   3689352.22600  21120682.77100                   2941861.84240  21120687.42340
  56040102.56500  24535778.78600                  13139442.00840  24535788.69240
   4414153.63600  21049914.70000                   3477231.82940  21049918.14640
   -138597.15500  22736318.79400                    -83092.33040  22736322.84940
 96  9 13  0 10 30.0010000  0  6  1 14 15 21 25 29
  40391307.21100  23761276.59100                  31553562.10440  23761280.99740
  -2207773.34500  22438535.76300                  -1697313.03240  22438540.35640
   3779719.39300  21137879.14600                   3012277.80940  21137883.75140
  56200647.98800  24566329.85600                  13264542.18840  24566333.91140
   4499968.61900  21066245.02800                   3544100.65540  21066248.40340
   -128770.45900  22738188.08300                    -75435.12840  22738192.14940
 96  9 13  0 11  0.0010000  0  6  1 14 15 21 25 29
  40533343.53900  23788305.49700                  31664239.73640  23788309.32940
  -2219688.55100  22436268.45800                  -1706597.59740  22436273.28640
   3870635.10300  21155179.59900                   3083121.21240  21155184.35640
  56361307.25300  24596899.98100                  13389731.22040  24596908.51740
   4586204.87900  21082655.06700                   3611297.74540  21082658.48940
   -118857.68800  22740074.45800                    -67710.87140  22740078.56040
 96  9 13  0 11 30.0010000  0  6  1 14 15 21 25 29
  40675332.78500  23815324.18500                  31774880.71840  23815329.54040
  -2231477.11800  22434024.83300                  -1715783.48740  22434029.21640
   3962104.35100  21172585.53600                   3154395.94440  21172590.18840
  56522097.36200  24627502.29400                  13515022.11240  24627504.74340
   4672876.91200  21099148.23900                   3678834.39640  21099151.72040
   -108841.93700  22741980.28600                    -59906.35540  22741984.01340
 96  9 13  0 12  0.0010000  0  6  1 14 15 21 25 29
  40817276.76600  23842335.47400                  31885486.38140  23842340.02140
  -2243147.90200  22431803.96600                  -1724877.58240  22431808.57140
   4054120.67500  21190095.80200                   3226096.96340  21190100.82940
  56683024.89900  24658123.91100                  13640420.09440  24658129.64240
   4760010.93700  21115729.27100                   3746731.04540  21115732.64640
    -98723.39700  22743906.26300                    -52021.74840  22743910.38840
 96  9 13  0 12 30.0010000  0  6  1 14 15 21 25 29
  40959173.29200  23869336.78600                  31996055.08240  23869342.88040
  -2254728.90500  22429600.41100                  -1733901.73540  22429605.09940
   4146678.16800  21207709.03600                   3298219.67840  21207713.87640
  56844098.29700  24688773.36400                  13765931.72840  24688779.48140
   4847612.99500  21132399.33300                   3814992.39040  21132402.73140
    -88495.26500  22745852.70800                    -44051.75340  22745856.61040
 96  9 13  0 13  0.0010000  0  6  1 14 15 21 25 29
  41101014.16600  23896328.98100                  32106580.40840  23896333.57540
  -2266237.22300  22427410.65300                  -1742869.24540  22427415.03640
   4239775.71300  21225424.78600                   3370763.20940  21225429.67340
  57005322.93200  24719455.53600                  13891561.36240  24719459.95440
   4935689.25700  21149159.66900                   3883623.24840  21149163.19640
    -78153.45500  22747820.03600                    -35993.15840  22747824.24340
 96  9 13  0 13 30.0010000  0  6  1 14 15 21 25 29
  41242795.16000  23923309.27800                  32217059.05940  23923313.22840
  -2277689.25200  22425231.16900                  -1751792.89740  22425235.24740
   4333412.91900  21243243.33300                   3443727.25840  21243248.19640
  57166690.77900  24750163.21600                  14017302.42140  24750169.34540
   5024239.15900  21166010.23100                   3952623.17740  21166013.71240
    -67708.19800  22749808.13800                    -27853.98040  22749812.12240
 96  9 13  0 14  0.0010000  0  6  1 14 15 21 25 29
  41384511.46000  23950277.15300                  32327487.31440  23950281.86440
  -2289096.16300  22423060.77800                  -1760681.38040  22423064.91540
   4427589.17300  21261164.45000                   3517111.34240  21261169.13840
  57328185.10100  24780894.60600                  14143142.05040  24780902.19240
   5113254.19300  21182949.27800                   4021985.54040  21182952.63040
    -57167.35600  22751813.74700                    -19640.31040  22751817.50940
 96  9 13  0 14 30.0010000  0  6  1 14 15 21 25 29
  41526155.37700  23977230.84900                  32437859.17140  23977236.11040
  -2300450.92100  22420899.63800                  -1769529.23940  22420903.92740
   4522301.39200  21279187.29400                   3590913.06340  21279192.21640
  57489797.60800  24811646.64600                  14269073.86540  24811652.58740
   5202701.50200  21199970.25500                   4091684.74340  21199973.46640
    -46525.88800  22753839.78600                    -11348.24040  22753843.18540
 96  9 13  0 15  0.0010000  0  7  1 14 15 21 22 25 29
  41667726.32500  24004170.82500                  32548174.15140  24004175.24340
  -2311737.20800  22418751.97400                  -1778323.74440  22418756.13440
   4617548.25200  21297312.45000                   3665131.38740  21297317.05640
  57651510.05700  24842421.09900                  14395083.42740  24842427.35640
     -4889.05510  24885534.56000
   5292558.10300  21217069.52100                   4161702.87440  21217073.02440
    -35783.15900  22755883.07500                     -2977.26440  22755886.89640
 96  9 13  0 15 30.0010000  0  7  1 14 15 21 22 25 29
  41809233.48200  24031098.92700                  32658439.43240  24031102.87640
  -2322937.59300  22416620.77100                  -1787051.30240  22416625.35340
   4713333.63200  21315539.85600                   3739769.33740  21315544.73140
  57813308.07900  24873206.74700                  14521159.89140  24873212.12640
    -34325.49500  24879933.99700
   5382810.99200  21234243.98100                   4232029.80040  21234247.54440
    -24930.85200  22757948.72400                      5479.09840  22757952.42740
 96  9 13  0 16  0.0010000  0  6  1 14 15 22 25 29
  41950665.65700  24058012.14600                  32768646.31040  24058016.76340
  -2334053.64300  22414505.24700                  -1795713.14640  22414509.52440
   4809642.17700  21333866.73900                   3814814.95040  21333871.47440
    -63930.05000  24874299.99700
   5473441.30700  21251490.55200                   4302650.82440  21251494.12640
    -13977.02900  22760032.85600                     14014.56540  22760036.68840
 96  9 13  0 16 30.0010000  0  6  1 14 15 22 25 29
  42092019.20000  24084911.31700                  32878791.89240  24084916.93140
  -2345096.43800  22412404.02100                  -1804317.91040  22412408.54440
   4906466.04100  21352291.98900                   3890262.10440  21352296.65340
    -93691.31000  24868638.57500                    -13927.90550  24868641.64640
   5564438.58500  21268806.77100                   4373557.79140  21268810.22840
     -2927.02300  22762135.46600                     22624.96740  22762139.04040
 96  9 13  0 17  0.0010000  0  6  1 14 15 22 25 29
  42233309.46500  24111797.74700                  32988888.19140  24111802.02440
  -2356058.89800  22410317.77100                  -1812860.06940  22410322.45840
   5003818.91400  21370817.60600                   3966121.47540  21370822.17740
   -123598.03100  24862946.39600                    -37231.77940  24862951.28240
   5655828.99600  21286197.74700                   4444771.09640  21286201.18140
      8215.84700  22764255.47400                     31307.75740  22764258.97840
 96  9 13  0 17 30.0010000  0  6  1 14 15 22 25 29
  42374545.59200  24138673.89600                  33098942.28140  24138678.54840
  -2366946.31400  22408246.02800                  -1821343.76240  22408250.42340
   5101696.67700  21389443.00500                   4042389.85240  21389447.49340
   -153632.03900  24857231.21600                    -60634.79240  24857235.75140
   5747621.42200  21303665.45000                   4516297.66340  21303668.86040
     19444.58600  22766391.98900                     40057.44240  22766395.27140
 96  9 13  0 18  0.0010000  0  6  1 14 15 22 25 29
  42515733.42600  24165541.04400                  33208958.78340  24165545.96640
  -2377762.85200  22406187.45800                  -1829772.22240  22406192.07540
   5200094.06000  21408167.39600                   4119063.13240  21408171.86040
   -183782.66700  24851491.99700                    -84128.69240  24851499.79440
   5839823.60500  21321210.70800                   4588143.52040  21321214.18840
     30746.84500  22768542.90300                     48864.41840  22768546.54840
 96  9 13  0 18 30.0010000  0  6  1 14 15 22 25 29
  42656867.01900  24192397.96600                  33318932.96640  24192403.14640
  -2388515.68100  22404141.44200                  -1838151.04140  22404146.07140
   5299007.40900  21426989.98900                   4196138.45940  21426994.84140
   -214050.55300  24845731.33300                   -107713.93340  24845737.86040
   5932439.13000  21338834.88000                   4660311.46140  21338838.29040
     42121.61700  22770707.48900                     57727.89940  22770711.08740
 96  9 13  0 19  0.0010000  0  6  1 14 15 22 25 29
  42797961.49400  24219247.98100                  33428876.72540  24219252.55240
  -2399181.37100  22402111.85600                  -1846461.96040  22402116.32140
   5398443.77800  21445912.00500                   4273621.33040  21445916.98540
   -244447.08000  24839947.93500                   -131399.45840  24839953.13840
   6025481.44300  21356540.49700                   4732811.96440  21356543.81340
     53572.62500  22772886.61400                     66650.78240  22772890.36440
 96  9 13  0 19 30.0010000  0  6  1 14 15 22 25 29
  42939010.67500  24246088.71600                  33538785.14840  24246093.16940
  -2409765.98800  22400097.50500                  -1854709.70540  22400101.98140
   5498392.37100  21464931.51300                   4351503.34540  21464936.09540
   -274978.97900  24834138.38800                   -155190.51940  24834141.50540
   6118941.36400  21374324.98100                   4805637.88240  21374328.29840
     65095.21500  22775079.52100                     75629.43640  22775083.18840
 96  9 13  0 20  0.0010000  0  6  1 14 15 22 25 29
  43079991.14300  24272915.50500                  33648640.03040  24272920.59140
  -2420261.95600  22398100.76300                  -1862888.37840  22398105.09940
   5598850.71800  21484048.18500                   4429782.56740  21484053.00140
   -305654.02800  24828300.10600                   -179092.98440  24828304.51340
   6212816.20100  21392188.72400                   4878787.10540  21392192.05240
     76683.25700  22777284.94200                     84659.09140  22777288.50540
 96  9 13  0 20 30.0010000  0  6  1 14 15 22 25 29
  43220881.97900  24299726.82500                  33758425.07740  24299732.77840
  -2430662.48200  22396121.20800                  -1870992.67140  22396125.54440
   5699814.25800  21503261.16900                   4508455.44740  21503265.90340
   -336476.40000  24822433.99700                   -203110.34340  24822440.97440
   6307097.14800  21410130.22400                   4952252.77840  21410133.47040
     88333.01000  22779501.36400                     93736.84540  22779505.23140
 96  9 13  0 21  0.0020000  0  6  1 14 15 22 25 29
  43361700.64700  24326523.41600                  33868153.88240  24326528.38540
  -2440936.98500  22394165.78300                  -1878998.77340  22394170.26040
   5801295.94100  21522572.28300                   4587532.07240  21522576.80740
   -367427.10100  24816545.40800                   -227227.65340  24816552.27940
   6401791.18000  21428149.61100                   5026040.33340  21428152.98640
    100050.03700  22781731.45500                    102867.01440  22781735.40440
 96  9 13  0 21 30.0020000  0  6  1 14 15 22 25 29
  43502436.17000  24353305.18900                  33977817.92440  24353309.74840
  -2451090.99200  22392233.84600                  -1886910.98340  22392238.15840
   5903289.66800  21541980.93900                   4667007.69740  21541985.56840
   -398481.59700  24810636.30700                   -251425.87840  24810639.04940
   6496885.59300  21446245.40800                   5100139.87240  21446248.83040
    111852.08300  22783977.11100                    112063.43740  22783980.90840
 96  9 13  0 22  0.0020000  0  6  1 14 15 22 25 29
  43643086.87200  24380069.23600                  34087415.82340  24380073.68940
  -2461130.21900  22390323.46300                  -1894733.75040  22390327.83440
   6005797.20400  21561487.89300                   4746883.68440  21561492.32240
   -429634.48300  24804709.47100                   -275700.73140  24804714.97940
   6592372.55600  21464416.01800                   5174545.29840  21464419.45140
    123754.23600  22786241.83000                    121337.86040  22786246.01440
 96  9 13  0 22 30.0020000  0  6  1 14 15 22 25 29
  43783684.33100  24406824.90800                  34196972.29340  24406828.20140
  -2471065.36800  22388432.61900                  -1902475.40540  22388436.87340
   6108827.33800  21581093.90800                   4827166.90440  21581098.38540
   -460875.08700  24798763.33800                   -300043.96640  24798768.29540
   6688259.16000  21482662.66600                   5249262.13240  21482666.05340
    135778.23100  22788530.12700                    130707.21740  22788533.76040
 96  9 13  0 23  0.0020000  0  6  1 14 15 22 25 29
  43924236.73900  24433571.07200                  34306493.60740  24433575.06840
  -2480911.51700  22386559.34600                  -1910147.72140  22386563.95140
   6212371.13300  21600797.40800                   4907850.36840  21600802.27140
   -492210.35100  24792800.71300                   -324460.93240  24792806.31440
   6784544.31300  21500985.22900                   5324289.52040  21500988.35740
    147926.83100  22790841.77500                    140173.68240  22790845.37340
 96  9 13  0 23 30.0020000  0  6  1 14 15 22 25 29
  44064731.82400  24460305.88500                  34415970.30240  24460311.26440
  -2490683.25200  22384699.55700                  -1917762.04940  22384703.89340
   6316420.73000  21620597.18200                   4988927.96640  21620602.22140
   -523647.73700  24786818.14300                   -348957.53040  24786822.83040
   6881228.37600  21519383.47100                   5399627.74840  21519386.91640
    160194.70100  22793175.85400                    149733.07640  22793179.35740
 96  9 13  0 24  0.0020000  0  6  1 14 15 22 25 29
  44205179.74200  24487032.11100                  34525410.18340  24487037.23240
  -2500345.76700  22382861.01800                  -1925291.26840  22382865.48240
   6420992.48200  21640496.75200                   5070412.43540  21640501.60440
   -555178.58800  24780818.88500                   -373526.98740  24780825.21340
   6978342.54100  21537863.76800                   5475301.12340  21537867.09640
    172581.07100  22795533.22100                    159384.80240  22795536.73640
 96  9 13  0 24 30.0020000  0  6  1 14 15 22 25 29
  44345568.55400  24513747.47900                  34634804.08440  24513752.63540
  -2509878.17700  22381046.93900                  -1932719.10940  22381051.26440
   6526073.48700  21660492.97900                   5152293.72340  21660497.67840
   -586809.01500  24774799.02500                   -398173.96440  24774806.62340
   7075892.22300  21556426.86900                   5551313.86040  21556430.09240
    185059.71500  22797908.28300                    169108.43140  22797911.97540
 96  9 13  0 25  0.0020000  0  6  1 14 15 22 25 29
  44485879.10700  24540447.89300                  34744136.96840  24540452.34640
  -2519258.59200  22379261.78300                  -1940028.51040  22379266.48240
   6631655.19500  21680584.61100                   5234565.17040  21680589.49840
   -618535.59300  24768760.92400                   -422895.95940  24768766.19740
   7173871.83300  21575071.90800                   5627661.60340  21575075.26040
    197622.82500  22800298.32200                    178897.89140  22800301.63940
 96  9 13  0 25 30.0020000  0  6  1 14 15 22 25 29
  44626115.23300  24567134.73600                  34853411.86640  24567140.12740
  -2528479.40300  22377507.47900                  -1947213.54640  22377511.90840
   6737738.80900  21700771.56400                   5317227.71440  21700776.41640
   -650357.98400  24762705.06400                   -447692.51440  24762711.05340
   7272262.54600  21593794.86100                   5704329.69640  21593798.17840
    210268.00000  22802704.58000                    188751.29440  22802708.97540
 96  9 13  0 26  0.0020000  0  6  1 14 15 22 25 29
  44766278.61100  24593806.70500                  34962630.05140  24593812.14340
  -2537543.37100  22375782.33000                  -1954276.36240  22375786.95940
   6844316.25200  21721052.62700                   5400275.06440  21721057.24440
   -682279.26400  24756630.85400                   -472566.17240  24756636.68940
   7371044.32200  21612592.43900                   5781302.50340  21612595.89640
    222993.17600  22805126.04900                    198667.04240  22805129.63540
 96  9 13  0 26 30.0020000  0  6  1 14 15 22 25 29
  44906364.50700  24620462.59600                  35071787.87040  24620468.76040
  -2546489.92900  22374079.82200                  -1961247.69540  22374084.08840
   6951363.98600  21741423.01000                   5483688.87040  21741428.11940
   -714317.82100  24750532.51800                   -497531.16740  24750537.40440
   7470179.29400  21631457.13500                   5858550.53640  21631460.51040
    235787.52500  22807560.33800                    208636.67040  22807564.42840
 96  9 13  0 27  0.0020000  0  6  1 14 15 22 25 29
  45046388.01700  24647108.17400                  35180897.07240  24647112.96740
  -2555344.08900  22372394.75200                  -1968147.03340  22372399.42840
   7058890.85300  21761884.78300                   5567476.02640  21761889.75240
   -746467.12800  24744417.73600                   -522582.48440  24744424.79540
   7569653.94600  21650386.45500                   5936063.25340  21650389.88940
    248666.95800  22810011.74400                    218672.61140  22810015.27140
 96  9 13  0 27 30.0020000  0  6  1 14 15 22 25 29
  45186332.50200  24673739.67400                  35289944.70540  24673744.84240
  -2564128.22800  22370722.96300                  -1974991.80440  22370727.11140
   7166887.61900  21782435.92400                   5651629.33940  21782440.91640
   -778735.54200  24738275.97900                   -547726.59040  24738279.47140
   7669455.78000  21669378.34600                   6013830.91340  21669381.53340
    261615.19000  22812475.86100                    228762.16040  22812479.60040
 96  9 13  0 28  0.0020000  0  6  1 14 15 22 25 29
  45326169.61600  24700350.01000                  35398908.69240  24700352.93940
  -2572865.29800  22369060.83800                  -1981799.90340  22369065.20940
   7275338.83400  21803073.60400                   5736136.77140  21803078.50240
   -811116.20600  24732114.11900                   -572958.17540  24732119.96740
   7769589.60800  21688433.15800                   6091857.27540  21688436.35740
    274622.37100  22814951.08800                    238897.64340  22814954.79140
 96  9 13  0 28 30.0020000  0  6  1 14 15 22 25 29
  45465899.72200  24726939.70500                  35507789.25940  24726943.68940
  -2581554.07800  22367407.24400                  -1988570.37240  22367411.52140
   7384246.72300  21823798.11900                   5821000.04840  21823802.97140
   -843601.64300  24725931.28300                   -598271.41940  24725935.37340
   7870074.31400  21707554.54100                   6170157.04940  21707557.89340
    287689.70500  22817437.72900                    249080.00040  22817441.26840
 96  9 13  0 29  0.0020000  0  6  1 14 15 22 25 29
  45605515.92100  24753506.90800                  35616581.11040  24753510.91640
  -2590164.71200  22365768.93200                  -1995279.95040  22365773.27940
   7493617.58000  21844610.65000                   5906224.08340  21844615.49040
   -876174.17900  24719734.47100                   -623652.55440  24719740.15440
   7970933.26000  21726747.48600                   6248748.43540  21726750.80340
    300825.25900  22819937.18900                    259315.50740  22819940.76440
 96  9 13  0 29 30.0020000  0  6  1 14 15 22 25 29
  45745008.88800  24780052.22900                  35725276.88740  24780057.65440
  -2598670.02900  22364150.39300                  -2001907.45840  22364154.81140
   7603445.19900  21865509.93200                   5991804.03040  21865514.93640
   -908830.64900  24713518.90800                   -649099.02940  24713525.50640
   8072181.79400  21746014.31400                   6327643.39240  21746017.51440
    314027.15500  22822449.58800                    269602.71940  22822453.52540
 96  9 13  0 30  0.0020000  0  6  1 14 15 22 25 29
  45884384.47900  24806575.23600                  35833881.25340  24806579.13940
  -2607070.12400  22362551.72900                  -2008452.97140  22362556.07640
   7713718.38700  21886494.62700                   6077731.17840  21886499.50240
   -941568.50300  24707289.72100                   -674608.98640  24707294.30340
   8173814.35400  21765354.31400                   6406837.59140  21765357.76040
    327291.23200  22824973.43200                    279938.38240  22824977.14640
 96  9 13  0 30 30.0020000  0  6  1 14 15 22 25 29
  46023637.14800  24833075.08000                  35942389.79340  24833080.82240
  -2615346.16300  22360976.64300                  -2014901.82440  22360981.34240
   7824430.56600  21907562.30700                   6164000.39740  21907567.05340
   -974401.62400  24701040.20500                   -700193.13040  24701046.43940
   8275815.12100  21784764.51000                   6486318.71040  21784767.93240
    340608.61200  22827507.94700                    290315.57840  22827511.35740
 96  9 13  0 31  0.0020000  0  6  1 14 15 22 25 29
  46162768.94000  24859550.78300                  36050804.17940  24859554.33440
  -2623492.36900  22359426.63500                  -2021249.49740  22359431.21740
   7935581.10400  21928713.43200                   6250611.18740  21928718.31840
  -1007315.72100  24694775.69700                   -725840.39840  24694783.63540
   8378163.09500  21804240.75200                   6566070.37740  21804244.18640
    353976.67400  22830051.38500                    300732.26140  22830054.72540
 96  9 13  0 31 30.0020000  0  6  1 14 15 22 25 29
  46301770.71400  24886000.86900                  36159117.17640  24886005.69740
  -2631535.31500  22357895.97900                  -2027516.72140  22357900.50240
   8047151.46400  21949944.69700                   6337549.11840  21949949.73640
  -1040316.62400  24688497.31400                   -751555.33640  24688502.26040
   8480815.87300  21823774.78300                   6646059.55140  21823778.18240
    367365.90900  22832599.55700                    311165.45040  22832603.06140
 96  9 13  0 32  0.0020000  0  6  1 14 15 22 25 29
  46440648.79600  24912427.94700                  36267333.86240  24912432.01440
  -2639483.27700  22356383.90000                  -2033709.93140  22356388.21340
   8159140.34600  21971255.47900                   6424813.16640  21971260.42440
  -1073403.88000  24682202.70500                   -777337.51040  24682207.49840
   8583755.14400  21843363.68200                   6726271.96540  21843366.92840
    380764.65200  22835148.97900                    321606.04740  22835152.54140
 96  9 13  0 32 30.0020000  0  6  1 14 15 22 25 29
  46579409.85100  24938833.08800                  36375459.32240  24938836.75640
  -2647322.56500  22354892.05700                  -2039818.46140  22354896.46340
   8271552.84600  21992646.87700                   6512407.30640  21992651.72940
  -1106587.92000  24675888.39300                   -803195.13740  24675892.27140
   8686989.81400  21863008.53300                   6806714.57140  21863011.83840
    394166.92700  22837699.40800                    332049.39340  22837703.13540
 96  9 13  0 33  0.0020000  0  6  1 14 15 22 25 29
  46718058.60500  24965217.94700                  36483497.31540  24965223.87740
  -2655072.69800  22353416.93900                  -2045857.51540  22353421.47540
   8384379.40600  22014117.28300                   6600324.09140  22014122.06440
  -1139869.73800  24669553.31400                   -829128.97340  24669556.93640
   8790510.50400  21882707.96300                   6887380.03840  21882711.32640
    407564.94500  22840249.01800                    342489.41940  22840252.55740
 96  9 13  0 33 30.0030000  0  6  1 14 15 22 25 29
  46856585.03000  24991578.75700                  36591439.92840  24991584.89740
  -2662726.21700  22351960.67100                  -2051821.29440  22351965.07740
   8497619.28400  22035665.58500                   6688562.94540  22035670.54240
  -1173274.62500  24663194.68700                   -855158.68040  24663199.84340
   8894330.52500  21902464.13200                   6968278.75840  21902467.41340
    420970.44100  22842800.24100                    352935.28040  22842803.92140
 96  9 13  0 34  0.0030000  0  6  1 14 15 22 25 29
  46994967.65100  25017911.33500                  36699270.53740  25017915.54240
  -2670286.56800  22350521.94400                  -2057712.46340  22350526.47940
   8611254.62200  22057289.96000                   6777109.94740  22057294.95240
  -1206822.78800  24656813.40500                   -881300.03940  24656821.24940
   8998445.42300  21922276.66300                   7049407.24640  21922280.16740
    434390.01600  22845353.43700                    363392.10740  22845356.98740
 96  9 13  0 34 30.0030000  0  6  1 14 15 22 25 29
  47133217.93300  25044220.07700                  36806997.99140  25044224.75340
  -2677755.37600  22349100.77200                  -2063532.30440  22349105.42540
   8725295.20100  22078991.16300                   6865972.72440  22078995.88640
  -1240494.59600  24650406.28800                   -907537.70440  24650411.57340
   9102872.52800  21942148.35800                   7130779.01040  21942151.65140
    447851.17400  22847914.49100                    373881.33040  22847918.07740
 96  9 13  0 35  0.0030000  0  6  1 14 15 22 25 29
  47271327.06900  25070501.31900                  36914615.42640  25070507.20240
  -2685152.65200  22347692.91300                  -2069296.40240  22347697.65940
   8839733.44400  22100767.89700                   6955145.37040  22100772.78440
  -1274275.41800  24643974.82700                   -933860.30940  24643981.97940
   9207592.46400  21962075.85800                   7212378.95940  21962079.33940
    461369.61800  22850487.40500                    384415.20240  22850491.19040
 96  9 13  0 35 30.0030000  0  6  1 14 15 22 25 29
  47409284.82900  25096753.31900                  37022115.01840  25096759.00340
  -2692487.26700  22346297.15500                  -2075011.68040  22346301.79640
   8954556.29500  22122618.21800                   7044617.70340  22122623.26940
  -1308173.15100  24637524.42900                   -960274.09740  24637531.97940
   9312597.48200  21982057.65500                   7294201.05040  21982060.96040
    474933.18100  22853068.74100                    394984.21840  22853072.60840
 96  9 13  0 36  0.0030000  0  6  1 14 15 22 25 29
  47547122.42700  25122983.24100                  37129520.85840  25122987.88240
  -2699755.84900  22344914.39000                  -2080675.49540  22344918.86640
   9069776.01400  22144544.16300                   7134399.28840  22144548.67540
  -1342145.30400  24631061.74100                   -986745.78040  24631067.64740
   9417901.71000  22002096.51500                   7376256.28940  22002099.57340
    488545.28900  22855659.04600                    405591.06240  22855662.60840
 96  9 13  0 36 30.0030000  0  6  1 14 15 22 25 29
  47684830.71700  25149188.81200                  37236826.01440  25149193.78040
  -2706957.71600  22343543.48300                  -2086287.33440  22343548.07740
   9185382.30900  22166542.87400                   7224482.10140  22166547.30440
  -1376188.83700  24624582.29600                  -1013273.08340  24624586.83140
   9523496.15900  22022190.46800                   7458537.67940  22022193.59740
    502191.48500  22858255.65500                    416224.46740  22858259.33540
 96  9 13  0 37  0.0030000  0  6  1 14 15 22 25 29
  47822388.45000  25175365.03000                  37344013.84240  25175370.44440
  -2714076.28800  22342188.89000                  -2091834.26240  22342193.43740
   9301362.18800  22188613.25700                   7314856.01540  22188618.12040
  -1410316.56600  24618089.10800                  -1039866.08340  24618095.09740
   9629364.74600  22042336.32700                   7541032.68140  22042339.84340
    515847.29900  22860854.26500                    426865.36840  22860857.96840
 96  9 13  0 37 30.0030000  0  6  1 14 15 22 25 29
  47959784.72400  25201510.87400                  37451075.81140  25201517.37840
  -2721085.50000  22340855.21800                  -2097295.98140  22340859.68340
   9417714.50700  22210754.25700                   7405520.14340  22210758.92140
  -1444532.78700  24611577.99100                  -1066527.94140  24611581.83540
   9735514.67000  22062536.26500                   7623746.89840  22062539.58140
    529501.37100  22863452.36600                    437504.91340  22863455.70640
 96  9 13  0 38  0.0030000  0  6  1 14 15 22 25 29
  48097014.84200  25227624.55400                  37558008.31540  25227626.33540
  -2727970.19500  22339545.24100                  -2102660.66740  22339549.56540
   9534442.47900  22232966.86600                   7496476.99440  22232971.31940
  -1478829.90300  24605052.29600                  -1093252.85740  24605058.22640
   9841948.23900  22082789.79600                   7706682.14540  22082793.03040
    543161.95800  22866052.44400                    448149.54140  22866056.19440
 96  9 13  0 38 30.0030000  0  6  1 14 15 22 25 29
  48234059.00400  25253704.15500                  37664795.93440  25253708.44440
  -2734729.63200  22338258.71800                  -2107927.75940  22338262.87840
   9651535.93400  22255249.32700                   7587718.63740  22255254.06240
  -1513227.38700  24598505.44400                  -1120056.05840  24598510.50740
   9948657.68200  22103095.96800                   7789832.35640  22103099.37840
    556817.43700  22868650.78000                    458790.18340  22868654.43740
 96  9 13  0 39  0.0030000  0  6  1 14 15 22 25 29
  48370936.36200  25279750.66300                  37771453.58440  25279753.92140
  -2741357.93700  22336997.71000                  -2113092.66140  22337001.98740
   9769003.24700  22277602.23300                   7679251.59640  22277606.95640
  -1547710.74700  24591943.85100                  -1146926.12440  24591950.58940
  10055652.91300  22123456.93700                   7873205.25940  22123460.31240
    570485.71800  22871251.32700                    469440.80440  22871254.94840
 96  9 13  0 39 30.0030000  0  6  1 14 15 22 25 29
  48507645.91700  25305765.30400                  37877980.51040  25305769.52240
  -2747890.81700  22335754.42900                  -2118183.21040  22335758.54240
   9886825.98200  22300023.36600                   7771061.50940  22300028.03040
  -1582288.88300  24585363.24100                  -1173870.03240  24585369.62840
  10162915.19500  22143867.71800                   7956786.25240  22143871.18740
    584149.14900  22873851.67900                    480087.63840  22873854.98340
 96  9 13  0 40  0.0030000  0  6  1 14 15 22 25 29
  48644211.90000  25331753.48300                  37984395.53140  25331755.59340
  -2754333.05500  22334528.51500                  -2123203.12740  22334532.61640
  10005012.87200  22322513.24900                   7863155.18140  22322518.40540
  -1616931.85500  24578769.59300                  -1200864.47940  24578774.90140
  10270448.03900  22164330.64700                   8040578.08040  22164334.06940
    597816.58300  22876452.36600                    490737.59640  22876455.78840
 96  9 13  0 40 30.0030000  0  6  1 14 15 22 25 29
  48780629.90100  25357712.76500                  38090695.28340  25357717.34740
  -2760695.29500  22333317.71000                  -2128160.70940  22333321.89440
  10123555.33100  22345071.32700                   7955525.91340  22345076.39040
  -1651638.02400  24572167.72600                  -1227908.23040  24572173.38640
  10378232.72100  22184841.24900                   8124566.13940  22184844.47240
    611480.24800  22879052.71000                    501384.61040  22879056.22640
 96  9 13  0 41  0.0030000  0  6  1 14 15 22 25 29
  48916897.95000  25383643.80400                  38196878.17740  25383647.96440
  -2766986.51500  22332120.53800                  -2133062.94940  22332124.74540
  10242439.50200  22367694.22600                   8048162.91340  22367699.19440
  -1686402.76700  24565550.29600                  -1254997.55740  24565555.87440
  10486249.06700  22205396.24100                   8208734.71440  22205399.45240
    625130.61400  22881650.49100                    512021.28440  22881654.20640
 96  9 13  0 41 30.0030000  0  6  1 14 15 22 25 29
  49053018.29600  25409545.77200                  38302945.88040  25409550.75340
  -2773188.46700  22330940.28800                  -2137895.63040  22330944.42540
  10361677.66600  22390384.53800                   8141075.74840  22390389.61240
  -1721213.89000  24558926.92100                  -1282123.08240  24558931.16340
  10594505.84800  22225996.70200                   8293090.64640  22226000.08940
    638776.26800  22884246.74900                    522654.27340  22884249.98340
 96  9 13  0 42  0.0030000  0  6  1 14 15 22 25 29
  49188962.97500  25435416.62400                  38408876.83540  25435422.63640
  -2779305.04800  22329776.30400                  -2142661.79540  22329780.69840
  10481252.08500  22413138.74900                   8234250.60240  22413143.51940
  -1756101.28600  24552287.85800                  -1309307.97940  24552291.70240
  10703002.43600  22246642.92900                   8377633.43440  22246646.35140
    652409.66500  22886841.04600                    533277.70340  22886844.56240
 96  9 13  0 42 30.0030000  0  6  1 14 15 22 25 29
  49324730.62600  25461251.37400                  38514669.78640  25461256.58940
  -2785331.42100  22328629.75700                  -2147357.65940  22328633.94040
  10601160.91600  22435956.41300                   8327686.03640  22435961.06540
  -1791078.53400  24545631.75700                  -1336562.92240  24545636.86640
  10811751.93200  22267337.40500                   8462373.29840  22267340.66340
    666032.09600  22889433.24900                    543892.59240  22889436.68340
 96  9 13  0 43  0.0030000  0  6  1 14 15 22 25 29
  49460327.36700  25487054.45200                  38620329.52840  25487061.26140
  -2791256.02100  22327502.40500                  -2151974.22640  22327506.46040
  10721406.65100  22458838.64700                   8421383.99040  22458843.28840
  -1826148.70700  24538957.93700                  -1363890.31740  24538963.98340
  10920766.26600  22288082.34300                   8547319.53340  22288085.55440
    679656.96500  22892026.42900                    554509.38940  22892030.05040
 96  9 13  0 43 30.0030000  0  6  1 14 15 22 25 29
  49595741.03400  25512823.42900                  38725846.60340  25512826.94440
  -2797080.70200  22326393.60100                  -2156512.93440  22326397.74940
  10841981.78400  22481783.24900                   8515338.61940  22481788.33540
  -1861328.24400  24532262.50700                  -1391302.82940  24532268.72940
  11030038.29100  22308875.85800                   8632466.55540  22308879.26940
    693277.07500  22894617.85100                    565122.47540  22894621.43740
 96  9 13  0 44  0.0030000  0  6  1 14 15 22 25 29
  49730983.97000  25538558.59300                  38831230.70740  25538561.18340
  -2802804.77000  22325304.42900                  -2160973.24340  22325308.63640
  10962877.13200  22504789.10800                   8609542.78340  22504793.90140
  -1896609.43500  24525549.43700                  -1418794.63140  24525555.82340
  11139558.17300  22329716.96800                   8717806.72340  22329720.02640
    706886.58700  22897207.72600                    575727.30040  22897211.25340
 96  9 13  0 44 30.0030000  0  6  1 14 15 22 25 29
  49866061.14700  25564261.29600                  38936485.67040  25564265.35140
  -2808423.47700  22324235.29600                  -2165351.45240  22324239.59740
  11084087.96800  22527854.81900                   8703992.77340  22527859.56540
  -1931971.31900  24518820.61600                  -1446349.28640  24518826.59340
  11249303.42000  22350600.74100                   8803322.49440  22350604.11640
    720489.36900  22899796.43700                    586326.88140  22899799.63640
 96  9 13  0 45  0.0030000  0  6  1 14 15 22 25 29
  50000993.64000  25589940.03000                  39041627.79040  25589944.98740
  -2813910.84500  22323191.17100                  -2169627.31940  22323195.56540
  11205627.45400  22550982.70200                   8798698.84640  22550987.61240
  -1967382.35100  24512081.62400                  -1473942.21840  24512086.56940
  11359277.07100  22371527.63200                   8889016.24140  22371530.97240
    734095.57500  22902385.19400                    596929.12840  22902388.32340
 96  9 13  0 45 30.0030000  0  6  1 14 15 22 25 29
  50135772.83400  25615587.86600                  39146650.50040  25615592.14440
  -2819278.72200  22322169.60800                  -2173810.07640  22322173.96840
  11327485.76100  22574171.84300                   8893653.35040  22574176.72940
  -2002835.38400  24505334.65500                  -1501567.92040  24505340.94840
  11469478.01900  22392498.71000                   8974887.10440  22392502.02640
    747679.88700  22904970.62400                    607514.31840  22904974.05840
 96  9 13  0 46  0.0030000  0  6  1 14 15 22 25 29
  50270385.71500  25641203.39700                  39251543.68740  25641207.48740
  -2824528.59500  22321170.78800                  -2177900.88440  22321175.03040
  11449652.90700  22597419.19400                   8988848.51340  22597423.81240
  -2038317.16400  24498583.43700                  -1529215.99040  24498588.47640
  11579904.87700  22413512.15500                   9060934.00440  22413515.28440
    761238.97500  22907550.72600                    618079.86140  22907554.30040
 96  9 13  0 46 30.0030000  0  6  1 14 15 22 25 29
  50404825.71300  25666786.80400                  39356302.16240  25666792.40540
  -2829656.88700  22320194.71800                  -2181896.94940  22320198.90140
  11572139.22300  22620728.03000                   9084292.37940  22620732.78840
  -2073821.24200  24491828.94400                  -1556881.46040  24491833.38640
  11690570.55800  22434571.08500                   9147167.00040  22434574.22640
    774783.25600  22910127.96800                    628633.86140  22910131.46040
 96  9 13  0 47  0.0040000  0  6  1 14 15 22 25 29
  50539085.20600  25692335.59000                  39460919.87840  25692340.74640
  -2834670.21400  22319240.66800                  -2185803.43140  22319244.66440
  11694940.81300  22644096.30100                   9179981.91040  22644100.85940
  -2109363.90800  24485064.44900                  -1584577.00040  24485069.91040
  11801472.21700  22455674.97300                   9233583.87040  22455678.32440
    788299.51100  22912700.37900                    639166.02640  22912703.77740
 96  9 13  0 47 30.0040000  0  6  1 14 15 22 25 29
  50673153.37000  25717847.95700                  39565388.56840  25717852.83240
  -2839565.12000  22318309.22300                  -2189617.64140  22318313.33640
  11818053.24800  22667523.94100                   9275913.65840  22667528.93440
  -2144939.07200  24478293.81600                  -1612297.82940  24478299.18440
  11912597.27700  22476821.24600                   9320174.82340  22476824.59840
    801817.11500  22915272.39500                    649699.23140  22915276.10940
 96  9 13  0 48  0.0040000  0  6  1 14 15 22 25 29
  50807034.39900  25743325.19900                  39669711.39340  25743330.29740
  -2844344.41800  22317399.90200                  -2193341.76440  22317404.18040
  11941471.81000  22691009.59000                   9372083.94540  22691014.33640
  -2180556.68600  24471515.22300                  -1640051.79740  24471521.31640
  12023924.90400  22498006.43400                   9406923.61640  22498009.82040
    815349.02100  22917847.27700                    660243.56740  22917850.73440
 96  9 13  0 48 30.0040000  0  6  1 14 15 22 25 29
  50940743.94100  25768769.02000                  39773900.56240  25768772.14840
  -2849019.89100  22316510.08200                  -2196984.98640  22316514.28940
  12065188.90400  22714551.99600                   9468486.86540  22714556.55540
  -2216240.47400  24464725.85500                  -1667857.28740  24464730.66040
  12135434.22300  22519225.73000                   9493813.99240  22519228.96540
    828885.39500  22920423.65200                    670791.40640  22920427.10940
 96  9 13  0 49  0.0040000  0  6  1 14 15 22 25 29
  51074308.45900  25794185.10500                  39877976.93740  25794190.71940
  -2853569.50800  22315644.60500                  -2200530.13040  22315648.78940
  12189213.24400  22738153.03500                   9565129.19340  22738157.84040
  -2251969.49500  24457927.89500                  -1695698.02540  24457934.00040
  12247137.54200  22540482.34000                   9580855.53340  22540485.83240
    842434.75800  22923001.62100                    681349.35840  22923005.21940
 96  9 13  0 49 30.0040000  0  6  1 14 15 22 25 29
  51207719.01700  25819572.37900                  39981933.16640  25819578.69540
  -2858007.21800  22314799.90200                  -2203988.08040  22314804.10940
  12313528.82000  22761809.94100                   9661998.46040  22761814.85240
  -2287748.18900  24451117.60500                  -1723577.47740  24451123.06640
  12359028.94300  22561774.65200                   9668043.63440  22561778.00440
    855969.68400  22925577.12900                    691896.05840  22925580.57440
 96  9 13  0 50  0.0040000  0  6  1 14 15 22 25 29
  51340975.66400  25844929.83200                  40085769.44440  25844934.06240
  -2862325.74800  22313977.94900                  -2207353.15940  22313982.33240
  12438132.87800  22785520.97300                   9759092.51340  22785526.05940
  -2323579.23800  24444298.53500                  -1751497.71940  24444304.67640
  12471123.85800  22583105.21500                   9755390.31840  22583108.67240
    869460.18300  22928144.49600                    702408.14340  22928147.93040
 96  9 13  0 50 30.0040000  0  6  1 14 15 22 25 29
  51474073.03300  25870258.23000                  40189481.64540  25870261.67640
  -2866511.59400  22313181.71500                  -2210614.84940  22313185.98040
  12563032.33600  22809288.41800                   9856416.73840  22809293.53940
  -2359445.85600  24437474.06600                  -1779445.66940  24437479.37540
  12583443.61800  22604478.91000                   9842912.20840  22604482.61340
    882905.24000  22930703.02700                    712884.82240  22930706.63740
 96  9 13  0 51  0.0040000  0  6  1 14 15 22 25 29
  51606983.30200  25895549.33200                  40293048.12440  25895553.97340
  -2870571.54500  22312408.69100                  -2213778.44840  22312413.18040
  12688215.73800  22833110.31600                   9953962.22340  22833115.21540
  -2395338.04000  24430644.81600                  -1807413.56840  24430650.58240
  12695990.31500  22625896.05900                   9930610.92340  22625899.34040
    896311.50900  22933254.13700                    723331.26740  22933257.64140
 96  9 13  0 51 30.0040000  0  6  1 14 15 22 25 29
  51739697.35500  25920803.55900                  40396461.66240  25920808.94940
  -2874503.65300  22311660.55100                  -2216842.42840  22311665.01640
  12813679.11900  22856985.24600                  10051725.87240  22856990.26240
  -2431258.02000  24423809.52700                  -1835403.11140  24423815.10540
  12808757.63100  22647354.93400                  10018481.55140  22647358.26240
    909684.25900  22935798.45700                    733751.59840  22935802.13740
 96  9 13  0 52  0.0040000  0  6  1 14 15 22 25 29
  51872220.73300  25946023.48000                  40499726.59940  25946028.08640
  -2878305.41200  22310937.19100                  -2219804.82940  22310941.51640
  12939427.86700  22880914.62900                  10149711.88740  22880919.65640
  -2467190.58900  24416971.44900                  -1863402.48040  24416976.60540
  12921743.46600  22668855.62900                  10106522.45640  22668859.10940
    923053.27600  22938343.05100                    744169.02540  22938346.46140
 96  9 13  0 52 30.0040000  0  6  1 14 15 22 25 29
  52004554.24400  25971206.40200                  40602843.61440  25971212.37940
  -2881980.38000  22310237.80900                  -2222668.42940  22310242.28540
  13065451.19800  22904895.89500                  10247911.85040  22904900.68740
  -2503127.95800  24410131.59800                  -1891405.57840  24410137.15240
  13034932.31300  22690394.55900                  10194721.55140  22690398.05140
    936431.08200  22940888.55900                    754593.29540  22940891.96940
 96  9 13  0 53  0.0040000  0  6  1 14 15 22 25 29
  52136716.10600  25996355.10500                  40705826.88940  25996358.73840
  -2885509.36800  22309566.42600                  -2225418.28640  22309570.70340
  13191756.60300  22928931.02000                  10346331.63040  22928936.01240
  -2539050.70200  24403296.32400                  -1919397.26240  24403301.18740
  13148327.21600  22711973.11300                  10283081.21140  22711976.28940
    949830.78100  22943438.44100                    765034.63040  22943441.86340
 96  9 13  0 53 30.0040000  0  6  1 14 15 22 25 29
  52268711.24200  26021471.13700                  40808680.26240  26021475.62540
  -2888878.58200  22308925.01200                  -2228043.65140  22308929.16040
  13318346.80800  22953020.69100                  10444973.32940  22953025.69540
  -2574948.29800  24396465.27700                  -1947369.40140  24396471.19540
  13261924.70500  22733589.93400                  10371598.72740  22733593.25040
    963244.80800  22945990.90200                    775487.12840  22945994.10240
 96  9 13  0 54  0.0040000  0  6  1 14 15 22 25 29
  52400533.43800  26046557.87100                  40911398.80440  26046565.83240
  -2892091.64000  22308313.77000                  -2230547.32640  22308317.82440
  13445213.18300  22977162.08200                  10543830.22840  22977167.14540
  -2610820.11400  24389638.76200                  -1975321.40440  24389643.28540
  13375722.54100  22755244.86300                  10460272.36140  22755248.05140
    976675.48100  22948547.04300                    785952.59840  22948550.51240
 96  9 13  0 54 30.0040000  0  6  1 14 15 22 25 29
  52532181.89000  26071608.82400                  41013981.99840  26071613.45340
  -2895138.85700  22307733.87100                  -2232921.78040  22307737.97340
  13572350.11000  23001355.42600                  10642897.93840  23001360.43040
  -2646672.67800  24382816.18400                  -2003258.42140  24382821.35240
  13489716.77000  22776936.98000                  10549099.02640  22776940.36740
    990109.06700  22951102.93400                    796420.33940  22951106.46140
 96  9 13  0 55  0.0040000  0  6  1 14 15 22 25 29
  52663661.62000  26096628.27700                  41116433.68940  26096637.01240
  -2898018.38000  22307186.09000                  -2235165.56640  22307190.22740
  13699766.06000  23025601.71500                  10742183.07140  23025606.77740
  -2682493.60200  24375999.88700                  -2031170.77840  24376006.40240
  13603908.22500  22798667.07400                  10638079.37640  22798670.63740
   1003548.26800  22953660.16800                    806892.45340  22953663.74240
 96  9 13  0 55 30.0040000  0  6  1 14 15 22 25 29
  52794977.12200  26121618.98800                  41218757.50040  26121623.99240
  -2900737.37500  22306668.56600                  -2237284.26340  22306672.71540
  13827457.82500  23049901.30900                  10841683.13040  23049906.38340
  -2718296.32700  24369186.68400                  -2059068.97540  24369192.53140
  13718293.80500  22820433.94900                  10727210.98940  22820437.34840
   1016991.98000  22956218.57400                    817368.07640  22956222.03140
 96  9 13  0 56  0.0040000  0  5 14 15 22 25 29
  -2903290.84100  22306182.74600                  -2239273.96240  22306187.01240
  13955428.69100  23074252.85500                  10941400.68340  23074257.90640
  -2754073.95200  24362379.11300                  -2086947.59240  24362385.16040
  13832871.41700  22842237.30100                  10816492.24140  22842240.39540
   1030440.29100  22958777.53500                    827847.28940  22958780.82840
 96  9 13  0 56 30.0040000  0  5 14 15 22 25 29
  -2905687.13400  22305726.65200                  -2241141.19940  22305730.88340
  14083669.84200  23098656.37900                  11041328.82640  23098661.48840
  -2789831.41900  24355574.84000                  -2114810.53840  24355579.94940
  13947625.50000  22864074.69100                  10905911.00540  22864077.75040
   1043868.07500  22961332.68400                    838310.50740  22961336.37540
 96  9 13  0 57  0.0040000  0  5 14 15 22 25 29
  -2907918.26600  22305301.80100                  -2242879.73840  22305306.16040
  14212185.06400  23123112.15200                  11141470.52140  23123117.23840
  -2825562.88000  24348775.80100                  -2142653.19040  24348780.20740
  14062572.28600  22885948.15200                  10995479.92340  22885951.45740
   1057285.82900  22963886.16800                    848765.91040  22963889.83640
 96  9 13  0 57 30.0040000  0  5 14 15 22 25 29
  -2909963.71200  22304912.66000                  -2244473.59140  22304916.73840
  14340983.60800  23147621.41000                  11241833.00540  23147626.49640
  -2861260.94100  24341980.61300                  -2170469.80540  24341986.36740
  14177734.41100  22907862.55900                  11085216.63740  22907866.09840
   1070699.64300  22966438.96500                    859218.23540  22966442.62140
 96  9 13  0 58  0.0040000  0  5 14 15 22 25 29
  -2911809.73100  22304561.48800                  -2245912.05040  22304565.70740
  14470067.34800  23172185.34800                  11342417.71540  23172190.49240
  -2896907.87500  24335197.12100                  -2198246.62540  24335201.92640
  14293116.40300  22929819.05100                  11175124.68040  22929822.16840
   1084117.60900  22968992.54300                    869673.80640  22968995.94140
 96  9 13  0 58 30.0040000  0  5 14 15 22 25 29
  -2913449.32500  22304249.67600                  -2247189.64940  22304253.68440
  14599439.36500  23196804.31600                  11443227.05340  23196809.95340
  -2932494.10300  24328425.24600                  -2225976.13240  24328431.23440
  14408737.21500  22951821.19100                  11265218.81740  22951824.49640
   1097562.86900  22971550.85500                    880150.63540  22971554.35940
 96  9 13  0 59  0.0040000  0  5 14 15 22 25 29
  -2914878.67100  22303977.46500                  -2248303.42240  22303981.62540
  14729097.08000  23221476.82400                  11544259.01840  23221482.01640
  -2968015.27200  24321665.91800                  -2253654.88540  24321671.16840
  14524600.19800  22973868.82400                  11355501.65540  22973872.25840
   1111052.27500  22974117.55100                    890661.86040  22974120.75040
 96  9 13  0 59 30.0040000  0  5 14 15 22 25 29
  -2916101.27600  22303744.77700                  -2249256.09840  22303748.92640
  14859040.31900  23246204.59800                  11645513.47040  23246209.73040
  -3003456.27500  24314921.73000                  -2281271.23140  24314927.00440
  14640687.23200  22995959.77700                  11445959.08340  22995963.22340
   1124584.18300  22976693.10500                    901206.20740  22976696.45740
 96  9 13  1  0  0.0040000  0  5 14 15 22 25 29
  -2917106.53900  22303553.52700                  -2250039.41540  22303557.95740
  14989269.43000  23270986.46500                  11746990.67540  23270991.36340
  -3038805.30800  24308195.86300                  -2308815.87340  24308201.33640
  14756996.31100  23018092.45700                  11536589.52440  23018095.82040
   1138176.23200  22979279.35500                    911797.42240  22979282.80140
 96  9 13  1  0 30.0040000  0  5 14 15 22 25 29
  -2917907.85900  22303401.05900                  -2250663.81840  22303405.51240
  15119767.21400  23295819.36300                  11848677.23140  23295824.43740
  -3074081.13500  24301482.75400                  -2336303.49640  24301488.69540
  14873514.59500  23040265.33200                  11627382.98740  23040268.69540
   1151809.34800  22981873.41800                    922420.63840  22981876.92240
 96  9 13  1  1  0.0050000  0  5 14 15 22 25 29
  -2918484.67900  22303291.55600                  -2251113.28440  22303295.93840
  15250545.02200  23320705.91500                  11950582.00040  23320710.81340
  -3109276.89700  24294785.80600                  -2363728.71840  24294791.65340
  14990244.75600  23062478.18800                  11718341.55140  23062481.56340
   1165476.90200  22984474.40700                    933070.68240  22984477.98140
 96  9 13  1  1 30.0050000  0  5 14 15 22 25 29
  -2918820.81700  22303227.28200                  -2251375.21140  22303231.57140
  15381598.32600  23345644.28200                  12052701.43240  23345649.25140
  -3144379.26400  24288105.22800                  -2391081.18440  24288110.46640
  15107179.79200  23084730.35300                  11809459.75040  23084733.79840
   1179181.50200  22987082.32900                    943749.59040  22987085.50540
 96  9 13  1  2  0.0050000  0  5 14 15 22 25 29
  -2918912.34400  22303210.03200                  -2251446.52440  22303214.23940
  15512917.79400  23370633.72800                  12155028.25840  23370638.55640
  -3179400.94000  24281441.92300                  -2418370.75940  24281446.58740
  15224323.98100  23107022.18800                  11900740.92840  23107025.81040
   1192919.31900  22989696.76700                    954454.38540  22989699.96640
 96  9 13  1  2 30.0050000  0  5 14 15 22 25 29
  -2918752.35300  22303240.14200                  -2251321.85340  22303244.43140
  15644505.84800  23395674.30600                  12257564.37940  23395679.35640
  -3214329.74000  24274793.92300                  -2445587.97240  24274799.54840
  15341678.17000  23129353.75900                  11992185.74340  23129357.26340
   1206687.18800  22992316.51700                    965182.60040  22992319.89240
 96  9 13  1  3  0.0050000  0  5 14 15 22 25 29
  -2918350.26000  22303316.91500                  -2251008.53540  22303321.26340
  15776347.73100  23420762.58700                  12360298.29040  23420767.59140
  -3249157.22000  24268166.59500                  -2472726.23440  24268172.57140
  15459222.85500  23151721.97000                  12083778.99340  23151725.31040
   1220475.15200  22994940.26700                    975926.47240  22994943.43140
 96  9 13  1  3 30.0050000  0  5 14 15 22 25 29
  -2917720.77500  22303436.49300                  -2250518.02140  22303440.61840
  15908434.20600  23445897.98500                  12463222.79740  23445902.76740
  -3283884.78900  24261557.99300                  -2499786.63340  24261562.71640
  15576947.05000  23174124.11800                  12175512.12340  23174127.97440
   1234290.87600  22997569.20400                    986691.97640  22997572.54440
 96  9 13  1  4  0.0050000  0  5 14 15 22 25 29
  -2916859.58900  22303600.54800                  -2249846.96640  22303604.83740
  16040768.10700  23471080.42300                  12566340.10040  23471085.73140
  -3318503.48400  24254970.68100                  -2526762.21040  24254976.02440
  15694857.69200  23196561.59500                  12267390.52940  23196565.08740
   1248131.24600  23000203.03200                    997476.68440  23000206.20840
 96  9 13  1  4 30.0050000  0  5 14 15 22 25 29
  -2915777.79200  22303806.57100                  -2249004.00240  22303810.94240
  16173343.25800  23496308.64900                  12669645.37640  23496313.45440
  -3353015.93200  24248403.54000                  -2553654.97940  24248408.29840
  15812941.01600  23219032.64900                  12359403.50740  23219036.13040
   1261986.13500  23002839.70400                   1008272.70340  23002842.96240
 96  9 13  1  5  0.0050000  0  5 14 15 22 25 29
  -2914491.53800  22304051.11000                  -2248001.73140  22304055.35340
  16306148.87100  23521580.13400                  12773130.24140  23521584.95040
  -3387436.13900  24241853.44600                  -2580475.88840  24241858.79040
  15931188.56600  23241533.87600                  12451544.44140  23241537.50940
   1275852.23900  23005477.87600                   1019077.46540  23005481.28640
 96  9 13  1  5 30.0050000  0  5 14 15 22 25 29
  -2912993.27200  22304336.35300                  -2246834.24440  22304340.46640
  16439187.97600  23546897.25100                  12876797.05840  23546902.07940
  -3421763.74200  24235320.76700                  -2607224.63340  24235325.51340
  16049612.45800  23264069.45400                  12543822.79140  23264072.66540
   1289732.51400  23008119.54000                   1029893.26540  23008122.93840
 96  9 13  1  6  0.0050000  0  5 14 15 22 25 29
  -2911280.13800  22304662.43800                  -2245499.32940  22304666.55240
  16572450.13400  23572255.86000                  12980637.68240  23572260.51340
  -3455998.90500  24228806.03200                  -2633901.34740  24228811.35340
  16168213.08600  23286638.16500                  12636238.85940  23286641.76340
   1303606.24400  23010759.53200                   1040703.96840  23010762.79040
 96  9 13  1  6 30.0050000  0  5 14 15 22 25 29
  -2909381.02300  22305023.48500                  -2244019.49240  22305027.71640
  16705923.14200  23597654.92300                  13084642.59640  23597659.66940
  -3490142.89600  24222308.48500                  -2660507.01540  24222313.85340
  16286972.08600  23309237.28200                  12728778.34140  23309240.84540
   1317471.20400  23013397.75100                   1051507.83440  23013401.23140
 96  9 13  1  7  0.0050000  0  5 14 15 22 25 29
  -2907273.22400  22305424.54000                  -2242377.05340  22305428.73540
  16839626.24100  23623097.36000                  13188826.79640  23623102.54040
  -3524164.39800  24215834.54800                  -2687017.23140  24215839.97440
  16405911.60900  23331870.79800                  12821458.48440  23331873.95040
   1331353.10200  23016039.66500                   1062324.90140  23016042.94640
 96  9 13  1  7 30.0050000  0  6 14 15 18 22 25 29
  -2904959.50700  22305864.86800                  -2240574.15640  22305869.14540
  16973541.31000  23648580.86800                  13293176.17640  23648586.00140
     -5105.14310  26311385.34500
  -3558066.49600  24209383.01700                  -2713434.40540  24209387.91540
  16524999.46200  23354532.29000                  12914254.20540  23354535.74740
   1345232.26300  23018680.30600                   1073139.84140  23018683.70440
 96  9 13  1  8  0.0050000  0  6 14 15 18 22 25 29
  -2902452.15400  22306342.06300                  -2238620.36940  22306346.34140
  17107654.26200  23674101.79800                  13397679.75040  23674107.04840
    -35829.84300  26305537.68800
  -3591861.23500  24202952.78200                  -2739767.93840  24202957.55240
  16644208.82300  23377217.36800                  13007144.61040  23377220.73140
   1359105.79300  23021320.28200                   1083950.38040  23021323.92740
 96  9 13  1  8 30.0050000  0  6 14 15 18 22 25 29
  -2899734.80900  22306859.15700                  -2236502.94840  22306863.47040
  17241974.86500  23699662.71200                  13502345.12340  23699667.23540
    -66703.94400  26299662.95400
  -3625538.18400  24196543.44600                  -2766009.68540  24196548.53240
  16763540.01000  23399925.11000                  13100129.94240  23399928.40340
   1373000.10700  23023964.50100                   1094777.12840  23023967.92340
 96  9 13  1  9  0.0050000  0  6 14 15 18 22 25 29
  -2896753.96500  22307426.48500                  -2234180.21340  22307430.72840
  17376509.10300  23725263.35300                  13607176.96440  23725268.38040
    -97713.35300  26293761.22800                    -14509.65450  26293764.81340
  -3659087.62700  24190160.18100                  -2792152.05740  24190164.92740
  16883010.67700  23422659.89900                  13193223.96040  23422663.41540
   1386921.30300  23026613.93800                   1105624.81540  23026617.17340
 96  9 13  1  9 30.0050000  0  6 14 15 18 22 25 29
  -2893509.76500  22308043.89200                  -2231652.26340  22308048.13440
  17511249.29600  23750904.02400                  13712169.28140  23750908.95840
   -128833.70300  26287839.75100                    -38759.15140  26287847.92340
  -3692509.74900  24183798.93800                  -2818195.24940  24183803.95440
  17002624.98600  23445421.41500                  13286429.90240  23445424.72040
   1400858.85700  23029266.11800                   1116485.26440  23029269.27040
 96  9 13  1 10  0.0050000  0  6 14 15 18 22 25 29
  -2889979.59000  22308715.75100                  -2228901.47440  22308719.95840
  17646211.90600  23776586.46200                  13817334.93340  23776590.83340
   -160034.10500  26281902.17300                    -63071.14740  26281906.00540
  -3725788.32300  24177466.29800                  -2844126.58240  24177471.48940
  17122424.16400  23468218.58700                  13379779.90240  23468221.93840
   1414837.56900  23031926.30600                   1127377.77440  23031929.41140
 96  9 13  1 10 30.0050000  0  6 14 15 18 22 25 29
  -2886153.43900  22309443.64900                  -2225920.05640  22309447.65740
  17781392.28100  23802310.32900                  13922670.25440  23802315.42740
   -191303.11400  26275952.68800                    -87436.45040  26275957.69240
  -3758907.00000  24171164.87600                  -2869933.30940  24171169.91540
  17242415.59200  23491052.26700                  13473279.70040  23491055.80640
   1428848.73700  23034592.22800                   1138295.56740  23034595.55640
 96  9 13  1 11  0.0050000  0  6 14 15 18 22 25 29
  -2882027.20800  22310228.95400                  -2222704.80840  22310232.93840
  17916794.87100  23828076.23500                  14028178.73840  23828081.46240
   -222623.77200  26269992.06300                   -111842.14240  26269996.83340
  -3791847.80000  24164896.02400                  -2895601.43140  24164901.47440
  17362614.69000  23513925.27400                  13566941.32740  23513928.54440
   1442888.91800  23037264.17300                   1149235.97740  23037267.72440
 96  9 13  1 11 30.0050000  0  6 14 15 18 22 25 29
  -2877641.79900  22311063.54000                  -2219287.60640  22311067.68840
  18052395.98100  23853880.82900                  14133841.91040  23853885.81040
   -254032.69900  26264016.36800                   -136316.60240  26264021.81740
  -3824634.18800  24158657.09500                  -2921149.24540  24158662.72040
  17483000.72300  23536834.28200                  13660748.61140  23536837.63440
   1456943.47100  23039938.62600                   1160187.58040  23039941.97840
 96  9 13  1 12  0.0050000  0  6 14 15 18 22 25 29
  -2872972.44900  22311951.75900                  -2215649.15040  22311955.94240
  18188205.42600  23879724.56300                  14239667.41940  23879729.63840
   -285536.77100  26258019.57100                   -160865.18240  26258026.02840
  -3857255.93500  24152449.16500                  -2946568.74640  24152453.87640
  17603574.51600  23559778.38400                  13754702.20740  23559781.88840
   1471039.77100  23042620.93100                   1171171.71340  23042624.39940
 96  9 13  1 12 30.0050000  0  6 14 15 18 22 25 29
  -2868025.97200  22312893.02400                  -2211794.75240  22312897.32540
  18324217.43300  23905606.18800                  14345650.77440  23905611.50940
   -317139.31900  26252006.04800                   -185490.47740  26252014.38440
  -3889703.93900  24146274.35300                  -2971852.87340  24146279.05240
  17724320.68200  23582755.83700                  13848790.10840  23582759.44640
   1485172.69900  23045310.54000                   1182184.39240  23045313.72840
 96  9 13  1 13  0.0050000  0  6 14 15 18 22 25 29
  -2862811.19000  22313885.43800                  -2207731.28240  22313889.73940
  18460427.20800  23931526.29000                  14451788.22340  23931531.20040
   -348843.28900  26245973.68800                   -210194.80640  26245978.01340
  -3921997.77700  24140128.61800                  -2997016.87140  24140133.84540
  17845240.62400  23605765.95400                  13943013.43440  23605769.14240
   1499342.86000  23048006.93100                   1193226.08540  23048010.01340
 96  9 13  1 13 30.0050000  0  6 14 15 18 22 25 29
  -2857320.78400  22314930.25900                  -2203453.04640  22314934.45440
  18596835.23400  23957484.29800                  14558080.16840  23957489.06740
   -380647.25600  26239921.29800                   -234977.09040  26239926.10340
  -3954135.11200  24134013.73500                  -3022058.92140  24134018.83340
  17966320.98400  23628806.86000                  14037361.75440  23628810.22440
   1513566.40800  23050713.55600                   1204309.38440  23050716.76740
 96  9 13  1 14  0.0050000  0  6 14 15 18 22 25 29
  -2851547.86800  22316028.79800                  -2198954.66940  22316033.02840
  18733442.68900  23983479.35300                  14664527.50440  23983484.40340
   -412525.12500  26233854.64200
  -3986110.54000  24127929.54000                  -3046974.79840  24127933.59540
  18087547.16200  23651875.54800                  14131823.70140  23651879.27440
   1527841.15900  23053429.82100                   1215432.54940  23053433.14940
 96  9 13  1 14 30.0050000  0  6 14 15 18 22 25 29
  -2845500.13100  22317179.61800                  -2194242.14740  22317183.72040
  18870245.07800  24009512.60300                  14771126.72740  24009517.66540
   -444474.85800  26227774.84500
  -4017919.31600  24121875.89200                  -3071760.83240  24121880.36840
  18208920.26100  23674971.70400                  14226400.12840  23674975.07940
   1542156.41600  23056153.97800                   1226587.31440  23056157.09540
 96  9 13  1 15  0.0050000  0  6 14 15 18 22 25 29
  -2839164.04500  22318385.58700                  -2189304.93740  22318389.73540
  19007247.25800  24035583.25900                  14877881.64340  24035588.53240
   -476491.39300  26221682.80600
  -4049557.51300  24115855.70400                  -3096413.94840  24115860.68540
  18330435.26900  23698095.46200                  14321087.13140  23698099.01340
   1556519.01100  23058887.14200                   1237778.95240  23058890.42340
 96  9 13  1 15 30.0050000  0  6 14 15 18 22 25 29
  -2832547.75200  22319644.39200                  -2184149.38740  22319648.50540
  19144437.24800  24061689.68800                  14984782.89740  24061694.31740
   -508591.61100  26215574.51700                    -15848.78650  26215584.27040
  -4081025.35000  24109867.36800                  -3120934.30540  24109872.03240
  18452065.41300  23721241.15700                  14415863.86440  23721244.73140
   1570916.70300  23061626.83700                   1248997.93740  23061630.17740
 96  9 13  1 16  0.0050000  0  6 14 15 18 22 25 29
  -2825662.59200  22320954.50900                  -2178784.32840  22320958.91540
  19281806.58000  24087830.20400                  15091823.89940  24087835.48940
   -540786.24900  26209447.39200                    -40935.48740  26209453.27440
  -4112316.35200  24103912.58700                  -3145316.85840  24103917.31040
  18573811.67600  23744408.90700                  14510731.07240  23744412.17740
   1585326.84600  23064368.95400                   1260226.62740  23064372.38840
 96  9 13  1 16 30.0060000  0  6 14 15 18 22 25 29
  -2818491.33100  22322319.50600                  -2173196.32940  22322323.74840
  19419371.55800  24114007.70900                  15199017.34540  24114012.88940
   -573080.22500  26203302.49000                    -66099.67740  26203305.29140
  -4143394.15200  24097998.43600                  -3169533.29240  24098003.18240
  18695702.06800  23767603.20100                  14605710.58340  23767606.55340
   1599762.98200  23067116.25600                   1271475.57040  23067119.43240
 96  9 13  1 17  0.0060000  0  6 14 15 18 22 25 29
  -2811034.17400  22323738.28700                  -2167385.56140  22323742.48240
  19557119.53600  24140220.59200                  15306353.39240  24140226.14640
   -605461.02000  26197139.62300                    -91331.35140  26197145.01440
  -4174254.61600  24092126.06100                  -3193580.37640  24092130.61940
  18817724.97900  23790823.83400                  14700793.36040  23790827.22140
   1614225.72300  23069868.31100                   1282745.23440  23069871.58040
 96  9 13  1 17 30.0060000  0  6 14 15 18 22 25 29
  -2803271.34800  22325215.46700                  -2161336.60240  22325219.66240
  19695068.20700  24166471.11500                  15413845.83340  24166476.14340
   -637901.94900  26190967.17800                   -116610.01540  26190972.58040
  -4204873.69800  24086299.56100                  -3217439.37540  24086304.90440
  18939912.74000  23814075.39600                  14796004.58840  23814078.84240
   1628739.63600  23072630.27100                   1294054.77940  23072633.63540
 96  9 13  1 18  0.0060000  0  6 14 15 18 22 25 29
  -2795208.52100  22326749.87300                  -2155053.88040  22326754.03340
  19833194.51400  24192755.88900                  15521476.69340  24192760.99840
   -670411.55300  26184780.59200                   -141942.08340  26184782.83040
  -4235261.95400  24080517.23200                  -3241118.49440  24080521.46340
  19062264.25500  23837357.95900                  14891343.41640  23837361.82640
   1643297.44600  23075400.49000                   1305398.52740  23075403.63140
 96  9 13  1 18 30.0060000  0  6 14 15 18 22 25 29
  -2786817.13300  22328346.86500                  -2148515.13640  22328351.17840
  19971515.90500  24219077.59200                  15629259.55840  24219082.44340
   -702955.35100  26178587.70900                   -167300.90140  26178594.69740
  -4265408.49300  24074779.84200                  -3264609.26740  24074784.89340
  19184805.50000  23860676.94300                  14986830.08540  23860680.69340
   1657939.38200  23078186.83400                   1316807.83840  23078190.05740
 96  9 13  1 19  0.0060000  0  6 14 15 18 22 25 29
  -2778107.53900  22330004.42800                  -2141728.43840  22330008.65840
  20110014.38000  24245432.58400                  15737180.41940  24245438.03340
   -735542.13800  26172386.80300                   -192693.15740  26172392.36940
  -4295350.45300  24069082.42000                  -3287940.63540  24069087.43640
  19307512.30900  23884027.21700                  15082445.76940  23884030.52140
   1672656.04200  23080987.20900                   1328275.36840  23080990.20940
 96  9 13  1 19 30.0060000  0  6 14 15 18 22 25 29
  -2769056.96100  22331726.39600                  -2134676.03740  22331730.68640
  20248698.43700  24271823.96700                  15845245.87740  24271829.35740
   -768177.66200  26166175.45100                   -218123.30140  26166179.75240
  -4325075.41800  24063426.16200                  -3311102.90340  24063430.90840
  19430394.96600  23907410.81100                  15178198.47340  23907414.60740
   1687466.48800  23083805.83400                   1339815.98840  23083809.10340
 96  9 13  1 20  0.0060000  0  6 14 15 18 22 25 29
  -2759677.90800  22333511.12300                  -2127367.68240  22333515.57640
  20387564.10400  24298248.59200                  15953452.86040  24298254.20540
   -800872.64400  26159953.05300                   -243599.89140  26159960.54540
  -4354580.35300  24057811.24000                  -3334093.73540  24057816.18640
  19553447.02300  23930827.21700                  15274083.18540  23930830.67440
   1702362.16800  23086640.01400                   1351423.01240  23086643.43640
 96  9 13  1 20 30.0060000  0  6 14 15 18 22 25 29
  -2749991.37000  22335354.67000                  -2119819.73840  22335358.84240
  20526595.38000  24324705.32600                  16061788.87340  24324710.79940
   -833652.26600  26153717.20900                   -269142.42040  26153720.22140
  -4383868.58400  24052237.12300                  -3356915.69940  24052241.76440
  19676633.13400  23954268.49800                  15370072.34740  23954271.96740
   1717313.07100  23089485.24800                   1363073.05540  23089488.60040
 96  9 13  1 21  0.0060000  0  6 14 15 18 22 25 29
  -2739984.29700  22337258.74000                  -2112022.01740  22337262.81840
  20665794.94800  24351193.95100                  16170256.04240  24351198.77940
   -866522.29700  26147460.29500                   -294755.46040  26147463.81140
  -4412913.13100  24046710.71700                  -3379547.78640  24046715.39340
  19799952.45200  23977735.67000                  15466165.32040  23977739.10340
   1732318.56100  23092340.47500                   1374765.65140  23092343.74440
 96  9 13  1 21 30.0060000  0  6 14 15 18 22 25 29
  -2729659.58500  22339223.60700                  -2103976.78740  22339227.65040
  20805159.06200  24377715.03700                  16278851.42040  24377720.43940
   -899481.80100  26141189.76400                   -320438.14540  26141193.39640
  -4441691.09000  24041234.34200                  -3401972.12240  24041239.14640
  19923418.62500  24001230.27100                  15562372.72940  24001233.64640
   1747367.44300  23095204.27100                   1386492.05240  23095207.41240
 96  9 13  1 22  0.0060000  0  6 14 15 18 22 25 29
  -2719008.10200  22341250.22500                  -2095676.93240  22341254.40840
  20944689.67000  24404266.38100                  16387576.51640  24404271.92440
   -932520.70300  26134902.10000                   -346182.66740  26134906.08440
  -4470190.45600  24035811.07600                  -3424179.38840  24035815.58840
  20047041.54100  24024755.07600                  15658702.26040  24024758.56840
   1762446.03700  23098073.85700                   1398241.60340  23098077.08040
 96  9 13  1 22 30.0060000  0  6 14 15 18 22 25 29
  -2707998.81100  22343345.44300                  -2087098.26740  22343349.62740
  21084384.99400  24430849.67800                  16496429.98140  24430855.53740
   -965635.12500  26128601.16200                   -371986.07440  26128605.14640
  -4498409.71700  24030441.06800                  -3446168.39140  24030445.54540
  20170821.24700  24048309.44300                  15755153.96740  24048313.01840
   1777544.84200  23100947.04500                   1410006.90440  23100950.10340
 96  9 13  1 23  0.0060000  0  6 14 15 18 22 25 29
  -2696636.63300  22345507.43600                  -2078244.62140  22345511.67840
  21224237.64400  24457463.06800                  16605406.04240  24457468.24840
   -998814.15200  26122288.41200                   -397839.83040  26122291.20140
  -4526361.90500  24025121.70100                  -3467949.29040  24025126.49440
  20294764.44300  24071895.24800                  15851733.06740  24071898.67040
   1792663.23700  23103823.99000                   1421787.47440  23103827.23640
 96  9 13  1 23 30.0060000  0  6 14 15 18 22 25 29
  -2684930.56400  22347735.14600                  -2069123.00640  22347739.48240
  21364247.88200  24484105.70900                  16714504.89840  24484111.32240
  -1032045.88800  26115963.06100                   -423734.68540  26115966.36540
  -4554062.73500  24019850.88900                  -3489534.31640  24019855.84640
  20418873.44500  24095512.50600                  15948441.39140  24095515.79940
   1807801.55800  23106704.69300                   1433583.57340  23106707.91640
 96  9 13  1 24  0.0060000  0  6 14 15 18 22 25 29
  -2672867.60700  22350030.67800                  -2059723.29940  22350034.89640
  21504427.09900  24510780.85700                  16823735.40640  24510786.04940
  -1065316.25700  26109632.19300                   -449659.61340  26109639.15840
  -4581497.11300  24014629.81800                  -3510911.72640  24014635.25640
  20543141.85300  24119159.62300                  16045273.91240  24119163.47840
   1822983.85000  23109593.88100                   1445413.94040  23109596.97540
 96  9 13  1 24 30.0060000  0  6 14 15 18 22 25 29
  -2660461.34300  22352391.27900                  -2050056.07940  22352395.51040
  21644773.66600  24537487.76400                  16933096.32240  24537492.70940
  -1098613.29500  26103296.47500                   -475605.28140  26103301.56140
  -4608661.86800  24009460.95100                  -3532079.03940  24009465.77940
  20667547.04300  24142833.15400                  16142213.00640  24142836.79940
   1838237.27400  23112496.35700                   1457299.73140  23112499.58040
 96  9 13  1 25  0.0060000  0  6 14 15 18 22 25 29
  -2647733.53200  22354813.25600                  -2040138.30640  22354817.45140
  21785278.92700  24564226.26400                  17042580.88440  24564231.37340
  -1131945.37000  26096952.77100                   -501578.29340  26096959.28740
  -4635568.85000  24004340.75600                  -3553045.47940  24004345.73640
  20792069.27300  24166529.19300                  16239243.30040  24166532.67440
   1853587.38600  23115417.39600                   1469260.85040  23115420.56140
 96  9 13  1 25 30.0060000  0  6 14 15 18 22 25 29
  -2634654.68300  22357302.16200                  -2029946.99940  22357306.48640
  21925945.16400  24590993.81100                  17152190.90740  24590999.02540
  -1165316.12700  26090601.80300                   -527581.44540  26090608.43640
  -4662202.62100  23999272.13900                  -3573799.03540  23999277.35340
  20916691.82900  24190243.83400                  16336351.77640  24190247.23240
   1869046.82200  23118359.00600                   1481307.17040  23118362.36940
 96  9 13  1 26  0.0060000  0  6 14 15 18 22 25 29
  -2621197.25500  22359863.24000                  -2019460.69140  22359867.35340
  22066770.17100  24617791.42800                  17261924.62940  24617796.97140
  -1198725.13800  26084245.49800                   -553614.37340  26084251.67440
  -4688545.75000  23994259.31800                  -3594326.11740  23994264.47540
  21041402.77700  24213975.60700                  16433529.12840  24213979.22840
   1884621.70800  23121322.92000                   1493443.44940  23121325.96740
 96  9 13  1 26 30.0060000  0  6 14 15 18 22 25 29
  -2607341.46100  22362499.88900                  -2008663.96940  22362503.86140
  22207752.36400  24644619.81100                  17371780.84240  24644625.48240
  -1232164.87200  26077882.23200                   -579671.26440  26077887.76440
  -4714604.40100  23989300.37300                  -3614631.53540  23989305.16640
  21166214.77000  24237726.43600                  16530785.20940  24237730.06840
   1900315.64600  23124309.41200                   1505672.49340  23124312.52940
 96  9 13  1 27  0.0060000  0  6 14 15 18 22 25 29
  -2593073.19200  22365215.06800                  -1997545.83640  22365219.24040
  22348887.54600  24671477.19300                  17481756.26040  24671482.76040
  -1265647.61700  26071510.08400                   -605761.66840  26071514.72540
  -4740371.34700  23984397.16200                  -3634709.63940  23984401.53340
  21291151.00400  24261501.61500                  16628138.12940  24261505.09640
   1916107.79400  23127314.42800                   1517978.06840  23127317.52140
 96  9 13  1 27 30.0060000  0  6 14 15 18 22 25 29
  -2578396.86000  22368007.57600                  -1986109.73840  22368011.58440
  22490169.07100  24698362.27900                  17591845.71340  24698367.27140
  -1299174.60500  26065130.52100                   -631886.58540  26065134.96340
  -4765838.62700  23979550.49000                  -3654554.24440  23979554.96740
  21416234.17000  24285303.99800                  16725605.53340  24285307.50240
   1931969.80400  23130333.04500                   1530338.08540  23130336.32640
 96  9 13  1 28  0.0060000  0  6 14 15 18 22 25 29
  -2563332.96500  22370874.21700                  -1974371.64140  22370878.40040
  22631593.20100  24725273.38900                  17702046.28840  24725279.15440
  -1332747.16600  26058741.69300                   -658046.94240  26058747.64640
  -4791017.02400  23974759.42800                  -3674173.74340  23974764.44340
  21541491.16600  24309139.60700                  16823208.37740  24309143.29940
   1947896.47700  23133363.63100                   1542748.47940  23133366.94740
 96  9 13  1 28 30.0060000  0  6 14 15 18 22 25 29
  -2547911.29500  22373809.10000                  -1962354.75140  22373813.34240
  22773148.34300  24752210.60700                  17812348.94340  24752215.99840
  -1366390.41600  26052339.30300                   -684262.44240  26052345.12740
  -4815919.12000  23970020.56800                  -3693577.95140  23970025.25640
  21666925.76000  24333009.00600                  16920949.61140  24333012.45140
   1963873.67800  23136403.78700                   1555198.25640  23136407.15040
 96  9 13  1 29  0.0060000  0  6 14 15 18 22 25 29
  -2532149.84600  22376808.48200                  -1950073.10540  22376812.74840
  22914830.10600  24779171.61500                  17922750.27540  24779177.22840
  -1400112.14100  26045922.42800                   -710539.02940  26045926.86940
  -4840538.74400  23965335.85700                  -3712762.03440  23965340.66240
  21792522.15300  24356909.20900                  17018816.92840  24356912.70140
   1979897.40800  23139453.34200                   1567684.29140  23139456.64640
 96  9 13  1 29 30.0060000  0  6 14 15 18 22 25 29
  -2516032.50500  22379875.21700                  -1937514.13440  22379879.44740
  23056647.67300  24806159.39600                  18033257.41940  24806164.76440
  -1433887.97300  26039493.74000                   -736857.83040  26039498.19340
  -4864866.67700  23960706.35700                  -3731718.84040  23960711.46740
  21918271.41100  24380837.84200                  17116803.36540  24380840.98240
   1995993.27700  23142516.17800                   1580226.51540  23142519.45940
 96  9 13  1 30  0.0060000  0  6 14 15 18 22 25 29
  -2499566.67000  22383008.53700                  -1924683.62540  22383012.83840
  23198585.42200  24833169.32600                  18143858.23940  24833175.17440
  -1467735.45500  26033054.52100                   -763232.45740  26033058.61140
  -4888907.46100  23956131.60000                  -3750451.89440  23956136.86140
  22044135.98000  24404789.30300                  17214879.64040  24404793.15840
   2012163.52400  23145593.11500                   1592826.72640  23145596.49040
 96  9 13  1 30 30.0060000  0  6 14 15 18 22 25 29
  -2482740.47900  22386210.65400                  -1911572.30840  22386214.88540
  23340644.18700  24860202.22500                  18254553.33140  24860207.65040
  -1501644.43000  26026601.35000                   -789655.00940  26026606.50640
  -4912632.84100  23951616.62300                  -3768939.17340  23951621.51040
  22170093.61200  24428758.42000                  17313028.43140  24428762.45140
   2028420.27100  23148686.78700                   1605494.32040  23148689.92840
 96  9 13  1 31  0.0060000  0  6 14 15 18 22 25 29
  -2465561.03700  22389479.95900                  -1898185.72840  22389484.07240
  23482801.71900  24887254.17000                  18365325.37840  24887260.00640
  -1535613.78000  26020137.45100                   -816124.59340  26020142.65440
  -4936045.33800  23947161.48200                  -3787182.65140  23947166.21740
  22296119.66300  24452740.52900                  17411230.55140  24452743.75240
   2044757.04500  23151795.68600                   1618224.28140  23151798.95540
 96  9 13  1 31 30.0060000  0  6 14 15 18 22 25 29
  -2448001.59500  22392821.41200                  -1884503.05240  22392825.50240
  23625064.35900  24914325.61500                  18476179.32640  24914331.17040
  -1569634.37000  26013662.38900                   -842634.09040  26013667.32240
  -4959126.37200  23942769.60700                  -3805167.84940  23942774.20140
  22422234.86200  24476739.17000                  17509502.12840  24476742.77940
   2061184.27500  23154921.90400                   1631024.71140  23154924.92840
 96  9 13  1 32  0.0060000  0  6 14 15 18 22 25 29
  -2430080.77800  22396231.42800                  -1870538.77940  22396235.52940
  23767416.47700  24941413.92800                  18587103.02040  24941419.07240
  -1603721.84700  26007176.71700                   -869195.74840  26007179.83440
  -4981873.23900  23938440.35700                  -3822892.64940  23938445.02140
  22548424.03100  24500752.21700                  17607831.34740  24500755.76840
   2077672.49200  23158059.65400                   1643872.68140  23158062.73640
 96  9 13  1 32 30.0060000  0  6 14 15 18 22 25 29
  -2411793.52500  22399711.31800                  -1856288.97040  22399715.61940
  23909857.65700  24968519.54500                  18698096.09140  24968524.95940
  -1637856.29300  26000681.13900                   -895793.96940  26000685.31140
  -5004286.38900  23934175.23200                  -3840357.41940  23934179.76840
  22674694.81600  24524780.88900                  17706224.15940  24524784.52140
   2094217.94400  23161207.64600                   1656765.24340  23161210.74040
 96  9 13  1 33  0.0070000  0  6 14 15 18 22 25 29
  -2393143.81200  22403260.27600                  -1841756.72740  22403264.48340
  24052387.14100  24995641.37000                  18809157.97940  24995646.86640
  -1672037.07200  25994176.66700                   -922428.32640  25994180.82740
  -5026375.93600  23929971.36200                  -3857570.02540  23929976.24940
  22801057.62800  24548826.87000                  17804688.69240  24548830.31540
   2110806.44600  23164364.41700                   1669691.35740  23164367.68640
 96  9 13  1 33 30.0070000  0  6 14 15 18 22 25 29
  -2374125.60900  22406879.26100                  -1826937.34640  22406883.52640
  24195002.72600  25022781.21400                  18920286.92440  25022787.00340
  -1706242.71300  25987667.40900                   -949082.02740  25987672.85840
  -5048138.69400  23925830.21400                  -3874527.98940  23925834.79640
  22927502.37500  24572888.83100                  17903217.05940  24572892.38240
   2127430.13300  23167527.76100                   1682644.88440  23167531.08940
 96  9 13  1 34  0.0070000  0  6 14 15 18 22 25 29
  -2354756.24600  22410565.24500                  -1811844.33240  22410569.47640
  24337698.30500  25049935.63600                  19031478.25540  25049940.87440
  -1740481.66800  25981152.58100                   -975761.65840  25981157.44440
  -5069585.81400  23921749.27600                  -3891240.00640  23921754.06940
  23054022.72200  24596964.78400                  18001804.34940  24596968.59340
   2144082.36400  23170696.69800                   1695620.65440  23170699.80440
 96  9 13  1 34 30.0070000  0  6 14 15 18 22 25 29
  -2335035.18400  22414317.86200                  -1796477.26740  22414321.95240
  24480471.70200  25077104.35400                  19142730.21840  25077109.78040
  -1774754.68100  25974630.64400                  -1002467.92840  25974637.00740
  -5090728.68000  23917726.30000                  -3907714.93540  23917730.85840
  23180635.70200  24621058.20600                  18100463.81140  24621061.72240
   2160785.28500  23173875.22200                   1708635.92240  23173878.31540
 96  9 13  1 35  0.0070000  0  6 14 15 18 22 25 29
  -2314958.38100  22418138.44000                  -1780833.00740  22418142.53040
  24623312.29800  25104286.87000                  19254034.52040  25104292.61240
  -1809083.63400  25968097.72900                  -1029217.71640  25968103.30840
  -5111570.87100  23913759.79200                  -3923955.58440  23913765.08940
  23307340.85800  24645169.38600                  18199195.11040  24645172.71440
   2177534.90200  23177062.65900                   1721687.57240  23177065.88240
 96  9 13  1 35 30.0070000  0  6 14 15 18 22 25 29
  -2294500.33200  22422031.56500                  -1764891.67140  22422035.70240
  24766222.78100  25131480.67500                  19365393.27540  25131486.01940
  -1843481.98800  25961551.40100                  -1056021.58240  25961557.67140
  -5132107.54800  23909851.55000                  -3939958.15740  23909856.33140
  23434144.22100  24669299.50300                  18298002.92640  24669303.10140
   2194345.52500  23180261.40100                   1734786.76740  23180264.74140
 96  9 13  1 36  0.0070000  0  6 14 15 18 22 25 29
  -2273649.27600  22425999.35400                  -1748644.09440  22426003.37440
  24909200.42900  25158688.82300                  19476804.38340  25158694.20240
  -1877980.45900  25954987.11200                  -1082903.50940  25954992.09340
  -5152329.67100  23906003.52600                  -3955715.62540  23906008.24940
  23561059.06900  24693450.03400                  18396897.60640  24693453.57340
   2211230.38000  23183474.33100                   1747943.80240  23183477.64740
 96  9 13  1 36 30.0070000  0  6 14 15 18 22 25 29
  -2252396.34100  22430043.47900                  -1732083.36340  22430047.68640
  25052235.00000  25185907.80800                  19588259.84940  25185913.12840
  -1912586.89000  25948401.97200                  -1109869.52640  25948407.87840
  -5172245.59200  23902214.01900                  -3971234.50340  23902218.48340
  23688073.51400  24717620.58100                  18495869.88940  24717624.82340
   2228182.88600  23186700.22200                   1761153.54740  23186703.66740
 96  9 13  1 37  0.0070000  0  6 14 15 18 22 25 29
  -2230725.35500  22434167.41700                  -1715196.88040  22434171.54240
  25195329.13400  25213137.48700                  19699761.71640  25213142.23340
  -1947303.62700  25941795.12800                  -1136921.45840  25941799.05440
  -5191845.39100  23898483.90900                  -3986507.06040  23898488.84340
  23815170.87300  24741806.01900                  18594906.78440  24741809.32340
   2245185.90300  23189935.94800                   1774402.65540  23189939.28840
 96  9 13  1 37 30.0070000  0  6 14 15 18 22 25 29
  -2208652.71800  22438367.78400                  -1697997.41940  22438371.92140
  25338480.88700  25240378.01900                  19811308.48940  25240383.81940
  -1982130.62600  25935167.30000                  -1164059.40540  25935172.14040
  -5211112.42700  23894817.53400                  -4001520.30040  23894822.18640
  23942338.66600  24766005.12000                  18693998.57140  24766008.84740
   2262238.09800  23193181.05000                   1787690.08640  23193184.24940
 96  9 13  1 38  0.0070000  0  6 14 15 18 22 25 29
  -2186205.04100  22442639.34700                  -1680505.72740  22442643.58940
  25481683.72300  25267628.27600                  19922895.05140  25267634.04240
  -2017047.26200  25928523.81500                  -1191267.09240  25928527.67140
  -5230046.21200  23891214.30000                  -4016273.87640  23891218.78840
  24069570.57800  24790216.63600                  18793140.31940  24790220.81940
   2279334.56100  23196434.15100                   1801012.01440  23196437.55040
 96  9 13  1 38 30.0070000  0  6 14 15 18 22 25 29
  -2163397.29900  22446979.57300                  -1662733.46040  22446983.66340
  25624927.24000  25294887.77600                  20034513.33140  25294892.88640
  -2052027.71200  25921866.22900                  -1218524.59240  25921871.47940
  -5248662.78300  23887672.07300                  -4030780.26340  23887676.58540
  24196837.41600  24814434.62000                  18892309.27340  24814438.75740
   2296456.84300  23199692.47200                   1814354.05440  23199695.84740
 96  9 13  1 39  0.0070000  0  6 14 15 18 22 25 29
  -2140239.99700  22451386.18300                  -1644688.81140  22451390.24940
  25768204.73800  25322152.82300                  20146158.09840  25322157.83940
  -2087061.88700  25915199.36200                  -1245823.90740  25915205.86640
  -5266940.01000  23884193.96400                  -4045022.23940  23884198.54640
  24324137.75200  24838658.97900                  18991504.32540  24838662.90540
   2313608.20100  23202956.13600                   1827718.75140  23202959.47640
 96  9 13  1 39 30.0070000  0  6 14 15 18 22 25 29
  -2116735.44700  22455858.87800                  -1626373.56940  22455862.90940
  25911513.26600  25349422.38600                  20257827.04740  25349428.24540
  -2122138.04300  25908524.35400                  -1273155.93240  25908531.01140
  -5284858.61600  23880784.18300                  -4058984.76140  23880788.69440
  24451483.70000  24862892.86200                  19090734.94140  24862896.63640
   2330804.20600  23206228.41700                   1841118.24540  23206231.72240
 96  9 13  1 40  0.0070000  0  6 14 15 18 22 25 29
  -2092873.04300  22460399.89400                  -1607779.49040  22460403.84340
  26054848.60100  25376698.97900                  20369516.84840  25376704.88640
  -2157249.36000  25901844.39400                  -1300515.35840  25901849.65540
  -5302428.39400  23877440.83900                  -4072675.46740  23877445.25740
  24578867.92700  24887132.92500                  19189995.36940  24887136.18340
   2348049.77100  23209510.30000                   1854556.35240  23209513.59340
 96  9 13  1 40 30.0070000  0  6 14 15 18 22 25 29
  -2068620.48500  22465014.94000                  -1588881.39340  22465019.04240
  26198224.05600  25403981.42500                  20481237.94340  25403987.23740
  -2192395.74700  25895154.19000                  -1327902.16640  25895161.85840
  -5319622.30600  23874168.59700                  -4086073.29940  23874173.05040
  24706310.39600  24911384.05000                  19289301.17640  24911387.34340
   2365374.83800  23212807.19800                   1868056.41340  23212810.42140
 96  9 13  1 41  0.0070000  0  6 14 15 18 22 25 29
  -2043972.83800  22469705.19800                  -1569675.43740  22469709.35840
  26341639.76800  25431274.25300                  20592990.38440  25431279.93640
  -2227596.57600  25888457.01900                  -1355331.33640  25888462.85440
  -5336421.53700  23870972.26100                  -4099163.58440  23870976.69040
  24833829.42800  24935650.37800                  19388666.66040  24935654.30440
   2382792.93500  23216121.61200                   1881628.96340  23216124.83540
 96  9 13  1 41 30.0070000  0  6 14 15 18 22 25 29
  -2018934.84100  22474469.81500                  -1550165.30740  22474474.03440
  26485085.93100  25458570.02600                  20704766.57440  25458575.56940
  -2262869.09200  25881745.80800                  -1382816.36340  25881750.71840
  -5352866.99700  23867842.58900                  -4111978.19540  23867846.89040
  24961406.54600  24959927.26900                  19488077.41040  24959931.30040
   2400295.67700  23219452.28400                   1895267.46440  23219455.70640
 96  9 13  1 42  0.0070000  0  6 14 15 18 22 25 29
  -1993494.03300  22479310.97900                  -1530341.30340  22479315.23340
  26628557.44300  25485871.56500                  20816562.49740  25485877.27240
  -2298212.37200  25875019.87000                  -1410356.56740  25875023.87840
  -5368989.50100  23864773.99500                  -4124541.14940  23864778.88240
  25089035.30800  24984214.33900                  19587528.38440  24984217.74940
   2417887.10200  23222799.91700                   1908975.07640  23222803.22240
 96  9 13  1 42 30.0070000  0  6 14 15 18 22 25 29
  -1967631.05800  22484232.58900                  -1510188.33140  22484236.78440
  26772064.51800  25513179.64400                  20928386.13540  25513184.54240
  -2333617.88400  25868281.72200                  -1437945.23040  25868287.03040
  -5384776.21500  23861770.01900                  -4136842.46540  23861774.96440
  25216738.90000  25008515.68300                  19687037.66440  25008519.69040
   2435562.80600  23226163.37800                   1922748.35840  23226166.50740
 96  9 13  1 43  0.0070000  0  6 14 15 18 22 25 29
  -1941338.92300  22489235.96400                  -1489700.95640  22489240.14740
  26915606.78000  25540495.34700                  21040237.20240  25540500.72640
  -2369077.18900  25861533.16700                  -1465575.85740  25861538.72240
  -5400223.81600  23858830.56500                  -4148879.53540  23858835.07740
  25344501.76500  25032828.33100                  19786593.13140  25032831.67140
   2453312.95000  23229540.83100                   1936579.64340  23229544.08940
 96  9 13  1 43 30.0070000  0  6 14 15 18 22 25 29
  -1914608.65600  22494322.33900                  -1468872.17340  22494326.54640
  27059178.71800  25567816.87000                  21152111.38140  25567822.10840
  -2404588.68400  25854775.86200                  -1493247.08740  25854781.53440
  -5415332.20200  23855955.76100                  -4160652.27540  23855960.21440
  25472321.37400  25057151.80800                  19886192.82640  25057155.66340
   2471134.78200  23232932.37800                   1950466.79240  23232935.77640
 96  9 13  1 44  0.0070000  0  6 14 15 18 22 25 29
  -1887438.83300  22499492.72900                  -1447700.88340  22499496.97240
  27202784.46500  25595144.19800                  21264011.91840  25595149.13240
  -2440140.12200  25848010.62800                  -1520949.46140  25848016.88640
  -5430053.23400  23853154.11200                  -4172123.17340  23853158.39040
  25600210.49100  25081488.05000                  19985846.68440  25081491.58940
   2489030.03400  23236337.93300                   1964411.15140  23236341.24940
 96  9 13  1 44 30.0070000  0  6 14 15 18 22 25 29
  -1859842.53300  22504744.11200                  -1426197.27140  22504748.24940
  27346426.17800  25622477.58900                  21375940.48640  25622483.40140
  -2475733.04200  25841237.26900                  -1548684.17240  25841244.01940
  -5444344.50400  23850434.72900                  -4183259.19840  23850439.14740
  25728167.08400  25105837.51900                  20085553.12240  25105841.09340
   2506994.09900  23239756.31500                   1978409.12640  23239759.62040
 96  9 13  1 45  0.0070000  0  6 14 15 18 22 25 29
  -1831822.99000  22510076.08900                  -1404363.86140  22510080.19040
  27490100.21900  25649817.83900                  21487894.24840  25649824.07340
  -2511359.57800  25834458.28400                  -1576445.07140  25834462.99540
  -5458199.73800  23847798.13600                  -4194055.45140  23847802.64740
  25856185.44800  25130198.44000                  20185307.68240  25130201.97940
   2525036.54200  23243189.69000                   1992468.17940  23243192.94840
 96  9 13  1 45 30.0070000  0  6 14 15 18 22 25 29
  -1803399.39300  22515484.79200                  -1382215.59840  22515488.89440
  27633795.60900  25677161.69000                  21599864.60140  25677167.64440
  -2547018.41800  25827672.37000                  -1604231.12440  25827677.23340
  -5471628.82400  23845242.70600                  -4204519.64740  23845247.41740
  25984267.08600  25154571.90100                  20285111.55440  25154574.37440
   2543144.36700  23246635.47900                   2006578.17740  23246638.79640
 96  9 13  1 46  0.0070000  0  6 14 15 18 22 25 29
  -1774585.51800  22520967.80000                  -1359763.22940  22520971.97240
  27777506.82300  25704509.15100                  21711847.30540  25704516.32740
  -2582711.69800  25820880.58100                  -1632044.04040  25820884.43640
  -5484637.38600  23842767.28400                  -4214656.15640  23842771.67940
  26112394.64000  25178953.91700                  20384951.19740  25178957.39740
   2561311.06000  23250092.40900                   2020734.04840  23250095.69040
 96  9 13  1 46 30.0070000  0  6 14 15 18 22 25 29
  -1745363.48100  22526528.51100                  -1336992.80640  22526532.74140
  27921234.35900  25731860.28400                  21823842.77040  25731866.64740
  -2618445.93500  25814081.30000                  -1659888.86640  25814086.21040
  -5497244.84000  23840367.63600                  -4224480.10840  23840372.24140
  26240568.31100  25203343.92500                  20484826.77140  25203347.66340
   2579543.09800  23253561.80800                   2034940.84740  23253565.25340
 96  9 13  1 47  0.0070000  0  6 14 15 18 22 25 29
  -1715722.77700  22532169.13600                  -1313896.15340  22532173.34340
  28064971.38500  25759212.96400                  21935845.60840  25759217.20640
  -2654221.22000  25807272.69800                  -1687765.68040  25807278.41740
  -5509471.87000  23838040.97900                  -4234007.64340  23838045.65540
  26368794.58800  25227744.65900                  20584743.34540  25227748.06940
   2597846.37300  23257044.87800                   2049203.14140  23257048.17140
 96  9 13  1 47 30.0070000  0  6 14 15 18 22 25 29
  -1685654.56800  22537890.89400                  -1290466.38440  22537894.98340
  28208726.79100  25786567.89400                  22047862.75640  25786573.80040
  -2690035.48200  25800456.71400                  -1715672.84740  25800461.22640
  -5521301.24600  23835790.26900                  -4243225.31040  23835795.16740
  26497082.66300  25252157.09700                  20684708.06440  25252160.08540
   2616244.05400  23260545.85400                   2063539.00440  23260549.01940
 96  9 13  1 48  0.0070000  0  6 14 15 18 22 25 29
  -1655151.27600  22543695.74500                  -1266697.58440  22543699.77640
  28352493.60100  25813926.81500                  22159888.78140  25813932.73340
  -2725898.83900  25793632.81500                  -1743618.29440  25793636.89440
  -5532730.72100  23833615.02600                  -4252131.36640  23833619.55040
  26625425.03400  25276580.31500                  20784715.10340  25276584.07740
   2634748.04600  23264067.15100                   2077957.70440  23264070.15140
 96  9 13  1 48 30.0070000  0  6 14 15 18 22 25 29
  -1624188.95000  22549587.73700                  -1242571.09540  22549591.75740
  28496274.45600  25841286.72200                  22271925.75340  25841292.31140
  -2761795.63000  25786801.92500                  -1771589.79340  25786806.54240
  -5543747.97500  23831518.72900                  -4260716.21040  23831522.83140
  26753830.09500  25301014.76100                  20884770.98840  25301017.76140
   2653363.62200  23267609.44800                   2092463.35140  23267612.72940
 96  9 13  1 49  0.0070000  0  6 14 15 18 22 25 29
  -1592769.56900  22555566.40900                  -1218088.45940  22555570.51140
  28640065.70200  25868650.71400                  22383970.82840  25868654.78040
  -2797711.86300  25779966.99500                  -1799576.43840  25779971.53040
  -5554348.31700  23829501.46400                  -4268976.19440  23829505.81140
  26882281.83400  25325457.62800                  20984863.24440  25325461.20240
   2672097.99300  23271174.45600                   2107061.56640  23271177.66740
 96  9 13  1 49 30.0070000  0  6 14 15 18 22 25 29
  -1560911.56000  22561628.79200                  -1193264.03840  22561632.95240
  28783854.59900  25896012.26100                  22496014.08240  25896018.13240
  -2833650.61400  25773128.76900                  -1827580.62340  25773132.78840
  -5564536.90000  23827562.49500                  -4276915.31640  23827566.87840
  27010758.39300  25349905.93300                  21084974.85140  25349909.74140
   2690933.88500  23274758.81500                   2121738.89340  23274762.16740
 96  9 13  1 50  0.0070000  0  6 14 15 18 22 25 29
  -1528599.99200  22567777.44000                  -1168086.19040  22567781.67140
  28927643.17100  25923373.69000                  22608057.06740  25923378.84740
  -2869598.06900  25766287.20600                  -1855591.57940  25766291.46040
  -5574315.48300  23825701.79200                  -4284534.96140  23825705.92940
  27139264.69900  25374360.73700                  21185109.62140  25374364.66340
   2709857.80600  23278360.03400                   2136484.81040  23278363.23340
 96  9 13  1 50 30.0070000  0  6 14 15 18 22 25 29
  -1495826.24600  22574014.01900                  -1142548.20840  22574018.26140
  29071438.70900  25950737.80800                  22720105.47440  25950743.01140
  -2905544.99400  25759446.93300                  -1883602.14440  25759451.96040
  -5583678.07900  23823920.19800                  -4291830.46640  23823924.40540
  27267806.70800  25398821.24500                  21285272.22940  25398824.65540
   2728867.16400  23281977.41700                   2151297.29840  23281980.56940
 96  9 13  1 51  0.0080000  0  6 14 15 18 22 25 29
  -1462597.76800  22580337.25800                  -1116655.88940  22580341.65240
  29215256.06400  25978105.57000                  22832170.89040  25978111.06640
  -2941481.21400  25752608.37500                  -1911604.35840  25752613.63740
  -5592613.55900  23822219.78900                  -4298793.15640  23822224.47740
  27396413.28500  25423294.18700                  21385485.13840  25423297.03540
   2747978.51600  23285614.04700                   2166189.26940  23285617.36340
 96  9 13  1 51 30.0080000  0  6 14 15 18 22 25 29
  -1428916.60200  22586746.66400                  -1090410.82240  22586750.89440
  29359085.15000  26005474.95300                  22944245.48440  26005480.30940
  -2977404.30700  25745772.69500                  -1939596.35440  25745777.58240
  -5601112.65700  23820602.10900                  -4305415.79740  23820606.52740
  27525101.17100  25447782.90600                  21485761.42140  25447786.05940
   2767182.81700  23289268.39100                   2181153.66840  23289271.75440
 96  9 13  1 52  0.0080000  0  6 14 15 18 22 25 29
  -1394767.69400  22593245.07800                  -1063801.27940  22593249.19140
  29502924.97400  26032846.21900                  23056328.41540  26032851.18740
  -3013335.83300  25738935.19500                  -1967594.90640  25738940.17640
  -5609175.72800  23819067.89100                  -4311698.68340  23819071.92240
  27653875.79500  25472288.20300                  21586105.29740  25472291.82440
   2786492.71000  23292942.85200                   2196200.34240  23292946.15640
 96  9 13  1 52 30.0080000  0  6 14 15 18 22 25 29
  -1360145.64900  22599833.28900                  -1036823.06640  22599837.37940
  29646779.60800  26060220.64800                  23168422.87940  26060227.39840
  -3049268.94800  25732097.23400                  -1995594.70740  25732101.88740
  -5616783.35700  23817620.64100                  -4317626.68340  23817624.93040
  27782750.84800  25496811.77300                  21686527.40440  25496815.87540
   2805938.80900  23296643.58600                   2211353.14940  23296646.64440
 96  9 13  1 53  0.0080000  0  6 14 15 18 22 25 29
  -1325046.09500  22606512.39800                  -1009472.76540  22606516.58240
  29790647.09700  26087597.88300                  23280527.36840  26087602.85240
  -3085204.24200  25725258.30500                  -2023596.17940  25725262.50040
  -5623927.54100  23816261.21900                  -4323193.55440  23816265.94140
  27911735.10500  25521356.98400                  21787034.60640  25521360.61740
   2825533.61900  23300372.31200                   2226621.83940  23300375.47740
 96  9 13  1 53 30.0080000  0  6 14 15 18 22 25 29
  -1289446.02400  22613286.92200                   -981732.45140  22613291.03540
  29934524.66600  26114977.74200                  23392639.71040  26114983.66040
  -3121154.77600  25718417.42200                  -2051609.56040  25718422.02740
  -5630592.99200  23814992.46100                  -4328387.38840  23814996.96140
  28040808.68600  25545918.89800                  21887611.42140  25545922.20340
   2845284.30000  23304130.54700                   2242011.98340  23304133.81640
 96  9 13  1 54  0.0080000  0  6 14 15 18 22 25 29
  -1253337.05700  22620158.25000                   -953595.59840  22620162.37540
  30078418.61600  26142359.38300                  23504764.81140  26142365.01940
  -3157114.34200  25711573.89800                  -2079629.95340  25711578.76240
  -5636749.51900  23813820.74200                  -4333184.66340  23813825.06640
  28169959.69800  25570495.23400                  21988248.56340  25570499.13740
   2865200.61100  23307920.65600                   2257531.19340  23307923.85540
 96  9 13  1 54 30.0080000  0  6 14 15 18 22 25 29
  -1216742.82600  22627121.73400                   -925080.61240  22627125.90640
  30222320.22400  26169744.14100                  23616895.88340  26169750.28140
  -3193072.96200  25704731.40600                  -2107649.61640  25704735.32040
  -5642398.72200  23812745.76600                  -4337586.61740  23812750.50040
  28299175.34700  25595083.83600                  22088936.09040  25595086.88340
   2885255.51000  23311737.00000                   2273158.39240  23311740.09440
 96  9 13  1 55  0.0080000  0  6 14 15 18 22 25 29
  -1179659.59600  22634178.71900                   -896184.59040  22634182.85540
  30366227.53400  26197127.71900                  23729031.38640  26197134.03540
  -3229033.82600  25697888.00000                  -2135671.03840  25697893.42640
  -5647538.00200  23811767.93000                  -4341591.23040  23811772.60540
  28428433.15100  25619680.66400                  22189656.46840  25619684.46140
   2905435.27100  23315576.85200                   2288882.88640  23315579.99240
 96  9 13  1 55 30.0080000  0  6 14 15 18 22 25 29
  -1142065.90800  22641332.58600                   -866890.81140  22641336.76940
  30510151.83300  26224516.70300                  23841180.17240  26224522.16440
  -3264974.76300  25691049.29700                  -2163676.92240  25691053.76240
  -5652140.91400  23810891.91400                  -4345177.89640  23810896.48440
  28557739.79000  25644286.57000                  22290414.87240  25644290.51940
   2925753.23600  23319443.36700                   2304715.06740  23319446.35540
 96  9 13  1 56  0.0080000  0  6 14 15 18 22 25 29
  -1103978.25100  22648580.35200                   -837212.12140  22648584.45340
  30654088.55700  26251907.28900                  23953338.54940  26251912.79740
  -3300885.52100  25684216.18700                  -2191659.31740  25684220.23040
  -5656226.94300  23810114.37500                  -4348361.79340  23810118.95740
  28687106.15500  25668905.05500                  22391219.83340  25668908.13740
   2946198.17400  23323333.94500                   2320646.18940  23323337.21540
 96  9 13  1 56 30.0080000  0  6 14 15 18 22 25 29
  -1065391.79100  22655923.05500                   -807144.75540  22655927.30940
  30798038.61400  26279297.98400                  24065507.42140  26279302.62540
  -3336761.56200  25677388.91400                  -2219614.62140  25677393.75440
  -5659810.90000  23809432.34400                  -4351154.46840  23809437.12540
  28816545.22900  25693536.26600                  22492081.43540  25693540.16840
   2966777.07500  23327250.06200                   2336681.70040  23327253.30940
 96  9 13  1 57  0.0080000  0  6 14 15 18 22 25 29
  -1026305.77000  22663360.92200                   -776688.11540  22663365.04740
  30941988.49800  26306691.94500                  24177676.06640  26306696.26940
  -3372619.79000  25670565.95300                  -2247556.06140  25670570.09040
  -5662894.51400  23808845.46100                  -4353557.26540  23808850.12540
  28946048.39800  25718179.96900                  22592992.99540  25718183.63740
   2987481.39700  23331189.86700                   2352814.93740  23331193.07840
 96  9 13  1 57 30.0080000  0  6 14 15 18 22 25 29
   -986728.17100  22670892.50800                   -745848.43540  22670896.87940
  31085942.60600  26334085.30500                  24289848.06740  26334091.02340
  -3408460.41900  25663744.60900                  -2275483.80640  25663749.35540
  -5665477.88700  23808354.16400                  -4355570.26140  23808358.44140
  29075636.82300  25742839.25000                  22693970.98140  25742843.34040
   3008319.61000  23335155.25000                   2369052.51240  23335158.41440
 96  9 13  1 58  0.0080000  0  6 14 15 18 22 25 29
   -946674.90300  22678514.32000                   -714638.09440  22678518.49240
  31229895.96800  26361478.53900                  24402019.43340  26361484.64440
  -3444285.07300  25656928.04700                  -2303399.07540  25656933.80140
  -5667576.18500  23807954.55500                  -4357205.27840  23807958.84440
  29205301.49900  25767514.35200                  22795008.40540  25767517.18740
   3029284.29800  23339144.75800                   2385388.63440  23339147.96940
 96  9 13  1 58 30.0080000  0  6 14 15 18 22 25 29
   -906118.59700  22686231.54700                   -683035.77740  22686235.78940
  31373855.71900  26388873.28100                  24514195.84340  26388877.92240
  -3480080.27600  25650116.78900                  -2331291.40640  25650122.16840
  -5669163.32000  23807652.48400                  -4358441.98640  23807656.82040
  29335040.13700  25792202.95300                  22896103.43740  25792206.62140
   3050400.19800  23343162.96900                   2401842.58540  23343166.25040
 96  9 13  1 59  0.0080000  0  6 14 15 18 22 25 29
   -865056.02800  22694045.78900                   -651038.97240  22694049.99640
  31517809.87000  26416266.11700                  24626367.86840  26416273.07040
  -3515856.86700  25643308.46100                  -2359169.22840  25643313.34840
  -5670241.18000  23807447.33600                  -4359281.85440  23807451.57840
  29464834.06100  25816901.14100                  22997241.55840  25816904.83240
   3071669.53900  23347210.32800                   2418416.10440  23347213.70340
 96  9 13  1 59 30.0080000  0  6 14 15 18 22 25 29
   -823469.42100  22701959.45300                   -618633.83040  22701963.61340
  31661772.07200  26443661.80500                  24738546.10240  26443667.44140
  -3551580.54900  25636509.94500                  -2387005.85340  25636514.39840
  -5670790.10400  23807342.97700                  -4359709.57040  23807346.80940
  29594697.41600  25841613.73400                  23098433.79640  25841617.08640
   3093119.28500  23351292.11700                   2435130.19540  23351295.38740
 96  9 13  2  0  0.0080000  0  6 14 15 18 22 25 29
   -781352.19600  22709974.08600                   -585815.21740  22709978.22340
  31805724.68800  26471054.59400                  24850716.92340  26471060.47740
  -3587251.76900  25629722.60900                  -2414801.56840  25629727.44940
  -5670805.95600  23807339.84400                  -4359721.90540  23807344.09840
  29724609.66800  25866335.56200                  23199664.11940  25866338.50440
   3114736.69300  23355405.75800                   2451974.93340  23355408.93440
 96  9 13  2  0 30.0080000  0  6 14 15 18 22 25 29
   -738688.05800  22718092.44500                   -552570.43740  22718096.62940
  31949670.21400  26498447.62500                  24962882.22040  26498453.55540
  -3622875.79800  25622942.90600                  -2442560.52140  25622947.01940
  -5670272.83700  23807441.45300                  -4359306.46540  23807445.83640
  29854588.99900  25891069.14800                  23300946.72440  25891072.11340
   3136530.32300  23359553.00000                   2468956.98940  23359556.23440
 96  9 13  2  1  0.0080000  0  6 14 15 18 22 25 29
   -695481.26500  22726314.89800                   -518902.80840  22726319.03540
  32093606.47700  26525838.13300                  25075040.28340  26525843.12540
  -3658450.29200  25616173.35200                  -2470280.88540  25616177.33640
  -5669195.38000  23807646.08600                  -4358466.86940  23807650.60940
  29984644.05700  25915817.76600                  23402288.33340  25915821.97340
   3158487.31200  23363731.19500                   2486066.33340  23363734.50040
 96  9 13  2  1 30.0080000  0  7  4 14 15 18 22 25 29
        23.22410  27333346.91400
   -651727.03600  22734640.92200                   -484808.61040  22734645.08240
  32237545.33900  26553228.88300                  25187200.32740  26553234.50840
  -3693953.92300  25609416.99200                  -2497946.00840  25609421.29340
  -5667565.85900  23807956.64100                  -4357197.08940  23807961.00040
  30114789.37900  25940584.58600                  23503700.28840  25940589.50840
   3180620.49900  23367942.97700                   2503312.98140  23367946.25840
 96  9 13  2  2  0.0080000  0  7  4 14 15 18 22 25 29
       439.32200  27333427.29700
   -607439.73000  22743068.51600                   -450299.02340  22743072.68740
  32381474.20900  26580617.57000                  25299352.63940  26580622.86740
  -3729411.35200  25602669.78900                  -2525575.16140  25602674.52340
  -5665413.65900  23808365.75000                  -4355520.03640  23808370.10940
  30245014.43700  25965364.78900                  23605174.34940  25965368.78540
   3202938.85000  23372190.03100                   2520703.90540  23372193.31240
 96  9 13  2  2 30.0080000  0  7  4 14 15 18 22 25 29
      1355.81800  27333601.83600
   -562626.35600  22751596.24200                   -415379.51740  22751600.34440
  32525398.66300  26608004.75800                  25411501.54040  26608010.76940
  -3764817.19300  25595932.25000                  -2553164.09040  25595936.96140
  -5662748.63500  23808872.97700                  -4353443.37040  23808877.11340
  30375322.31500  25990161.40600                  23706712.97040  25990164.43040
   3225457.55100  23376475.18000                   2538250.94840  23376478.37940
 96  9 13  2  3  0.0080000  0  7  4 14 15 18 22 25 29
      2766.98700  27333869.85900                       703.03750  27333874.76940
   -517304.31200  22760220.74200                   -380063.64540  22760224.99640
  32669303.00900  26635388.98400                  25523634.69440  26635393.76640
  -3800176.71500  25589203.10200                  -2580716.94240  25589208.21140
  -5659584.05100  23809475.11700                  -4350977.44040  23809479.24240
  30505678.71500  26014967.11700                  23808289.38440  26014970.82040
   3248168.43300  23380797.11700                   2555947.73740  23380800.32840
 96  9 13  2  3 30.0080000  0  7  4 14 15 18 22 25 29
      4683.93900  27334234.03900                      2196.84940  27334244.27340
   -471467.03900  22768943.23400                   -344346.29640  22768947.35940
  32813195.25900  26662770.17200                  25635758.45840  26662775.93740
  -3835488.71000  25582483.57000                  -2608232.73340  25582488.58640
  -5655896.23600  23810177.01600                  -4348103.79240  23810181.19940
  30636091.83400  26039784.12500                  23909909.98040  26039789.03540
   3271090.12700  23385158.93700                   2573808.80340  23385161.97340
 96  9 13  2  4  0.0080000  0  7  4 14 15 18 22 25 29
      7104.61800  27334693.85200                      4083.03840  27334694.64840
   -425106.97100  22777765.22700                   -308221.56840  22777769.29340
  32957075.75600  26690150.46900                  25747873.07540  26690155.07440
  -3870763.99300  25575771.20300                  -2635719.93440  25575775.96140
  -5651669.62500  23810981.29700                  -4344810.31240  23810985.22340
  30766574.88300  26064613.95300                  24011585.09640  26064617.31640
   3294212.15800  23389558.93000                   2591825.97540  23389562.07040
 96  9 13  2  4 30.0080000  0  7  4 14 15 18 22 25 29
     10016.99400  27335249.51600                      6352.41840  27335251.57840
   -378209.02800  22786689.71100                   -271677.72340  22786693.64840
  33100943.51700  26717527.62500                  25859977.74640  26717532.31240
  -3905990.01000  25569067.17200                  -2663168.76640  25569072.23440
  -5646872.16300  23811894.03100                  -4341072.01340  23811898.36740
  30897135.23200  26089459.03900                  24113320.42840  26089461.62940
   3317511.64800  23393992.58600                   2609981.42740  23393995.77340
 96  9 13  2  5  0.0080000  0  7  4 14 15 18 22 25 29
     13403.62500  27335892.39800                      8991.35440  27335896.71140
   -330757.32100  22795719.70300                   -234702.37340  22795723.80540
  33244792.55300  26744901.92200                  25972067.82540  26744907.91040
  -3941157.89200  25562376.62500                  -2690572.27740  25562381.28940
  -5641498.43700  23812916.71900                  -4336884.67340  23812920.86740
  31027782.69000  26114320.92200                  24215123.66340  26114323.92240
   3340978.40500  23398458.00000                   2628267.21540  23398461.22340
 96  9 13  2  5 30.0080000  0  7  4 14 15 18 22 25 29
     17268.28600  27336629.41400                     12002.76940  27336633.01240
   -282734.89300  22804857.77300                   -197282.30040  22804861.91040
  33388628.81700  26772272.38300                  26084148.00340  26772277.87940
  -3976263.43000  25555695.32800                  -2717927.21740  25555699.11340
  -5635547.03600  23814049.53100                  -4332247.19440  23814053.63340
  31158539.25100  26139202.71900                  24317011.87740  26139206.82040
   3364612.80000  23402955.63300                   2646683.63240  23402958.91440
 96  9 13  2  6  0.0080000  0  7  4 14 15 18 22 25 29
     21611.84300  27337454.82800                     15387.40340  27337458.81240
   -234140.73800  22814104.97700                   -159416.73640  22814109.19540
  33532444.88500  26799640.00800                  26196212.35440  26799646.69940
  -4011299.71900  25549028.40600                  -2745228.19440  25549032.01640
  -5629029.60900  23815289.84400                  -4327168.66440  23815294.05140
  31289392.00600  26164103.37500                  24418975.06440  26164106.80940
   3388412.31200  23407484.71900                   2665228.70940  23407487.88340
 96  9 13  2  6 30.0080000  0  7  4 14 15 18 22 25 29
     26430.77300  27338371.68700                     19142.40540  27338375.21540
   -184977.36600  22823460.37500                   -121107.61640  22823464.59440
  33676231.79100  26827000.67200                  26308254.06640  26827006.30940
  -4046250.41100  25542376.89800                  -2772462.48240  25542381.23440
  -5621956.59800  23816635.51600                  -4321657.21040  23816639.80540
  31420319.55200  26189017.77300                  24520996.54040  26189021.17240
   3412375.43500  23412044.50000                   2683901.27640  23412047.58240
 96  9 13  2  7  0.0080000  0  7  4 14 15 18 22 25 29
     31748.56400  27339383.67200                     23286.13740  27339386.00440
   -135234.72500  22832926.06200                    -82347.12140  22832930.36340
  33820009.38000  26854362.40600                  26420288.49440  26854367.22340
  -4081111.86700  25535743.06200                  -2799627.22640  25535747.28140
  -5614314.78900  23818089.57800                  -4315702.54040  23818093.92640
  31551323.29500  26213946.89100                  24623077.37940  26213949.87940
   3436527.36000  23416640.43700                   2702720.96340  23416643.55540
 96  9 13  2  7 30.0080000  0  7  4 14 15 18 22 25 29
     37566.54100  27340491.56200                     27819.64640  27340496.42640
    -84935.48500  22842497.89100                    -43152.91440  22842502.25040
  33963768.23300  26881718.79700                  26532308.31140  26881723.89440
  -4115906.24700  25529121.65600                  -2826739.70440  25529126.21540
  -5606096.12400  23819653.66400                  -4309298.36240  23819657.94140
  31682378.09200  26238886.02300                  24725197.99740  26238889.85540
   3460868.04500  23421272.39100                   2721687.73840  23421275.61340
 96  9 13  2  8  0.0080000  0  7  4 14 15 18 22 25 29
     43880.79000  27341693.14800                     32739.88340  27341699.98040
    -34086.79600  22852174.00000                     -3530.55440  22852178.07840
  34107504.14200  26909070.65600                  26644310.27440  26909077.45340
  -4150618.04200  25522517.27300                  -2853787.81540  25522521.44540
  -5597285.58000  23821330.35200                  -4302432.98340  23821334.33640
  31813477.73600  26263833.04700                  24827353.57440  26263837.27740
   3485411.05600  23425942.93700                   2740812.17140  23425946.23040
 96  9 13  2  8 30.0080000  0  7  4 14 15 18 22 25 29
     50688.33900  27342988.98400                     38044.45640  27342995.69940
     17309.79700  22861954.47700                     36518.72940  22861958.63740
  34251216.94400  26936417.67200                  26756294.15340  26936422.23040
  -4185248.43900  25515925.93700                  -2880772.51440  25515930.94140
  -5587878.37200  23823120.32800                  -4295102.66640  23823124.54740
  31944632.68000  26288790.99200                  24929552.21040  26288795.31640
   3510158.14300  23430652.09400                   2760095.61940  23430655.11740
 96  9 13  2  9  0.0080000  0  7  4 14 15 18 22 25 29
     58007.40300  27344380.28900                     43747.63740  27344385.09440
     69249.08000  22871838.16400                     76990.89440  22871842.23040
  34394906.67900  26963763.15600                  26868260.11840  26963767.80940
  -4219810.50000  25509350.13300                  -2907703.96640  25509354.35240
  -5577865.87300  23825025.51600                  -4287300.69740  23825029.73440
  32075843.60200  26313759.82800                  25031794.47840  26313764.50440
   3535126.09900  23435403.14800                   2779551.17940  23435406.38340
 96  9 13  2  9 30.0080000  0  7  4 14 15 18 22 25 29
     65849.26300  27345873.71900                     49858.18640  27345880.16440
    121745.67800  22881828.02300                    117897.33340  22881832.11340
  34538571.63800  26991099.12500                  26980206.76840  26991106.45340
  -4254285.93500  25502788.89800                  -2934567.91240  25502793.34040
  -5567248.59400  23827045.76600                  -4279027.47340  23827050.14840
  32207125.10000  26338742.56200                  25134091.74340  26338746.30140
   3560312.96300  23440195.99200                   2799177.31440  23440199.09840
 96  9 13  2 10  0.0090000  0  7  4 14 15 18 22 25 29
     74206.96200  27347463.51300                     56370.75340  27347467.59140
    174798.93600  22891923.70800                    159237.52840  22891927.84540
  34682204.60500  27018432.87200                  27092128.51940  27018439.06040
  -4288679.87500  25496244.06700                  -2961368.37240  25496247.84140
  -5556051.46300  23829176.56700                  -4270302.41040  23829180.76340
  32338478.08200  26363737.78600                  25236444.72440  26363741.57140
   3585699.29500  23445027.00500                   2818958.87740  23445030.21640
 96  9 13  2 10 30.0090000  0  7  4 14 15 18 22 25 29
     83109.44600  27349157.31700                     63307.72040  27349161.51340
    228424.86900  22902128.23100                    201023.96440  22902132.36840
  34825805.81000  27045759.32500                  27204025.49840  27045765.77040
  -4322988.21000  25489715.58300                  -2988102.10440  25489719.73140
  -5544261.71000  23831419.99700                  -4261115.57140  23831424.33340
  32469902.80300  26388747.60600                  25338853.58540  26388751.07540
   3611282.25200  23449895.18500                   2838893.65940  23449898.45440
 96  9 13  2 11  0.0090000  0  7  4 14 15 18 22 25 29
     92538.62500  27350952.70800                     70655.09640  27350953.68140
    282621.95300  22912441.59100                    243255.45040  22912445.86840
  34969365.30500  27073078.41900                  27315889.91740  27073083.58740
  -4357223.69600  25483201.02000                  -3014779.08440  25483204.97040
  -5531879.87900  23833776.29400                  -4251467.37040  23833780.20840
  32601378.80800  26413766.72400                  25441302.41840  26413769.58340
   3637041.71000  23454797.09100                   2858965.97140  23454800.22040
 96  9 13  2 11 30.0090000  0  7  4 14 15 18 22 25 29
    102479.73100  27352843.84900                     78401.38740  27352848.12640
    337392.61800  22922864.00500                    285933.88640  22922868.11840
  35112884.84700  27100386.79400                  27427723.29040  27100395.97440
  -4391361.73400  25476704.33300                  -3041380.13440  25476709.00940
  -5518901.14900  23836246.20000                  -4241354.04740  23836250.26740
  32732928.79100  26438798.40300                  25543808.89340  26438801.91940
   3662978.77500  23459732.69200                   2879176.67940  23459735.84540
 96  9 13  2 12  0.0090000  0  7  4 14 15 18 22 25 29
    112935.25800  27354832.31700                     86548.62440  27354839.97440
    392730.51900  22933394.50500                    329054.32740  22933398.60640
  35256369.77300  27127693.45000                  27539529.65440  27127699.18140
  -4425392.67100  25470228.16900                  -3067897.72040  25470232.56340
  -5505304.67600  23838833.28600                  -4230759.37440  23838837.44640
  32864564.19900  26463848.76300                  25646381.94140  26463852.78240
   3689124.76200  23464708.15300                   2899550.18640  23464711.21240
 96  9 13  2 12 30.0090000  0  7  4 14 15 18 22 25 29
    123892.52000  27356918.70800                     95086.78940  27356923.94640
    448628.91200  22944031.77800                    372611.50940  22944035.84540
  35399818.84100  27154989.95800                  27651308.04840  27154993.96640
  -4459318.92500  25463772.06000                  -3094333.73040  25463776.00940
  -5491069.52200  23841541.84900                  -4219667.02040  23841546.37240
  32996285.53300  26488914.88800                  25749021.91740  26488919.37640
   3715502.54000  23469727.23100                   2920104.30640  23469730.43140
 96  9 13  2 13  0.0090000  0  7  4 14 15 18 22 25 29
    135329.17300  27359094.91100                    103998.44240  27359101.05240
    505063.97400  22954771.02800                    416586.88040  22954775.27040
  35543218.89900  27182278.13000                  27763048.26540  27182285.64540
  -4493152.98400  25457334.35600                  -3120697.91140  25457338.50540
  -5476221.15500  23844367.64500                  -4208096.85240  23844371.95840
  33128090.47400  26513995.88800                  25851727.07640  26513999.38040
   3742120.03300  23474792.65300                   2940845.21840  23474795.87640
 96  9 13  2 13 30.0090000  0  7  4 14 15 18 22 25 29
    147248.63200  27361362.78600                    113286.33840  27361365.51740
    562027.78500  22965610.74700                    460974.26240  22965615.01340
  35686560.47500  27209554.50500                  27874743.04040  27209562.45440
  -4526903.49900  25450911.99700                  -3146996.97340  25450916.98940
  -5460771.04200  23847307.93500                  -4196057.77640  23847312.32940
  33259978.42800  26539093.31700                  25954496.92540  26539096.21240
   3768988.24200  23479905.76300                   2961781.49440  23479908.99740
 96  9 13  2 14  0.0090000  0  7  4 14 15 18 22 25 29
    159673.36800  27363726.16900                    122967.92540  27363729.07540
    619545.47500  22976556.29400                    505793.23840  22976560.56040
  35829848.94800  27236821.32500                  27986396.23940  27236827.09140
  -4560582.52300  25444501.71600                  -3173240.35240  25444505.50140
  -5444704.50100  23850365.21600                  -4183538.36940  23850369.37640
  33391933.77900  26564203.54400                  26057319.27440  26564206.47440
   3796103.03800  23485065.45000                   2982909.91240  23485068.63840
 96  9 13  2 14 30.0090000  0  7  4 14 15 18 22 25 29
    172612.97900  27366190.64500                    133050.76440  27366193.95040
    677642.15200  22987611.35600                    551063.37140  22987615.62240
  35973083.86700  27264080.18500                  28098007.80940  27264083.60640
  -4594188.27900  25438107.96600                  -3199426.61840  25438111.52840
  -5428032.97100  23853537.52800                  -4170547.54640  23853541.77040
  33523944.07200  26589324.54400                  26160184.48940  26589329.02040
   3823445.20500  23490268.34900                   3004215.50540  23490271.39540
 96  9 13  2 15  0.0090000  0  7  4 14 15 18 22 25 29
    186095.57700  27368755.42700                    143556.72140  27368760.86440
    736355.64300  22998784.21600                    596814.13840  22998788.34140
  36116274.44400  27291328.51300                  28209584.77840  27291335.87640
  -4627702.50100  25431729.81700                  -3225541.57340  25431734.14240
  -5410753.80700  23856825.73100                  -4157083.24440  23856830.12640
  33656017.88900  26614458.34100                  26263099.12440  26614462.10240
   3851011.38500  23495513.90300                   3025695.65240  23495517.06740
 96  9 13  2 15 30.0090000  0  7  4 14 15 18 22 25 29
    200121.04100  27371424.74700                    154485.64640  27371428.68540
    795702.37500  23010077.61400                    643058.34340  23010081.77440
  36259412.14700  27318564.59100                  28321120.58240  27318572.42340
  -4661125.97000  25425369.91900                  -3251585.78940  25425374.13840
  -5392853.31400  23860232.23100                  -4143134.78740  23860236.52040
  33788138.57700  26639598.22400                  26366050.31940  26639602.50140
   3878776.29300  23500797.42700                   3047330.65340  23500800.64940
 96  9 13  2 16  0.0090000  0  7  4 14 15 18 22 25 29
    214677.13600  27374193.88000                    165827.99340  27374196.37640
    855673.71800  23021489.66100                    689789.25940  23021493.86840
  36402486.25000  27345790.64500                  28432606.74240  27345796.32940
  -4694465.37800  25419024.79400                  -3277564.52140  25419029.29440
  -5374352.04800  23863752.95800                  -4128718.19540  23863756.91940
  33920297.57500  26664748.83300                  26469031.32740  26664752.24340
   3906726.23700  23506116.17700                   3069109.83640  23506119.48140
 96  9 13  2 16 30.0090000  0  7  4 14 15 18 22 25 29
    229749.06600  27377062.53600                    177572.40540  27377065.81740
    916252.77000  23033017.34100                    736993.70640  23033021.57140
  36545490.56200  27373005.00500                  28544038.69440  27373009.06040
  -4727712.93100  25412698.69200                  -3303471.68140  25412702.74740
  -5355264.32400  23867384.90300                  -4113844.63040  23867388.85240
  34052511.79500  26689908.66900                  26572055.42040  26689911.30640
   3934879.19500  23511473.48900                   3091047.20840  23511476.60640
 96  9 13  2 17  0.0090000  0  7  4 14 15 18 22 25 29
    245343.91500  27380028.91900                    189724.22640  27380033.53640
    977428.56200  23044658.95800                    784663.14740  23044663.20040
  36688437.00400  27400205.96600                  28655425.37840  27400214.65340
  -4760858.88300  25406391.05200                  -3329299.65740  25406395.66940
  -5335570.14500  23871132.81700                  -4098498.49840  23871136.86040
  34184798.60600  26715081.22400                  26675136.04140  26715084.20040
   3963258.17900  23516874.10600                   3113160.70840  23516877.15340
 96  9 13  2 17 30.0090000  0  8  4 14 15 18 19 22 25 29
    261451.49100  27383095.09900                    202275.61240  27383100.93540
   1039165.97900  23056407.33300                    832770.22340  23056411.42340
  36831318.72200  27427396.17700                  28766761.80840  27427405.22740
  -4793898.13800  25400103.67700                  -3355044.51740  25400108.32940
    -18235.47210  27331495.50500
  -5315270.02600  23874995.74700                  -4082680.20640  23874999.73140
  34317141.38200  26740263.90300                  26778260.30940  26740267.87640
   3991861.37000  23522316.91100                   3135448.91440  23522319.91140
 96  9 13  2 18  0.0090000  0  8  4 14 15 18 19 22 25 29
    278075.73900  27386258.97400                    215229.54940  27386263.54440
   1101447.98500  23068259.18500                    881301.65340  23068263.20440
  36974136.43500  27454573.70000                  28878048.29040  27454580.95840
  -4826819.24700  25393839.27800                  -3380697.30140  25393844.13040
    -67852.52700  27322053.85600
  -5294362.26700  23878974.51300                  -4066388.42040  23878978.61440
  34449544.98600  26765461.31700                  26881431.95340  26765464.00140
   4020706.79900  23527805.91100                   3157925.88040  23527808.93540
 96  9 13  2 18 30.0090000  0  8  4 14 15 18 19 22 25 29
    295221.21800  27389520.70800                    228589.67840  27389527.45840
   1164259.02700  23080211.85600                    930245.31940  23080215.95840
  37116880.98800  27481738.21600                  28989277.68340  27481744.09940
  -4859622.71500  25387597.66100                  -3406258.42240  25387601.71640
   -117296.31700  27312644.35600
  -5272826.83300  23883072.33300                  -4049607.54640  23883076.35240
  34581995.86000  26790664.91900                  26984640.41240  26790667.94240
   4049773.73300  23533337.33300                   3180575.44840  23533340.36840
 96  9 13  2 19  0.0090000  0  8  4 14 15 18 19 22 25 29
    312895.95300  27392885.48100                    242362.26040  27392891.21240
   1227606.03200  23092266.34900                    979606.61940  23092270.47440
  37259552.10300  27508887.66100                  29100449.81240  27508893.47440
  -4892314.21600  25381376.37200                  -3431732.29240  25381380.61440
   -166581.75300  27303265.33300                    -30713.64750  27303270.66540
  -5250652.15200  23887291.84900                  -4032328.55740  23887295.86840
  34714475.36000  26815875.72400                  27087871.21640  26815880.22440
   4079052.94100  23538908.95000                   3203390.42140  23538912.04440
 96  9 13  2 19 30.0090000  0  8  4 14 15 18 19 22 25 29
    331102.49300  27396348.84100                    256549.16540  27396352.23940
   1291505.39400  23104426.04400                   1029398.32340  23104430.13440
  37402149.08100  27536019.97400                  29211564.48740  27536022.92740
  -4924889.50700  25375177.08300                  -3457115.59240  25375181.75940
   -215716.78000  27293915.31000                    -69000.55140  27293922.80240
  -5227838.11600  23891633.34900                  -4014551.37240  23891637.46240
  34846997.73900  26841093.56000                  27191135.38240  26841097.41540
   4108547.90100  23544521.56700                   3226373.51540  23544524.68540
 96  9 13  2 20  0.0090000  0  8  4 14 15 18 19 22 25 29
    349848.64600  27399917.01300                    271156.53440  27399921.65340
   1355979.83700  23116694.95800                   1079638.14640  23116699.00140
  37544672.83300  27563142.21600                  29322621.73640  27563147.54840
  -4957361.59900  25368997.88000                  -3482418.48940  25369001.86440
   -264692.77900  27284595.25500                   -107163.58340  27284602.19640
  -5204386.70300  23896095.81000                  -3996277.52440  23896100.04040
  34979586.06800  26866324.32500                  27294451.00740  26866326.99740
   4138268.29200  23550177.16100                   3249532.26640  23550180.40740
 96  9 13  2 20 30.0090000  0  8  4 14 15 18 19 22 25 29
    369126.36000  27403583.49700                    286178.10940  27403589.91940
   1421035.53700  23129074.59900                   1130330.89540  23129078.74740
  37687116.74100  27590249.76300                  29433616.99840  27590255.99740
  -4989746.41400  25362835.06000                  -3507653.39240  25362839.29040
   -313517.43500  27275304.54400                   -145208.77940  27275312.30640
  -5180315.47700  23900676.60600                  -3977520.70640  23900680.60240
  35112237.16900  26891567.60600                  27397815.48740  26891571.00540
   4168211.78400  23555875.11400                   3272864.86140  23555878.29040
 96  9 13  2 21  0.0090000  0  8  4 14 15 18 19 22 25 29
    388919.36100  27407351.27800                    301601.24340  27407356.04840
   1486669.07400  23141564.23100                   1181473.90840  23141568.36840
  37829470.91500  27617337.92700                  29544542.15640  27617344.95040
  -5022049.54400  25356688.29400                  -3532824.64440  25356692.92340
   -362196.33700  27266041.24700                   -183140.28040  27266046.21640
  -5155650.16100  23905370.21600                  -3958300.96040  23905374.18840
  35244944.58900  26916819.13000                  27501223.87140  26916821.67340
   4198388.51500  23561617.70800                   3296379.20240  23561620.81340
 96  9 13  2 21 30.0090000  0  7  4 14 18 19 22 25 29
    409250.10100  27411220.30200                    317443.42040  27411225.61040
   1552882.92000  23154164.34100                   1233069.10940  23154168.47740
  -5054241.88700  25350561.99700                  -3557909.56940  25350566.29840
   -410703.92000  27256809.81000                   -220938.40440  27256815.55240
  -5130381.18000  23910178.93500                  -3938610.82840  23910182.98940
  35377715.42200  26942085.34100                  27604681.65540  26942088.30640
   4228806.65100  23567406.23100                   3320081.64840  23567409.38440
 96  9 13  2 22  0.0090000  0  7  4 14 18 19 22 25 29
    430118.09400  27415191.48100                    333704.17040  27415195.63040
   1619666.63400  23166872.96600                   1285108.36140  23166877.07940
  -5086326.76800  25344456.63800                  -3582910.74140  25344461.14940
   -459033.98600  27247613.66900                   -258598.07240  27247621.07940
  -5104515.56700  23915100.56000                  -3918455.78740  23915104.48540
  35510519.99600  26967355.64500                  27708165.75440  26967359.50140
   4259461.86300  23573239.48900                   3343968.83140  23573242.67740
 96  9 13  2 22 30.0090000  0  7  4 14 18 19 22 25 29
    451521.93300  27419265.25500                    350382.49740  27419268.60640
   1687022.62900  23179690.12200                   1337593.54840  23179694.36440
  -5118281.55800  25338376.23100                  -3607810.55140  25338380.95440
   -507171.19400  27238453.85600                   -296107.51140  27238459.55240
  -5078028.47700  23920141.10600                  -3897816.47840  23920145.23140
  35643350.73100  26992633.98900                  27811670.21840  26992637.51740
   4290361.53700  23579119.38800                   3368046.50440  23579122.77440
 96  9 13  2 23  0.0090000  0  7  4 14 18 19 22 25 29
    473460.76800  27423439.18500                    367477.72040  27423444.03640
   1754944.53000  23192615.45800                   1390519.70140  23192619.57140
  -5150104.47100  25332319.66100                  -3632607.61240  25332324.23140
   -555109.23300  27229329.50500                   -333461.79740  27229336.13840
  -5050900.87400  23925303.06700                  -3876678.07040  23925306.97040
  35776190.28200  27017912.50500                  27915181.58740  27017916.74740
   4321498.39800  23585044.76300                   3392308.99840  23585047.85640
 96  9 13  2 23 30.0090000  0  7  4 14 18 19 22 25 29
    495914.87600  27427712.15300                    384974.42840  27427718.76340
   1823430.25600  23205647.91100                   1443885.19940  23205652.03640
  -5181820.70400  25326284.13800                  -3657321.54140  25326288.98940
   -602865.19000  27220243.50500                   -370674.15640  27220249.50540
  -5023141.44800  23930585.73100                  -3855047.33240  23930589.84540
  35909030.49800  27043190.95800                  28018693.44340  27043194.62640
   4352851.08200  23591011.02000                   3416739.66440  23591014.12640
 96  9 13  2 24  0.0090000  0  7  4 14 18 19 22 25 29
    518849.69800  27432075.73900                    402845.71640  27432079.66540
   1892474.47200  23218786.73100                   1497685.87940  23218790.86840
  -5213457.80200  25320264.42700                  -3681973.80540  25320268.73940
   -650453.76900  27211187.48100                   -407756.06740  27211194.90340
  -4994753.79100  23935987.81700                  -3832927.06040  23935991.74340
  36041869.36800  27068469.53600                  28122204.24540  27068472.02040
   4384424.08900  23597019.09900                   3441342.01240  23597022.15740
 96  9 13  2 24 30.0090000  0  7  4 14 18 19 22 25 29
    542272.74000  27436533.23900                    421097.54540  27436540.06040
   1962082.62200  23232032.54400                   1551925.99340  23232036.81040
  -5245014.97400  25314259.16100                  -3706563.77740  25314262.87640
   -697881.62200  27202162.06700                   -444712.82640  27202170.40340
  -4965727.11200  23941511.37200                  -3810308.84740  23941515.42740
  36174726.96900  27093750.94200                  28225729.67840  27093754.54040
   4416211.53600  23603068.00500                   3466111.46140  23603071.14540
 96  9 13  2 25  0.0090000  0  7  4 14 18 19 22 25 29
    566183.43700  27441083.48900                    439729.18440  27441088.47040
   2032245.80100  23245384.04400                   1606598.59240  23245388.35640
  -5276502.26000  25308267.56000                  -3731099.30540  25308271.95440
   -745169.29600  27193163.44200                   -481560.24040  27193168.65740
  -4936089.89300  23947150.97400                  -3787214.89340  23947155.00540
  36307602.72900  27119036.95000                  28329269.23640  27119043.84540
   4448196.48200  23609154.49700                   3491034.79940  23609157.72040
 96  9 13  2 25 30.0090000  0  7  4 14 18 19 22 25 29
    590584.05300  27445726.13800                    458742.63640  27445729.85240
   2102961.01800  23258840.64500                   1661701.34940  23258844.93540
  -5307924.88000  25302288.14500                  -3755584.43040  25302293.11440
   -792330.46900  27184188.81000                   -518309.14540  27184195.07940
  -4905859.03000  23952903.59900                  -3763658.36140  23952907.61840
  36440508.74700  27144327.70000                  28432832.41240  27144330.04440
   4480375.96700  23615277.98900                   3516109.72740  23615281.17740
 96  9 13  2 26  0.0090000  0  7  4 14 18 19 22 25 29
    615487.65600  27450466.18500                    478148.10340  27450470.20440
   2174212.16300  23272399.39500                   1717221.72040  23272403.69640
  -5339275.53800  25296321.83300                  -3780013.49140  25296325.72440
   -839367.17700  27175237.21600                   -554961.04340  27175243.52040
  -4875029.96900  23958770.52000                  -3739635.70040  23958774.48140
  36573441.06700  27169624.34900                  28536416.02540  27169630.23140
   4512739.83200  23621436.49700                   3541328.33340  23621439.72040
 96  9 13  2 26 30.0090000  0  7  4 14 18 19 22 25 29
    640900.53100  27455301.56000                    497950.33440  27455306.09540
   2245990.35300  23286058.42700                   1773152.77240  23286062.82140
  -5370559.15400  25290368.57500                  -3804390.31540  25290372.78240
   -886298.24000  27166307.31000                   -591530.64040  27166313.48540
  -4843614.32200  23964748.23100                  -3715155.96240  23964752.36840
  36706391.11300  27194924.57500                  28640013.48540  27194929.09940
   4545269.70100  23627627.02800                   3566676.28640  23627630.12240
 96  9 13  2 27  0.0090000  0  7  4 14 18 19 22 25 29
    666804.47900  27460232.22400                    518135.24640  27460236.11440
   2318294.10900  23299817.15300                   1829493.35740  23299821.43140
  -5401786.25600  25284426.45800                  -3828723.10340  25284430.44240
   -933122.91500  27157398.02000                   -628017.31340  27157404.54840
  -4811609.25600  23970838.67700                  -3690216.93440  23970842.79040
  36839339.17600  27220223.25500                  28743609.40940  27220226.85240
   4577969.41900  23633849.73100                   3592156.59440  23633852.68540
 96  9 13  2 27 30.0090000  0  7  4 14 18 19 22 25 29
    693197.81000  27465254.58300                    538701.47140  27465257.92340
   2391130.84300  23313677.79400                   1886249.25140  23313681.97740
  -5432962.98300  25278493.98900                  -3853016.63540  25278498.20840
   -979838.68600  27148505.45000                   -664419.10940  27148510.65340
  -4779001.18800  23977043.92700                  -3664808.04040  23977048.25140
  36972282.66000  27245521.48900                  28847201.73940  27245524.70040
   4610848.16200  23640106.08300                   3617776.39740  23640109.15340
 96  9 13  2 28  0.0090000  0  7  4 14 18 19 22 25 29
    720071.11000  27470368.22400                    559641.68540  27470371.68140
   2464507.23000  23327640.81700                   1943425.65240  23327645.06040
  -5464080.01200  25272572.63000                  -3877263.64840  25272576.42740
  -1026442.22200  27139638.38800                   -700733.53940  27139642.24340
  -4745791.74600  23983363.29400                  -3638930.54540  23983367.58340
  37105203.37700  27270814.43500                  28950776.35140  27270815.13840
   4643920.86300  23646399.53600                   3643547.34140  23646402.47740
 96  9 13  2 28 30.0090000  0  7  4 14 18 19 22 25 29
    747410.50700  27475570.78600                    580945.11240  27475574.51340
   2538429.63900  23341707.68500                   2001027.52440  23341711.95040
  -5495139.06000  25266662.24700                  -3901465.47040  25266666.10240
  -1072922.47900  27130792.71600                   -736951.76540  27130798.01340
  -4711991.24200  23989795.44200                  -3612592.47640  23989799.28640
  37238078.45700  27296101.60600                  29054315.35440  27296104.88840
   4677205.55200  23652733.41100                   3669483.46940  23652736.52840
 96  9 13  2 29  0.0100000  0  7  4 14 18 19 22 25 29
    775199.38100  27480857.97100                    602598.79640  27480863.87740
   2612886.10800  23355876.40800                   2059045.54540  23355880.53340
  -5526137.78600  25260762.72100                  -3925620.29140  25260766.42440
  -1119270.51100  27121974.14300                   -773067.03940  27121978.71340
  -4677625.36900  23996335.22800                  -3585813.86140  23996339.24840
  37370894.96900  27321374.83000                  29157808.76940  27321378.06440
   4710700.72300  23659107.40000                   3695583.61340  23659110.50640
 96  9 13  2 29 30.0100000  0  7  4 14 18 19 22 25 29
    803464.58100  27486236.60300                    624623.63340  27486242.01840
   2687875.77200  23370146.27500                   2117479.04640  23370150.58840
  -5557052.72900  25254880.20500                  -3949709.83040  25254883.88540
  -1165474.65500  27113181.76800                   -809070.16440  27113183.65440
  -4642692.91600  24002982.48600                  -3558593.74940  24002986.57640
  37503653.91100  27346637.65800                  29261257.33340  27346640.23640
   4744423.38300  23665524.37700                   3721861.01640  23665527.56440
 96  9 13  2 30  0.0100000  0  7  4 14 18 19 22 25 29
    832222.91400  27491708.67400                    647032.73040  27491712.34240
   2763400.80200  23384518.49400                   2176329.71440  23384522.65440
  -5587864.92100  25249016.61100                  -3973719.29640  25249020.46740
  -1211511.70700  27104421.86900                   -844943.09440  27104428.79940
  -4607173.04800  24009741.79100                  -3530915.92240  24009745.70540
  37636361.07200  27371891.29100                  29364665.47740  27371894.93540
   4778397.55900  23671989.65800                   3748334.40740  23671992.85740
 96  9 13  2 30 30.0100000  0  7  4 14 18 19 22 25 29
    861452.05900  27497270.58800                    669808.74240  27497275.04140
   2839419.28500  23398984.21300                   2235564.89240  23398988.35040
  -5618606.06400  25243166.68900                  -3997673.40940  25243170.65040
  -1257405.23700  27095687.73600                   -880704.24140  27095693.49040
  -4571082.01900  24016609.55700                  -3502793.02640  24016613.74040
  37769006.12100  27397133.18200                  29468025.29840  27397135.86540
   4812587.01300  23678495.51000                   3774975.54840  23678498.63940
 96  9 13  2 31  0.0100000  0  7  4 14 18 19 22 25 29
    891168.45700  27502925.73600                    692964.33940  27502933.11140
   2915939.48200  23413545.56400                   2295191.01640  23413549.76040
  -5649264.00300  25237332.82200                  -4021562.68940  25237336.52540
  -1303157.56300  27086981.22800                   -916355.30940  27086986.87740
  -4534394.20200  24023591.22800                  -3474205.10040  24023594.96740
  37901617.38600  27422367.15800                  29571358.80940  27422370.32240
   4846991.49400  23685042.61100                   3801784.24440  23685045.65840
 96  9 13  2 31 30.0100000  0  7  4 14 18 19 22 25 29
    921384.30600  27508673.76800                    716509.21340  27508679.25240
   2992970.35000  23428204.05700                   2355215.06440  23428208.27540
  -5679843.76300  25231514.13500                  -4045391.05740  25231518.04940
  -1348767.75400  27078300.52500                   -951895.68340  27078306.81840
  -4497083.68600  24030690.79100                  -3445131.95740  24030694.49440
  38034204.80900  27447597.37700                  29674673.66440  27447604.62340
   4881607.96300  23691629.96300                   3828758.11940  23691632.93940
 96  9 13  2 32  0.0100000  0  7  4 14 18 19 22 25 29
    952070.84800  27514516.18900                    740420.74740  27514521.60340
   3070493.16700  23442956.22800                   2415622.44740  23442960.38940
  -5710345.82600  25225708.94700                  -4069158.87740  25225712.74440
  -1394237.87800  27069649.05700                   -987326.85240  27069655.98640
  -4459172.37200  24037905.13500                  -3415590.65340  24037908.94340
  38166762.20500  27472823.18900                  29777965.19240  27472826.21340
   4916411.30400  23698252.89300                   3855877.61540  23698255.93940
 96  9 13  2 32 30.0100000  0  7  4 14 18 19 22 25 29
    983219.63500  27520443.22100                    764692.54940  27520447.85040
   3148510.84800  23457802.23600                   2476415.43940  23457806.36140
  -5740770.15600  25219919.69700                  -4092866.11940  25219923.57640
  -1439564.62500  27061023.43200                  -1022646.28140  27061030.20540
  -4420677.00800  24045230.50200                  -3385594.25040  24045234.36940
  38299303.15000  27498044.33000                  29881243.87640  27498048.47840
   4951383.49800  23704907.76000                   3883128.68340  23704910.77140
 96  9 13  2 33  0.0100000  0  7  4 14 18 19 22 25 29
   1014827.21400  27526457.42400                    789321.87240  27526463.00240
   3227022.53400  23472742.43900                   2537593.37040  23472746.67040
  -5771116.70100  25214144.61900                  -4116512.76140  25214148.87340
  -1484748.69400  27052424.92400                  -1057854.55240  27052431.17040
  -4381610.26400  24052664.64300                  -3355152.62040  24052668.68540
  38431813.85700  27523259.73600                  29984499.03440  27523262.25640
   4986514.21200  23711592.77500                   3910503.27140  23711595.88140
 96  9 13  2 33 30.0100000  0  7  4 14 18 19 22 25 29
   1046913.81200  27532563.44700                    814324.43840  27532568.15840
   3306048.97700  23487780.97800                   2599172.41140  23487785.23240
  -5801361.98300  25208388.88500                  -4140080.48240  25208393.50240
  -1529764.19600  27043856.76800                  -1092931.51440  27043864.30740
  -4341968.84100  24060208.25200                  -3324263.17740  24060212.21340
  38564307.88500  27548474.17400                  30087741.12040  27548479.31840
   5021830.35700  23718313.15000                   3938022.35340  23718316.16240
 96  9 13  2 34  0.0100000  0  7  4 14 18 19 22 25 29
   1079484.51500  27538761.27500                    839704.18040  27538766.38540
   3385598.10800  23502918.44700                   2661158.74040  23502922.70140
  -5831497.28800  25202654.65800                  -4163562.51340  25202658.86540
  -1574611.77000  27035324.24400                  -1127877.62640  27035329.77540
  -4301755.42000  24067860.76800                  -3292928.02940  24067864.45940
  38696786.42900  27573683.18900                  30190971.18440  27573685.61540
   5057335.60800  23725069.69700                   3965688.79440  23725072.75640
 96  9 13  2 34 30.0100000  0  7  4 14 18 19 22 25 29
   1112556.96000  27545054.56400                    865474.92140  27545062.17440
   3465691.54900  23518159.84600                   2723569.21440  23518164.01840
  -5861532.77300  25196939.69700                  -4186966.76340  25196943.65840
  -1619297.25700  27026821.13500                  -1162697.42140  27026827.67440
  -4260948.74500  24075625.91600                  -3261130.60240  24075629.98240
  38829259.75400  27598891.36100                  30294197.16040  27598895.39340
   5093046.22500  23731865.34600                   3993515.25340  23731868.33440
 96  9 13  2 35  0.0100000  0  7  4 14 18 19 22 25 29
   1146137.69700  27551444.08000                    891641.76040  27551449.64640
   3546323.49400  23533503.70500                   2786399.29340  23533507.94740
  -5891472.16900  25191242.08800                  -4210296.15840  25191245.90840
  -1663847.27500  27018343.52500                  -1197411.68240  27018351.55740
  -4219542.91100  24083505.32200                  -3228866.30140  24083509.29540
  38961714.27400  27624097.67400                  30397408.54040  27624102.91240
   5128962.11900  23738699.86900                   4021501.67140  23738702.82240
 96  9 13  2 35 30.0100000  0  7  4 14 18 19 22 25 29
   1180230.67600  27557932.70500                    918207.67140  27557936.63140
   3627494.28700  23548950.00200                   2849649.26140  23548954.19740
  -5921312.68700  25185563.47100                  -4233548.49640  25185567.03340
  -1708259.66300  27009892.51000                  -1232018.67140  27009900.10740
  -4177520.00100  24091501.86100                  -3196121.15540  24091505.77540
  39094159.72000  27649300.63500                  30500612.74040  27649304.83040
   5165090.11800  23745574.66600                   4049653.36840  23745577.74840
 96  9 13  2 36  0.0100000  0  7  4 14 18 19 22 25 29
   1214833.49000  27564517.94700                    945170.93440  27564523.09240
   3709182.34000  23564494.82200                   2913302.28340  23564498.87740
  -5951070.39300  25179901.01800                  -4256736.29240  25179904.65040
  -1752543.31200  27001466.42400                  -1266525.38740  27001473.60040
  -4134861.97900  24099619.31400                  -3162881.12640  24099623.33440
  39226597.73900  27674503.52500                  30603811.24740  27674505.93940
   5201429.42500  23752489.77500                   4077969.72040  23752492.83440
 96  9 13  2 36 30.0100000  0  7  4 14 18 19 22 25 29
   1249923.51000  27571194.99400                    972513.80040  27571200.26840
   3791377.06300  23580135.76800                   2977350.12240  23580139.98640
  -5980756.17400  25174252.07200                  -4279868.04740  25174255.93940
  -1796702.39300  26993062.04900                  -1300934.99040  26993068.26040
  -4091570.23100  24107857.44700                  -3129147.27640  24107861.56040
  39359015.20900  27699701.33800                  30706993.70440  27699706.62340
   5237976.34800  23759444.51000                   4106447.85340  23759447.51040
 96  9 13  2 37  0.0100000  0  6  4 14 18 19 22 29
   1285481.73200  27577961.39300                   1000221.50040  27577965.72840
   3874053.95800  23595868.63500                   3041773.67140  23595872.98240
  -6010370.60400  25168616.34600                  -4302944.20340  25168620.42440
  -1840726.18600  26984683.40000                  -1335239.17940  26984690.23240
  -4047656.84200  24116213.91600                  -3094929.04040  24116217.91240
   5274724.01600  23766437.38500                   4135082.40040  23766440.33840
 96  9 13  2 37 30.0100000  0  6  4 14 18 19 22 29
   1321508.30700  27584817.16600                   1028294.11640  27584821.57240
   3957235.98700  23611697.54100                   3106590.84140  23611701.78340
  -6039903.43000  25162996.35300                  -4325956.77540  25162999.93940
  -1884583.89000  26976338.26000                  -1369413.96140  26976343.94340
  -4003118.64800  24124689.04900                  -3060223.93540  24124693.18540
   5311693.96900  23773472.54100                   4163890.16540  23773475.63540
 96  9 13  2 38  0.0100000  0  6  4 14 18 19 22 29
   1357982.22300  27591757.76800                   1056715.33540  27591761.17840
   4040933.27900  23627624.72100                   3171809.51140  23627629.08040
  -6069363.15400  25157391.06400                  -4348912.38240  25157394.89640
  -1928291.86400  26968021.33000                  -1403472.09340  26968028.13940
  -3957991.10000  24133276.80700                  -3025059.59940  24133280.93240
   5348883.26300  23780549.29900                   4192868.84040  23780552.41640
 96  9 13  2 38 30.0100000  0  6  4 14 18 19 22 29
   1394885.32600  27598780.36100                   1085470.98940  27598785.47140
   4125160.19500  23643652.71300                   3237440.85740  23643656.97840
  -6098735.44300  25151801.19700                  -4371799.85040  25151804.80740
  -1971843.37400  26959734.51800                  -1437408.25240  26959740.20140
  -3912296.08400  24141972.17400                  -2989453.07840  24141976.28740
   5386289.23700  23787667.46300                   4222016.36340  23787670.49840
 96  9 13  2 39  0.0100000  0  6  4 14 18 19 22 29
   1432230.17300  27605886.68200                   1114570.87240  27605894.05740
   4209901.53200  23659778.33800                   3303473.06640  23659782.58040
  -6128019.46200  25146228.25200                  -4394618.54140  25146232.62340
  -2015246.70200  26951474.36900                  -1471228.97940  26951481.88540
  -3866045.39500  24150773.52500                  -2953413.56140  24150777.56840
   5423916.54000  23794827.49400                   4251336.34740  23794830.61140
 96  9 13  2 39 30.0100000  0  6  4 14 18 19 22 29
   1470015.39900  27613076.83000
   4295161.19400  23676002.97100                   3369909.15740  23676007.07240
  -6157229.17400  25140670.12700                  -4417379.33540  25140674.15840
  -2058530.50900  26943237.94700                  -1504956.56840  26943243.83040
  -3819249.43200  24159678.54900                  -2916949.15640  24159682.47540
   5461747.47900  23802026.65800                   4280815.00840  23802029.62340
 96  9 13  2 40  0.0100000  0  6  4 14 18 19 22 29
   1508239.30400  27620349.80700
   4380911.28600  23692320.51800                   3436727.40640  23692324.51440
  -6186374.29800  25135123.41600                  -4440089.80140  25135127.58840
  -2101715.08400  26935019.02500                  -1538606.86340  26935023.45540
  -3771903.55600  24168688.15000                  -2880056.24840  24168691.95940
   5499769.81400  23809261.95500                   4310442.80940  23809265.07240
 96  9 13  2 40 30.0100000  0  6  4 14 18 19 22 29
   1546934.21600  27627712.83800
   4467137.88100  23708728.90000                   3503916.95340  23708733.01440
  -6215438.45700  25129592.86100                  -4462737.16340  25129596.60040
  -2144774.11000  26926824.15800                  -1572159.29340  26926829.46740
  -3723975.43800  24177808.63500                  -2842709.64340  24177812.37340
   5537988.93100  23816534.78300                   4340223.94740  23816538.00640
 96  9 13  2 41  0.0100000  0  6  4 14 18 19 22 29
   1586115.90400  27635170.15800                     28506.81150  27635174.20140
   4553831.14800  23725226.04900                   3571470.14740  23725230.43240
  -6244430.98600  25124075.79900                  -4485328.73240  25124080.15840
  -2187721.75500  26918652.73600                  -1605624.92140  26918658.54940
  -3675465.77400  24187039.48600                  -2804909.88740  24187043.35340
   5576385.02100  23823841.45500                   4370142.99240  23823844.65440
 96  9 13  2 41 30.0100000  0  6  4 14 18 19 22 29
   1625774.48400  27642717.49400                     59409.57240  27642722.42840
   4641002.36100  23741814.13500                   3639395.76440  23741818.45940
  -6273354.40400  25118572.07200                  -4507866.43540  25118576.39640
  -2230563.37800  26910500.76000                  -1639007.95040  26910505.67040
  -3626369.27900  24196382.01800                  -2766652.86040  24196386.10740
   5614944.88200  23831179.17400                   4400189.64940  23831182.43240
 96  9 13  2 42  0.0100000  0  6  4 14 18 19 22 29
   1665917.84500  27650355.93900                     90690.11240  27650359.46740
   4728647.08200  23758492.35300                   3707690.35240  23758496.65440
  -6302186.32100  25113085.16600                  -4530332.83640  25113089.31440
  -2273273.65500  26902373.51800                  -1672288.59540  26902379.44740
  -3576675.74700  24205838.52500                  -2727930.60840  24205842.34640
   5653692.51800  23838552.67400                   4430382.62340  23838555.69740
 96  9 13  2 42 30.0100000  0  6  4 14 18 19 22 29
   1706538.81200  27658086.23600                    122342.78840  27658090.36140
   4816772.26100  23775262.04900                   3776359.31840  23775266.32640
  -6330931.32100  25107615.73600                  -4552731.50840  25107619.79140
  -2315851.84700  26894271.33000                  -1705466.39540  26894276.61540
  -3526405.98300  24215404.58000                  -2688759.34640  24215408.56440
   5692620.95300  23845960.58800                   4460716.47540  23845963.50640
 96  9 13  2 43  0.0100000  0  6  4 14 18 19 22 29
   1747616.78900  27665903.22100                    154351.61340  27665907.86140
   4905383.50800  23792124.23600                   3845407.04240  23792128.43240
  -6359607.54300  25102158.49400                  -4575076.60440  25102162.30340
  -2358316.55400  26886189.49400                  -1738555.72540  26886194.17040
  -3475579.05900  24225076.65800                  -2649153.93540  24225080.35040
   5731729.60700  23853402.77500                   4491190.76240  23853405.40040
 96  9 13  2 43 30.0100000  0  6  4 14 18 19 22 29
   1789134.30400  27673803.82200                    186702.89240  27673808.48640
   4994471.60400  23809077.08800                   3914826.32940  23809081.34240
  -6388223.19600  25096713.02500                  -4597374.48840  25096717.30340
  -2400658.16300  26878132.00200                  -1771549.12040  26878138.06040
  -3424206.09500  24234852.13500                  -2609123.03540  24234856.43540
   5771036.93800  23860882.50200                   4521819.86040  23860885.39640
 96  9 13  2 44  0.0100000  0  6  4 14 18 19 22 29
   1831085.03400  27681786.47100                    219391.75940  27681789.06040
   5084025.86900  23826118.76800                   3984608.87840  23826123.01040
  -6416784.00300  25091278.11900                  -4619629.65940  25091281.82240
  -2442870.24200  26870099.76000                  -1804441.57240  26870105.76040
  -3372300.93700  24244729.46300                  -2568677.44340  24244733.61140
   5810545.00800  23868400.43900                   4552605.37640  23868403.38140
 96  9 13  2 44 30.0100000  0  6  4 14 18 19 22 29
   1873483.46500  27689854.54100                    252429.50540  27689859.25240
   5174058.60900  23843251.35300                   4054764.25840  23843255.59640
  -6445285.44500  25085854.29100                  -4641838.53840  25085858.07640
  -2484950.78900  26862091.40000                  -1837231.52540  26862096.82640
  -3319855.22600  24254709.72100                  -2527810.63740  24254713.74040
   5850258.46700  23875957.68900                   4583550.93940  23875960.83040
 96  9 13  2 45  0.0100000  0  6  4 14 18 19 22 29
   1916312.78700  27698004.73600                    285802.97440  27698007.68940
   5264555.59400  23860472.36900                   4125281.39040  23860476.55340
  -6473725.77400  25080442.31400                  -4663999.82340  25080446.38140
  -2526892.36500  26854111.37700                  -1869913.23240  26854117.49440
  -3266867.55100  24264793.13500                  -2486521.52340  24264796.77940
   5890178.78600  23883554.41600                   4614657.68640  23883557.47540
 96  9 13  2 45 30.0100000  0  6  4 14 18 19 22 29
   1959587.64200  27706239.60300                    319523.65740  27706245.19340
   5355536.96700  23877785.66600                   4196175.96040  23877789.86140
  -6502069.10000  25075048.89300                  -4686085.50340  25075052.67840
  -2568675.63200  26846159.60300                  -1902471.54840  26846166.03740
  -3213310.30700  24274984.68900                  -2444788.59040  24274988.47540
   5930325.95000  23891194.06400                   4645941.19840  23891197.04140
 96  9 13  2 46  0.0100000  0  6  4 14 18 19 22 29
   2003287.98500  27714555.30700                    353575.85140  27714560.07640
   5446994.42800  23895189.37700                   4267441.51040  23895193.45540
  -6530324.30500  25069672.34600                  -4708102.52040  25069676.29540
  -2610324.00600  26838234.55700                  -1934924.75740  26838238.16640
  -3159182.06200  24285284.69700                  -2402610.71740  24285288.37740
   5970675.35500  23898872.21300                   4677382.30240  23898875.22540
 96  9 13  2 46 30.0100000  0  6  4 14 18 19 22 29
   2047404.76300  27722951.77500                    387952.55840  27722956.29940
   5538921.03900  23912682.45500                   4339072.63840  23912686.47540
  -6558484.27500  25064313.28300                  -4730045.33540  25064317.68940
  -2651836.93400  26830334.18900                  -1967272.41840  26830340.27140
  -3104482.79000  24295693.71300                  -2359987.88340  24295697.55740
   6011221.72600  23906588.25200                   4708976.89140  23906591.24040
 96  9 13  2 47  0.0100000  0  6  4 14 18 19 22 29
   2091927.13200  27731423.10300                    422645.30140  27731427.58040
   5631328.21600  23930266.90800                   4411078.22540  23930270.92840
  -6586541.02000  25058974.63500                  -4751907.71440  25058978.66640
  -2693204.08800  26822462.18200                  -1999506.49440  26822467.17440
  -3049203.47800  24306213.13500                  -2316913.08440  24306216.94340
   6051975.45700  23914343.15800                   4740733.05840  23914346.12340
 96  9 13  2 47 30.0100000  0  6  4 14 18 19 22 29
   2136863.57400  27739974.86100                    457660.69040  27739977.95540
   5724219.93300  23947943.82200                   4483461.37340  23947947.88940
  -6614492.36200  25053655.51800                  -4773687.94440  25053659.36140
  -2734437.23700  26814615.16600                  -2031636.14540  26814621.08440
  -2993332.55500  24316844.86900                  -2273377.28440  24316848.61940
   6092929.35100  23922136.63500                   4772645.18640  23922139.52940
 96  9 13  2 48  0.0100000  0  6  4 14 18 19 22 29
   2182207.83900  27748603.07200                    492993.84940  27748607.49040
   5817578.54500  23965708.96300                   4556208.34040  23965713.15840
  -6642352.98700  25048353.61900                  -4795397.50040  25048357.10040
  -2775537.49900  26806794.71300                  -2063662.26140  26806800.32640
  -2936893.29200  24327584.90000                  -2229398.62040  24327588.66240
   6134069.21100  23929965.22800                   4804702.23440  23929968.15840
 96  9 13  2 48 30.0110000  0  6  4 14 18 19 22 29
   2227979.98700  27757312.90500                    528660.43240  27757316.31540
   5911404.81100  23983563.50700                   4629319.71640  23983567.83140
  -6670112.47500  25043071.13200                  -4817028.24440  25043075.24540
  -2816499.59100  26799000.45200                  -2095580.72240  26799006.75740
  -2879890.96200  24338431.83500                  -2184981.20540  24338435.85440
   6175399.03400  23937830.13200                   4836907.30040  23937833.00340
 96  9 13  2 49  0.0110000  0  6  4 14 18 19 22 29
   2274181.67900  27766105.42900                    564661.72340  27766111.28840
   6005688.77400  24001504.99900                   4702787.73440  24001509.31140
  -6697774.34000  25037807.40500                  -4838582.92540  25037811.08540
  -2857337.58400  26791228.63200                  -2127402.45340  26791234.18640
  -2822328.28100  24349385.89000                  -2140127.15840  24349389.95640
   6216918.92500  23945730.86600                   4869260.47240  23945733.79640
 96  9 13  2 49 30.0110000  0  6  4 14 18 19 22 29
   2320833.86200  27774982.64700                    601014.11740  27774985.34340
   6100433.13800  24019534.59300                   4776614.50440  24019538.82340
  -6725335.63100  25032562.99900                  -4860059.22240  25032566.83140
  -2898048.61300  26783482.45200                  -2159125.28440  26783487.21040
  -2764204.87800  24360446.59300                  -2094836.17640  24360450.47240
   6258628.45900  23953667.91300                   4901761.41640  23953670.91340
 96  9 13  2 50  0.0110000  0  6  4 14 18 19 22 29
   2367934.03200  27783945.75700                    637715.50540  27783950.91340
   6195615.37900  24037647.16300                   4850782.47940  24037651.31140
  -6752804.77000  25027335.26500                  -4881463.73840  25027339.08540
  -2938647.08400  26775756.86600                  -2190760.39540  26775762.47940
  -2705547.96900  24371608.54600                  -2049129.48540  24371612.09740
   6300525.13400  23961640.60800                   4934408.18540  23961643.74940
 96  9 13  2 50 30.0110000  0  6  4 14 18 19 22 29
   2415509.47300  27792998.85100                    674787.26840  27793002.67140
   6291241.19900  24055843.96000                   4925296.10140  24055848.23740
  -6780164.46000  25022128.74100                  -4902782.95340  25022132.86640
  -2979118.24400  26768054.48300                  -2222296.30840  26768060.41340
  -2646321.89800  24382878.92100                  -2002979.28740  24382882.43640
   6342637.14700  23969654.19400                   4967222.74640  23969657.26540
 96  9 13  2 51  0.0110000  0  6  4 14 18 19 22 29
   2463535.20200  27802138.33500                    712209.91440  27802142.29640
   6387295.62600  24074122.60100                   5000143.69640  24074126.96040
  -6807439.44800  25016938.39000                  -4924036.13840  25016942.49140
  -3019474.79500  26760374.34300                  -2253742.89840  26760380.37840
  -2586546.10000  24394253.83500                  -1956400.73240  24394257.55040
   6384951.96500  23977706.27200                   5000195.34340  23977709.53040
 96  9 13  2 51 30.0110000  0  6  4 14 18 19 22 29
   2512032.92900  27811366.68600                    750000.32940  27811372.48740
   6483812.90900  24092489.35100                   5075351.97040  24092493.58140
  -6834612.23100  25011768.03000                  -4945209.73540  25011772.07340
  -3059674.45300  26752725.88200                  -2285067.27640  26752732.32740
  -2526212.42400  24405735.04600                  -1909387.46740  24405738.92540
   6427490.99700  23985801.17100                   5033342.64840  23985804.35840
 96  9 13  2 52  0.0110000  0  6  4 14 18 19 22 29
   2560976.38900  27820678.24100                    788138.06840  27820687.12840
   6580773.34700  24110940.24100                   5150905.56040  24110944.57740
  -6861708.03400  25006611.65500                  -4966323.30540  25006615.34740
  -3099728.34800  26745102.86600                  -2316278.03040  26745107.19040
  -2465342.59300  24417318.03000                  -1861956.41440  24417322.05040
   6470241.88100  23993936.72600                   5066655.03040  23993939.92540
 96  9 13  2 52 30.0110000  0  6  4 14 18 19 22 29
   2610350.88000  27830076.78800                    826611.69940  27830083.72940
   6678193.59800  24129478.64700                   5226817.42940  24129482.89040
  -6888725.51300  25001470.51500                  -4987375.87740  25001474.32340
  -3139617.75600  26737512.15500                  -2347360.60740  26737517.97940
  -2403927.42400  24429004.60100                  -1814100.42640  24429008.57340
   6513211.01500  24002113.44400                   5100137.47840  24002116.38640
 96  9 13  2 53  0.0110000  0  6  4 14 18 19 22 29
   2660149.70100  27839552.14700                    865415.96240  27839557.22240
   6776093.98700  24148108.66300                   5303103.44540  24148112.97640
  -6915667.88900  24996343.39700                  -5008369.91240  24996346.97240
  -3179338.76000  26729953.92900                  -2378311.96040  26729959.41340
  -2341970.45600  24440794.96000                  -1765822.25940  24440798.92140
   6556401.33200  24010332.23300                   5133792.27940  24010335.23340
 96  9 13  2 53 30.0110000  0  6  4 14 18 19 22 29
   2710374.50600  27849109.35800                    904552.16940  27849114.23340
   6874462.89000  24166827.54600                   5379754.53840  24166831.81140
  -6942533.78300  24991230.95200                  -5029304.34640  24991235.00740
  -3218895.48100  26722425.47600                  -2409135.31940  26722430.21040
  -2279455.67700  24452691.04600                  -1717109.42540  24452694.71440
   6599821.29200  24018594.68600                   5167626.02340  24018597.69840
 96  9 13  2 54  0.0110000  0  6  4 14 18 19 22 29
   2761031.38700  27858749.25700                    944025.02640  27858754.08540
   6973289.67500  24185633.89000                   5456762.41640  24185638.15540
  -6969303.80900  24986136.50700                  -5050164.09340  24986140.56140
  -3258303.42800  26714925.98300                  -2439842.74140  26714930.76540
  -2216355.89000  24464698.38200                  -1667940.74340  24464702.06140
   6643487.00400  24026904.14700                   5201651.26340  24026907.19440
 96  9 13  2 54 30.0110000  0  6  4 14 18 19 22 29
   2812104.59900  27868468.45200                    983822.30540  27868475.59340
   7072556.68200  24204523.59300                   5534113.32440  24204527.81140
  -6995976.30400  24981061.33500                  -5070947.83140  24981065.55440
  -3297585.33200  26707451.76500                  -2470451.95740  26707456.48740
  -2152678.14200  24476816.14700                  -1618321.70340  24476819.94440
   6687388.59600  24035258.24900                   5235860.30640  24035261.30840
 96  9 13  2 55  0.0110000  0  6  4 14 18 19 22 29
   2863611.24300  27878269.38200                   1023957.32340  27878271.30440
   7172260.77300  24223496.34300                   5611804.81340  24223500.77240
  -7022540.24300  24976006.09300                  -5091646.98640  24976009.97240
  -3336747.58200  26699999.73300                  -2500967.91540  26700004.96040
  -2088412.80400  24489045.06100                  -1568244.80740  24489048.85840
   6731527.61400  24043657.52200                   5270254.35540  24043660.52240
 96  9 13  2 55 30.0110000  0  6  4 14 18 19 22 29
   2915557.02800  27888155.30400                   1064434.56940  27888160.54240
   7272405.07300  24242553.34300                   5689839.33540  24242557.63240
  -7048974.70000  24970975.62400                  -5112245.24240  24970979.71440
  -3375780.04300  26692571.81100                  -2531382.74140  26692577.80040
  -2023562.10300  24501385.92900                  -1517711.77840  24501389.63240
   6775906.50900  24052102.56900                   5304835.31440  24052105.69840
 96  9 13  2 56  0.0110000  0  6  4 14 18 19 22 29
   2967938.88900  27898121.60800                   1105251.60540  27898127.62040
   7373002.76100  24261696.45200                   5768227.14140  24261700.76540
  -7075262.55300  24965973.24100                  -5132729.25440  24965977.34340
  -3414675.83400  26685169.98300                  -2561691.09640  26685175.33940
  -1958145.03800  24513834.29600                  -1466737.43140  24513838.22240
   6820521.09900  24060592.42900                   5339599.93740  24060595.42940
 96  9 13  2 56 30.0110000  0  6  4 14 18 19 22 29
   3020733.56400  27908169.35800                   1146390.31540  27908173.65940
   7474040.92400  24280923.39000                   5846958.17940  24280927.86640
  -7101428.86300  24960994.00700                  -5153118.56340  24960997.99140
  -3453434.47300  26677794.25700                  -2591892.55640  26677799.06140
  -1892189.44700  24526385.60800                  -1415343.45040  24526389.30040
   6865339.81600  24069121.23300                   5374523.62740  24069124.19840
 96  9 13  2 57  0.0110000  0  6  4 14 18 19 22 29
   3073949.72900  27918295.51500                   1187857.43440  27918299.87440
   7575535.43500  24300237.08500                   5926044.80240  24300241.38640
  -7127473.49300  24956038.17900                  -5173413.05640  24956042.10440
  -3492042.05700  26670447.81900                  -2621976.32240  26670453.28040
  -1825690.57000  24539039.71800                  -1363526.13240  24539043.64340
   6910363.76500  24077688.92100                   5409607.23040  24077691.97940
 96  9 13  2 57 30.0110000  0  6  4 14 18 19 22 29
   3127560.84000  27928496.05400                   1229632.22640  27928499.94440
   7677479.90000  24319636.55400                   6005482.04640  24319640.74940
  -7153406.37300  24951103.21000                  -5193620.47540  24951106.93640
  -3530499.32500  26663129.96800                  -2651942.96140  26663135.12440
  -1758684.28600  24551790.42100                  -1311313.42740  24551794.30040
   6955582.18200  24086293.77200                   5444842.36840  24086296.59740
 96  9 13  2 58  0.0110000  0  6  4 14 18 19 22 29
   3181558.90100  27938772.23300                   1271708.60940  27938778.58540
   7779877.75300  24339122.20200                   6085272.57840  24339126.44440
  -7179228.11800  24946189.84300                  -5213741.29440  24946193.61640
  -3568807.33600  26655838.80400                  -2681793.29540  26655843.46840
  -1691163.07300  24564639.10800                  -1258699.48140  24564642.95240
   7000998.83300  24094936.24100                   5480231.97140  24094939.11240
 96  9 13  2 58 30.0110000  0  6  4 14 18 19 22 29
   3235959.57500  27949125.35800                   1314098.74640  27949128.78040
   7882739.78100  24358696.31900                   6165424.80340  24358700.45640
  -7204932.37900  24941297.85100                  -5233770.56940  24941301.58940
  -3606951.86700  26648580.04600                  -2711516.23640  26648585.23740
  -1623101.11600  24577590.91300                  -1205664.17640  24577594.75740
   7046631.63100  24103619.72600                   5515789.99940  24103622.69040
 96  9 13  2 59  0.0110000  0  6  4 14 18 19 22 29
   3290775.44100  27959556.39700                   1356812.40740  27959559.85440
   7986068.21700  24378359.06900                   6245940.46140  24378363.33540
  -7230502.08600  24936432.39700                  -5253695.00340  24936436.10140
  -3644927.05100  26641354.03800                  -2741107.22540  26641359.10140
  -1554485.93400  24590647.99100                  -1152197.79340  24590651.70640
   7092505.43500  24112349.36600                   5551535.82340  24112352.24940
 96  9 13  2 59 30.0110000  0  6  4 14 18 19 22 29
   3346002.44000  27970065.98300                   1399846.45440  27970071.30440
   8089840.57400  24398106.33500                   6326802.03740  24398110.69440
  -7255933.86200  24931592.83500                  -5273511.94640  24931596.47940
  -3682741.10600  26634158.74900                  -2770572.66240  26634164.77240
  -1485326.15100  24603808.80400                  -1098307.03640  24603812.49540
   7138616.85700  24121124.05400                   5587466.80340  24121126.96040
 96  9 13  3  0  0.0110000  0  6  4 14 18 19 22 29
   3401669.80600  27980660.01500                   1443223.55340  27980663.68340
   8194046.81200  24417936.01500                   6408001.68840  24417940.50340
  -7281217.45100  24926781.39000                  -5293213.42940  24926784.94040
  -3720386.68200  26626994.50700                  -2799906.82840  26626999.71040
  -1415580.24900  24617080.85800                  -1043959.56640  24617084.69040
   7184974.64000  24129945.72600                   5623589.75940  24129948.64340
 96  9 13  3  0 30.0110000  0  6  4 14 18 19 22 29
   3457791.43100  27991339.30400                   1486954.71040  27991347.59340
   8298679.08200  24437847.14000                   6489533.32840  24437851.48740
  -7306348.01100  24921998.67100                  -5312795.65740  24922002.23340
  -3757851.53000  26619865.35800                  -2829100.13140  26619870.91340
  -1345239.05200  24630466.60800                   -989148.23140  24630470.38240
   7231579.72500  24138814.27200                   5659905.41740  24138817.22640
 96  9 13  3  1  0.0110000  0  6  4 14 18 19 22 29
   3514364.27100  28002105.25700                   1531037.37640  28002110.53040
   8403738.31800  24457839.03000                   6571397.65840  24457843.40140
  -7331324.37400  24917246.54600                  -5332257.74340  24917250.42540
  -3795139.68800  26612769.60100                  -2858155.79140  26612775.24940
  -1274316.12000  24643962.37400                   -933883.59140  24643966.13640
   7278433.42900  24147730.23300                   5696414.80840  24147733.26840
 96  9 13  3  1 30.0110000  0  6  4 14 18 19 22 29
   3571380.66800  28012953.08500                   1575465.75440  28012957.63240
   8509221.89400  24477911.73300                   6653592.64740  24477915.94040
  -7356154.55600  24912520.93600                  -5351605.91440  24912524.54640
  -3832266.14700  26605704.98300                  -2887085.45240  26605709.41340
  -1202828.24300  24657566.21800                   -878178.74140  24657570.07340
   7325516.61800  24156689.94400                   5733103.01040  24156692.89740
 96  9 13  3  2  0.0110000  0  6  4 14 18 19 22 29
   3628830.73700  28023887.46000                   1620232.02740  28023890.40140
   8615129.74600  24498065.46800                   6736118.23440  24498069.58140
  -7380854.92900  24907820.56100                  -5370852.94240  24907824.41740
  -3869238.34000  26598668.77200                  -2915894.92440  26598673.65940
  -1130775.23300  24671277.58500                   -822033.53540  24671281.41740
   7372829.24000  24165693.25700                   5769969.99740  24165696.19840
 96  9 13  3  2 30.0110000  0  6  4 14 18 19 22 29
   3686693.72200  28034897.54600                   1665320.08740  28034900.93340
   8721471.67600  24518301.55400                   6818982.07340  24518305.89040
  -7405433.04300  24903143.77200                  -5390004.70240  24903147.51140
  -3906067.53000  26591660.17100                  -2944592.91140  26591665.69040
  -1058182.89100  24685091.31900                   -765468.06340  24685095.06940
   7420380.05400  24174741.89700                   5807022.58940  24174745.00340
 96  9 13  3  3  0.0110000  0  6  4 14 18 19 22 29
   3744974.26100  28045988.28000                   1710733.44440  28045991.39740
   8828242.50700  24538619.39000                   6902180.11340  24538623.77240
  -7429888.14100  24898490.44400                  -5409060.60040  24898493.98340
  -3942754.80800  26584679.90500                  -2973180.32140  26584684.74540
   -985061.47400  24699005.53800                   -708490.32840  24699009.56940
   7468180.21900  24183837.90500                   5844269.47440  24183840.96440
 96  9 13  3  3 30.0110000  0  6  4 14 18 19 22 29
   3803676.09700  28057157.66300                   1756475.15840  28057164.06140
   8935446.60700  24559019.75700                   6985715.76840  24559024.14040
  -7454212.26400  24893861.45200                  -5428014.45040  24893865.15540
  -3979275.83200  26577730.35800                  -3001638.22040  26577734.68340
   -911396.52500  24713023.78800                   -651089.06840  24713027.83140
   7516238.49000  24192983.06100                   5881717.48340  24192986.21440
 96  9 13  3  4  0.0110000  0  6  4 14 18 19 22 29
   3862784.03000  28068406.85100                   1802533.24940  28068411.64340
   9043077.29800  24579501.42100                   7069583.83340  24579505.69840
  -7478410.74600  24889256.69400                  -5446870.39240  24889260.35140
  -4015615.70400  26570814.23300                  -3029954.94440  26570818.61640
   -837190.33100  24727144.46800                   -593266.04740  24727148.41740
   7564553.50000  24202176.95200                   5919365.54940  24202180.14040
 96  9 13  3  4 30.0110000  0  6  4 14 18 19 22 29
   3922291.77100  28079728.89700                   1848902.95740  28079733.62040
   9151137.47100  24600064.27200                   7153786.55440  24600068.59740
  -7502476.08400  24884677.18600                  -5465622.58540  24884681.05440
  -4051763.06900  26563935.00700                  -3058121.66840  26563940.33940
   -762455.41800  24741366.46800                   -535031.04640  24741370.48740
   7613120.00800  24211418.90500                   5957209.58340  24211421.95240
 96  9 13  3  5  0.0110000  0  6  4 14 18 19 22 29
   3982202.73900  28091130.99900                   1895586.75140  28091135.03040
   9259629.47000  24620709.80400                   7238325.77140  24620714.11640
  -7526387.60000  24880126.60800                  -5484254.91340  24880130.60440
  -4087706.00500  26557095.37400                  -3086129.06840  26557100.16740
   -687175.98700  24755691.72600                   -476371.74140  24755695.53440
   7661929.30500  24220707.04600                   5995242.80740  24220710.08140
 96  9 13  3  5 30.0110000  0  6  4 14 18 19 22 29
   4042505.81100  28102606.27200                   1942576.19540  28102612.14340
   9368560.50000  24641438.82700                   7323207.08540  24641443.03440
  -7550147.30100  24875605.43600                  -5502768.95240  24875609.39740
  -4123456.22000  26550292.11600                  -3113986.31640  26550297.13240
   -611356.33900  24770119.68600                   -417291.49040  24770123.36640
   7710962.08300  24230037.66300                   6033450.17740  24230040.75740
 96  9 13  3  6  0.0110000  0  6  4 14 18 19 22 29
   4103200.27000  28114157.06100                   1989870.49840  28114165.10440
   9477913.29100  24662247.94400                   7408417.04340  24662252.09340
  -7573753.69800  24871113.42100                  -5521163.52440  24871117.15940
  -4159045.11700  26543520.55400                  -3141717.86340  26543524.93640
   -535002.00500  24784649.47600                   -357794.59240  24784653.07340
   7760201.38600  24239407.39000                   6071818.47040  24239410.48340
 96  9 13  3  6 30.0110000  0  6  4 14 18 19 22 29
   4164312.72900  28125785.67900                   2037490.58240  28125790.91740
   9587706.96400  24683140.88200                   7493970.54440  24683144.93640
  -7597178.79400  24866655.72600                  -5539416.83340  24866659.44040
  -4194477.57100  26536777.81900                  -3169327.49640  26536782.06140
   -458104.36200  24799282.26500                   -297874.34740  24799285.92140
   7809679.43500  24248823.10800                   6110372.80040  24248826.16740
 96  9 13  3  7  0.0110000  0  6  4 14 18 19 22 29
   4225834.06000  28137493.24100                   2085429.28140  28137497.44840
   9697912.48200  24704112.38200                   7579844.96740  24704116.53040
  -7620434.75400  24862230.21800                  -5557538.34940  24862233.73340
  -4229791.35800  26530057.72600                  -3196844.66440  26530062.64740
   -380685.21700  24814014.80400                   -237547.73140  24814018.30840
   7859384.04100  24258281.41300                   6149103.66740  24258284.39040
 96  9 13  3  7 30.0110000  0  6  4 14 18 19 22 29
   4287771.03200  28149278.85100                   2133691.82140  28149280.97240
   9808534.67800  24725163.16300                   7666044.07440  24725167.18340
  -7643524.96600  24857836.23300                  -5575530.70240  24857839.79640
  -4264980.68000  26523361.69400                  -3224264.85340  26523365.94840
   -302749.83000  24828845.34300                   -176818.84840  24828849.06940
   7909332.32500  24267786.36600                   6188024.41240  24267789.21440
 96  9 13  3  8  0.0110000  0  6  4 14 18 19 22 29
   4350113.98000  28161142.23300                   2182270.73540  28161148.64340
   9919568.35800  24746292.06100                   7752563.82540  24746296.30440
  -7666441.98300  24853475.58500                  -5593388.09540  24853479.35840
  -4300038.55600  26516690.08500                  -3251582.62340  26516695.11240
   -224287.75300  24843776.24900                   -115679.56140  24843779.70640
   7959551.25400  24277342.56100                   6227156.05040  24277345.47940
 96  9 13  3  8 30.0110000  0  6  4 14 18 19 22 29
   4412844.02800  28173077.99100                   2231151.35140  28173085.71840
  10031006.38400  24767497.72600                   7839398.63840  24767502.07340
  -7689205.11000  24849143.67100                  -5611125.58440  24849147.21040
  -4334958.46400  26510045.08500                  -3278792.86840  26510050.64040
   -145307.93500  24858805.42900                    -54136.84140  24858809.21440
   8010050.90200  24286952.34300                   6266506.42840  24286955.39040
 96  9 13  3  9  0.0120000  0  6  4 14 18 19 22 29
   4475949.07800  28185087.38700                   2280324.06440  28185093.42240
  10142847.89300  24788780.64400                   7926547.85940  24788784.93440
  -7711826.54600  24844838.98800                  -5628752.65940  24844842.64440
  -4369728.07000  26503428.30900                  -3305886.01540  26503432.85540
    -65797.11700  24873935.90200                      7819.65140  24873939.66440
   8060819.51000  24296613.11300                   6306066.39040  24296616.12540
 96  9 13  3  9 30.0120000  0  6  4 14 18 19 22 29
   4539416.09800  28197165.34000                   2329778.87740  28197169.44140
  10255088.37000  24810139.04300                   8014007.96640  24810143.51940
  -7734318.79600  24840559.04300                  -5646279.06540  24840562.61740
  -4404328.76900  26496844.09000                  -3332847.52440  26496848.98840
     14253.32900  24889169.12100                     70196.63240  24889172.88340
   8111855.23400  24306324.88700                   6345834.48940  24306327.99240
 96  9 13  3 10  0.0120000  0  6  4 14 18 19 22 29
   4603255.93600  28209313.96500                   2379524.15340  28209317.77340
  10367722.32700  24831572.55100                   8101774.67240  24831577.13340
  -7756673.24300  24836304.91800                  -5663698.10340  24836308.70340
  -4438762.44200  26490292.07400                  -3359678.89240  26490297.78140
     94843.73600  24904504.99600                    132994.36240  24904508.65240
   8163171.66600  24316090.19900                   6385821.32140  24316093.19940
 96  9 13  3 10 30.0120000  0  6  4 14 18 19 22 29
   4667487.15300  28221536.45700                   2429574.39240  28221543.76240
  10480761.16700  24853083.20700                   8189856.87940  24853087.59040
  -7778885.77800  24832078.09800                  -5681006.55540  24832081.57840
  -4473017.39300  26483772.44900                  -3386371.01140  26483777.41840
    175965.79800  24919941.82400                    196206.36640  24919945.48040
   8214763.94500  24325907.87900                   6426023.10140  24325910.86740
 96  9 13  3 11  0.0120000  0  6  4 14 18 19 22 29
   4732080.71800  28233827.99600                   2479907.05840  28233833.38740
  10594173.10600  24874664.72300                   8278229.80840  24874669.10540
  -7800984.37300  24827872.78500                  -5698226.22240  24827876.60540
  -4507136.93100  26477279.94100                  -3412957.60040  26477284.55940
    257577.38700  24935471.96500                    259799.82640  24935475.78540
   8266591.47000  24335770.25400                   6466408.19140  24335773.24240
 96  9 13  3 11 30.0120000  0  6  4 14 18 19 22 29
   4797051.91900  28246192.19900                   2530533.93540  28246197.60140
  10707950.14900  24896315.84000                   8366887.23040  24896320.23440
  -7822957.37600  24823691.63700                  -5715348.03340  24823695.19940
  -4541126.47000  26470812.03500                  -3439442.91740  26470817.07440
    339673.13100  24951094.08200                    323770.54240  24951098.06640
   8318660.77000  24345678.67600                   6506981.67640  24345681.60540
 96  9 13  3 12  0.0120000  0  6  4 14 18 19 22 29
   4862409.08500  28258627.69900                   2581461.59640  28258633.99240
  10822103.20400  24918038.71500                   8455837.65140  24918043.16840
  -7844772.09700  24819540.44100                  -5732346.50340  24819544.01640
  -4574976.87000  26464370.95700                  -3465819.80640  26464375.66840
    422250.27800  24966808.16800                    388116.38240  24966811.81240
   8370967.08400  24355632.34800                   6547739.84540  24355635.19540
 96  9 13  3 12 30.0120000  0  6  4 14 18 19 22 29
   4928151.34000  28271138.80100                   2632689.30840  28271142.89140
  10936652.83900  24939836.69100                   8545097.10440  24939840.92240
  -7866416.31800  24815421.55100                  -5749212.11540  24815425.07840
  -4608677.12800  26457957.83200                  -3492079.69140  26457962.97640
    505329.33600  24982617.35500                    452853.31640  24982621.29340
   8423507.44700  24365630.52700                   6588680.38340  24365633.62140
 96  9 13  3 13  0.0120000  0  6  4 14 18 19 22 29
   4994279.99300  28283723.19900                   2684218.08540  28283725.47340
  11051592.93500  24961708.99600                   8634660.80940  24961713.35540
  -7887865.96500  24811339.97300                  -5765926.10940  24811343.72340
  -4642224.55200  26451573.65200                  -3518220.48940  26451578.91440
    588924.65300  24998525.48000                    517992.53340  24998529.21940
   8476287.57200  24375674.06600                   6629807.76140  24375677.01940
 96  9 13  3 13 30.0120000  0  6  4 14 18 19 22 29
   5060785.38400  28296378.49600                   2736040.47540  28296384.59040
  11166918.60200  24983654.71500                   8724524.95640  24983659.12140
  -7909108.64200  24807297.37100                  -5782478.83440  24807301.06240
  -4675595.26900  26445223.42600                  -3544223.59140  26445227.65640
    673044.38200  25014533.08200                    583540.38240  25014536.80940
   8529310.80000  24385764.36300                   6671124.56540  24385767.24640
 96  9 13  3 14  0.0120000  0  6  4 14 18 19 22 29
   5127637.55100  28309099.53500                   2788133.02440  28309104.56240
  11282624.52000  25005672.56600                   8814685.41240  25005677.07840
  -7930165.45100  24803290.32400                  -5798886.72240  24803293.69940
  -4708795.27400  26438905.59800                  -3570093.66440  26438909.95740
    757675.23000  25030637.69900                    649486.50540  25030641.43740
   8582566.73900  24395898.45700                   6712622.70140  24395901.48040
 96  9 13  3 14 30.0120000  0  6  4 14 18 19 22 29
   5194839.14600  28321888.35500                   2840497.94440  28321893.13740
  11398715.23700  25027764.18400                   8905145.70440  25027768.63740
  -7951036.07100  24799318.76900                  -5815149.52940  24799322.14440
  -4741819.74600  26432621.15200                  -3595826.96440  26432625.87540
    842835.31700  25046842.96500                    715845.02740  25046846.41040
   8636080.79600  24406081.98800                   6754321.96540  24406085.09440
 96  9 13  3 15  0.0120000  0  6  4 14 18 19 22 29
   5262396.96000  28334744.39400                   2893140.35240  28334748.07440
  11515173.52300  25049925.64400                   8995892.40140  25049929.85140
  -7971735.97100  24795379.91800                  -5831279.31540  24795383.43440
  -4774663.38200  26426371.16000                  -3621419.36040  26426375.97640
    928511.47800  25063146.86300                    782605.67840  25063150.56640
   8689851.71400  24416314.26900                   6796221.38240  24416317.16440
 96  9 13  3 15 30.0120000  0  6  4 14 18 19 22 29
   5330328.13600  28347671.91000                   2946073.74040  28347676.30540
  11632010.34300  25072159.02700                   9086934.07440  25072163.21140
  -7992278.31100  24791470.68400                  -5847286.32440  24791474.10540
  -4807311.34300  26420158.53500                  -3646859.27340  26420162.93040
   1014713.25900  25079550.12100                    849775.90640  25079553.91840
   8743887.11700  24426596.78500                   6838326.89740  24426599.73840
 96  9 13  3 16  0.0120000  0  6  4 14 18 19 22 29
   5398637.23400  28360669.41000                   2999301.65540  28360673.86340
  11749228.07500  25094464.80900                   9178272.56740  25094469.06240
  -8012673.57300  24787589.74600                  -5863178.72340  24787593.39140
  -4839780.71900  26413979.14400                  -3672160.03140  26413984.94540
   1101436.20100  25096053.09000                    917352.24240  25096056.78140
   8798175.97200  24436927.54300                   6880629.89940  24436930.42640
 96  9 13  3 16 30.0120000  0  6  4 14 18 19 22 29
   5467318.80500  28373738.76200                   3052819.72040  28373743.67240
  11866796.76900  25116837.44100                   9269884.52740  25116841.75440
  -8032930.75600  24783734.83200                  -5878963.52940  24783738.46540
  -4872096.30100  26407830.48800                  -3697340.96540  26407834.90640
   1188655.11500  25112650.10500                    985315.04140  25112653.73840
   8852694.63900  24447302.06600                   6923111.97840  24447305.01940
 96  9 13  3 17  0.0120000  0  6  4 14 18 19 22 29
   5536390.95300  28386883.95700                   3106642.18340  28386892.50440
  11984718.81600  25139277.32400                   9361771.82140  25139281.44940
  -8053048.93400  24779906.34000                  -5894640.01440  24779909.75040
  -4904259.03000  26401709.76200                  -3722402.79540  26401714.23840
   1276358.64500  25129339.48800                   1053655.46340  25129342.93440
   8907449.92500  24457721.69900                   6965778.43840  24457724.45340
 96  9 13  3 17 30.0120000  0  6  4 14 18 19 22 29
   5605832.32400  28400098.37100                   3160752.31140  28400101.85140
  12103005.13500  25161786.24600                   9453942.98040  25161790.44140
  -8073013.24100  24776107.09000                  -5910196.60040  24776110.80540
  -4936269.86700  26395618.23800                  -3747346.26140  26395622.65640
   1364545.51200  25146121.12900                   1122372.51340  25146124.53940
   8962453.86100  24468188.30100                   7008638.65340  24468191.12540
 96  9 13  3 18  0.0120000  0  6  4 14 18 19 22 29
   5675607.42100  28413374.94900                   3215122.47140  28413379.64840
  12221644.94200  25184363.04300                   9546389.56340  25184367.43740
  -8092815.73800  24772339.10500                  -5925627.10740  24772342.62140
  -4968148.35700  26389552.95700                  -3772186.60240  26389556.93040
   1453184.84500  25162988.15200                   1191442.13240  25162991.42240
   9017706.60500  24478702.69900                   7051692.74440  24478705.54740
 96  9 13  3 18 30.0120000  0  6  4 14 18 19 22 29
   5745743.55700  28426721.77700                   3269773.98640  28426726.74640
  12340648.86800  25207008.54300                   9639119.88940  25207012.89140
  -8112426.41400  24768607.25400                  -5940908.13540  24768610.78140
  -4999868.54400  26383516.22300                  -3796903.59640  26383521.35540
   1542278.33900  25179942.16000                   1260865.64040  25179945.69940
   9073254.08700  24489273.19100                   7094976.49640  24489275.95740
 96  9 13  3 19  0.0120000  0  6  4 14 18 19 22 29
   5816218.96200  28440132.22300                   3324689.87340  28440135.80940
  12460008.63600  25229721.93400                   9732127.48640  25229726.46940
  -8131857.61000  24764909.51900                  -5956049.30740  24764913.00040
  -5031428.27700  26377510.13700                  -3821495.54640  26377514.49640
   1631811.70800  25196979.72300                   1330631.91640  25196983.14440
   9129084.64500  24499897.48000                   7138480.82840  24499900.16440
 96  9 13  3 19 30.0120000  0  6  4 14 18 19 22 29
   5887009.94300  28453604.01200                   3379851.66040  28453610.63340
  12579716.73000  25252501.52700                   9825406.50640  25252505.93440
  -8151102.93300  24761247.18400                  -5971045.65040  24761250.55940
  -5062816.01800  26371537.14400                  -3845953.51140  26371541.60940
   1721794.99500  25214103.22300                   1400748.77040  25214106.62140
   9185189.33500  24510573.67600                   7182198.77440  24510576.38340
 96  9 13  3 20  0.0120000  0  6  4 14 18 19 22 29
   5958136.43200  28467138.66800                   3435274.83640  28467144.56240
  12699771.91000  25275347.37900                   9918955.99440  25275351.69140
  -8170150.71800  24757622.44900                  -5985888.06640  24757625.80140
  -5094041.81100  26365594.70700                  -3870285.23940  26365599.69940
   1812228.01000  25231312.05900                   1471216.06840  25231315.84440
   9241568.76900  24521302.05100                   7226130.80240  24521304.96940
 96  9 13  3 20 30.0120000  0  6  4 14 18 19 22 29
   6029608.76700  28480739.84000                   3490967.56640  28480742.28940
  12820156.15600  25298255.62100                  10012761.87940  25298259.96940
  -8189019.85400  24754032.02700                  -6000591.27040  24754035.60140
  -5125112.99700  26359682.55900                  -3894496.49540  26359687.50440
   1903113.86800  25248607.09800                   1542036.21840  25248610.93040
   9298200.85900  24532079.19100                   7270259.69940  24532082.12140
 96  9 13  3 21  0.0120000  0  6  4 14 18 19 22 29
   6101400.55900  28494400.83200                   3546909.18740  28494407.46540
  12940878.88100  25321228.44900                  10106831.53140  25321232.96140
  -8207709.68500  24750475.41800                  -6015154.75740  24750478.74640
  -5156034.60900  26353798.66800                  -3918591.22040  26353802.58240
   1994484.51900  25265994.27700                   1613234.14440  25265997.65240
   9355069.02200  24542900.74600                   7314572.56240  24542903.64140
 96  9 13  3 21 30.0120000  0  6  4 14 18 19 22 29
   6173527.73300  28508127.37900                   3603112.11340  28508133.02740
  13061949.17700  25344267.45700                  10201172.01140  25344271.67640
  -8226203.75000  24746956.09800                  -6029565.70240  24746959.47340
  -5186809.20100  26347941.82400                  -3942571.38140  26347946.25440
   2086359.27900  25283477.48800                   1684824.87440  25283481.08640
   9412195.96500  24553771.58200                   7359087.07040  24553774.52340
 96  9 13  3 22  0.0120000  0  6  4 14 18 19 22 29
   6246007.27600  28521919.15200                   3659589.64640  28521924.74240
  13183353.99400  25367370.03500                  10295773.16040  25367374.26640
  -8244502.93600  24743473.76900                  -6043824.79840  24743477.19140
  -5217445.75000  26342112.00400                  -3966443.98740  26342116.16440
   2178720.25100  25301053.10500                   1756794.47040  25301056.59840
   9469581.59800  24564691.74600                   7403803.14940  24564694.58240
 96  9 13  3 22 30.0120000  0  6  4 14 18 19 22 29
   6318819.22000  28535774.60500                   3716326.20240  28535777.69940
  13305069.09300  25390531.29300                  10390616.07940  25390535.81640
  -8262627.92300  24740024.88700                  -6057948.15240  24740028.30940
  -5247943.36200  26336308.16800                  -3990208.31040  26336313.13740
   2271568.00100  25318721.53500                   1829143.38040  25318725.44940
   9527209.55200  24575658.12100                   7448708.04640  24575660.84040
 96  9 13  3 23  0.0120000  0  7  3  4 14 18 19 22 29
    -11592.01910  28555909.48800
   6391941.05700  28549690.26900                   3773304.27740  28549694.75840
  13427084.84400  25413750.27700                  10485693.27640  25413754.74240
  -8280582.52200  24736608.23000                  -6071938.72340  24736611.75840
  -5278312.58100  26330529.90200                  -4013872.60440  26330534.59040
   2364886.51400  25336479.20700                   1901859.10740  25336482.74640
   9585081.63200  24586670.69100                   7493803.18040  24586673.62140
 96  9 13  3 23 30.0120000  0  7  3  4 14 18 19 22 29
    -46338.98600  28549296.76200
   6465378.06700  28563663.91000                   3830527.90540  28563669.89840
  13549384.24900  25437022.90200                  10580991.50640  25437027.18040
  -8298363.31600  24733224.59800                  -6085793.87740  24733228.13740
  -5308549.85500  26324775.24600                  -4037434.09140  26324780.01640
   2458631.64700  25354318.48800                   1974907.26840  25354322.27340
   9643197.54600  24597729.87900                   7539088.30540  24597732.69140
 96  9 13  3 24  0.0120000  0  7  3  4 14 18 19 22 29
    -81054.10500  28542692.48000                    -10815.36350  28542696.98040
   6539101.36400  28577692.49600                   3887974.52040  28577702.30940
  13671961.42000  25460348.97300                  10676506.17640  25460353.43740
  -8315981.93100  24729871.70700                  -6099522.65140  24729875.09440
  -5338654.06700  26319047.15200                  -4060891.87940  26319051.79340
   2552787.44800  25372235.81600                   2048275.42840  25372239.53140
   9701531.84000  24608830.41000                   7584543.59840  24608833.18740
 96  9 13  3 24 30.0120000  0  7  3  4 14 18 19 22 29
   -115710.84500  28536096.94100                    -37820.54840  28536103.42240
   6613095.18100  28591773.12900                   3945632.06540  28591779.48040
  13794848.30400  25483733.44100                  10772262.18040  25483737.69540
  -8333434.98100  24726550.69100                  -6113122.41840  24726554.23040
  -5368615.87300  26313345.16800                  -4084238.75240  26313349.32840
   2647373.45500  25390235.10500                   2121978.82240  25390238.59840
   9760086.88700  24619973.02700                   7630170.91340  24619975.84040
 96  9 13  3 25  0.0120000  0  7  3  4 14 18 19 22 29
   -150325.85600  28529508.97300                    -64793.28840  28529514.37540
   6687350.72300  28605904.97300                   4003493.47940  28605909.68440
  13918057.06600  25507179.25400                  10868269.00240  25507183.48440
  -8350711.71300  24723263.03500                  -6126584.79140  24723266.39840
  -5398425.42900  26307672.26900                  -4107466.93940  26307677.15640
   2742381.64600  25408314.48000                   2196011.18440  25408318.11340
   9818870.90500  24631159.26900                   7675976.64540  24631162.16440
 96  9 13  3 25 30.0120000  0  7  3  4 14 18 19 22 29
   -184896.58400  28522930.80100                    -91731.46640  28522939.07840
   6761880.79300  28620086.01900                   4061568.81240  28620091.94940
  14041601.79800  25530689.14400                  10964537.60840  25530693.57440
  -8367802.88400  24720010.30900                  -6139902.57740  24720013.83640
  -5428060.91700  26302033.49600                  -4130559.50140  26302037.85540
   2837826.67700  25426477.10500                   2270383.94240  25426480.42240
   9877891.26500  24642390.51200                   7721966.53640  24642393.40640
 96  9 13  3 26  0.0120000  0  6  3 14 18 19 22 29
   -219403.35400  28516364.34800                   -118619.79240  28516370.13740
  14165491.81600  25554264.68400                  11061075.27340  25554269.12540
  -8384706.21400  24716794.09800                  -6153073.99340  24716797.57840
  -5457515.56300  26296428.85500                  -4153511.11740  26296433.22640
   2933742.05200  25444728.95700                   2345123.21340  25444732.54340
   9937167.20200  24653670.35500                   7768155.57540  24653673.32040
 96  9 13  3 26 30.0120000  0  6  3 14 18 19 22 29
   -253852.21500  28509808.80100                   -145463.04240  28509815.23440
  14289716.23600  25577903.51900                  11157873.51140  25577907.92640
  -8401411.75000  24713614.79300                  -6166091.27740  24713618.39140
  -5486794.21100  26290856.83200                  -4176325.61840  26290861.13340
   3030123.63300  25463069.70700                   2420225.74140  25463073.38740
   9996721.84600  24665003.33200                   7814561.79840  24665006.16840
 96  9 13  3 27  0.0120000  0  6  3 14 18 19 22 29
   -288247.66600  28503263.66800                   -172264.78340  28503267.30140
  14414253.30100  25601602.00400                  11254915.38040  25601606.52740
  -8417918.15700  24710474.00400                  -6178953.39940  24710477.42640
  -5515892.90800  26285319.65200                  -4198999.90440  26285323.41440
   3126954.59900  25481496.44100                   2495678.45240  25481500.15640
  10056565.69900  24676391.13700                   7861193.37340  24676393.90240
 96  9 13  3 27 30.0120000  0  6  3 14 18 19 22 29
   -322572.95700  28496730.87900                   -199011.63940  28496736.25840
  14539095.90000  25625358.86300                  11352195.31240  25625363.26940
  -8434232.53700  24707369.41800                  -6191665.89140  24707372.98040
  -5544830.33100  26279812.89400                  -4221548.51240  26279817.07840
   3224220.75100  25500005.19100                   2571470.26940  25500008.97640
  10116691.54900  24687832.56600                   7908044.68540  24687835.40240
 96  9 13  3 28  0.0120000  0  6  3 14 18 19 22 29
   -356831.25200  28490213.76900                   -225706.30340  28490217.35540
  14664237.35800  25649172.79300                  11449708.12840  25649177.71540
  -8450350.44500  24704302.30100                  -6204225.29040  24704305.69940
  -5573623.21800  26274333.49600                  -4243984.51540  26274337.73840
   3321912.23700  25518595.59000                   2647593.50840  25518599.01240
  10177097.75300  24699327.16000                   7955114.46040  24699330.19540
 96  9 13  3 28 30.0120000  0  6  3 14 18 19 22 29
   -391003.34200  28483709.24600                   -252333.94440  28483712.65640
  14789704.44800  25673048.34000                  11547474.67540  25673053.01640
  -8466245.58200  24701277.46500                  -6216611.09840  24701280.88740
  -5602250.44300  26268885.84800                  -4266291.42140  26268890.45340
   3420047.02800  25537269.87100                   2724062.18640  25537273.37540
  10237804.42200  24710879.72300                   8002418.36140  24710882.78140
 96  9 13  3 29  0.0120000  0  6  3 14 18 19 22 29
   -425102.13600  28477220.44100                   -278904.34140  28477226.98040
  14915470.37300  25696980.80900                  11645474.09640  25696985.42640
  -8481947.01700  24698289.50400                  -6228845.97240  24698292.89140
  -5630733.51200  26263466.11300                  -4288485.99340  26263470.08640
   3518599.11500  25556023.44900                   2800856.02440  25556027.05940
  10298770.36800  24722480.99600                   8049924.29640  24722484.05540
 96  9 13  3 29 30.0120000  0  6  3 14 18 19 22 29
   -459101.49900  28470750.74600                   -305397.32440  28470757.42640
  15041554.76300  25720973.89400                  11743721.66140  25720978.44140
  -8497418.09100  24695345.69100                  -6240901.34140  24695349.10140
  -5659051.89600  26258077.05100                  -4310552.22640  26258081.31640
   3617600.69200  25574862.71500                   2878000.11340  25574866.47640
  10360020.67700  24734136.61300                   8097651.81440  24734139.54340
 96  9 13  3 30  0.0130000  0  6  3 14 18 19 22 29
   -493025.56500  28464295.55600                   -331831.69440  28464298.77840
  15167925.96900  25745021.22000                  11842192.71240  25745025.55640
  -8512685.58400  24692440.38400                  -6252798.07740  24692443.80640
  -5687217.25000  26252717.75900                  -4332499.23640  26252722.11840
   3717033.19100  25593784.57100                   2955479.99140  25593788.13440
  10421546.42900  24745844.66500                   8145593.96540  24745847.60640
 96  9 13  3 30 30.0130000  0  6  3 14 18 19 22 29
   -526860.44600  28457857.82100                   -358196.46340  28457862.14540
  15294588.06300  25769124.33700                  11940890.43940  25769128.83740
  -8527738.58200  24689575.58700                  -6264527.67440  24689579.02040
  -5715195.72600  26247393.36000                  -4354300.62440  26247397.77840
   3816903.91600  25612788.85200                   3033301.34340  25612792.61440
  10483355.12300  24757606.38400                   8193756.58540  24757609.39540
 96  9 13  3 31  0.0130000  0  6  3 14 18 19 22 29
   -560611.68900  28451434.27400                   -384496.09440  28451438.80940
  15421541.64800  25793282.91500                  12039815.30040  25793287.40340
  -8542574.89800  24686752.49300                  -6276088.42440  24686756.05640
  -5742993.10000  26242103.93100                  -4375960.87840  26242108.60640
   3917198.21300  25631874.27400                   3111452.74940  25631878.01340
  10545435.14600  24769419.77400                   8242130.62940  24769422.83340
 96  9 13  3 31 30.0130000  0  6  3 14 18 19 22 29
   -594263.68100  28445030.28200                   -410718.38840  28445033.95040
  15548786.80500  25817496.89900                  12138967.35940  25817501.85640
  -8557188.00200  24683971.64900                  -6287475.24440  24683975.25940
  -5770623.70000  26236845.64200                  -4397491.16940  26236850.23540
   4017913.73700  25651039.95400                   3189932.37940  25651043.43440
  10607796.42500  24781286.86000                   8290723.83240  24781289.69640
 96  9 13  3 32  0.0130000  0  6  3 14 18 19 22 29
   -627786.84400  28438653.61800                   -436840.33840  28438658.21240
  15676340.82500  25841769.59500                  12238360.08740  25841774.29440
  -8571578.63800  24681233.00100                  -6298688.71540  24681236.66940
  -5798080.43500  26231620.48500                  -4418886.01540  26231624.65740
   4119056.04700  25670286.92300                   3268744.58140  25670290.52040
  10670437.19300  24793206.90700                   8339534.82140  24793209.61440
 96  9 13  3 32 30.0130000  0  6  3 14 18 19 22 29
   -661156.49300  28432300.29800                   -462842.58040  28432303.73140
  15804214.81600  25866103.22700                  12338002.15640  25866107.70440
  -8585728.30600  24678540.45400                  -6309714.41640  24678544.02840
  -5825375.86200  26226426.04800                  -4440155.14240  26226430.43140
   4220636.42600  25689616.92300                   3347898.13540  25689620.59140
  10733338.10700  24805176.76700                   8388548.52240  24805179.53240
 96  9 13  3 33  0.0130000  0  6  3 14 18 19 22 29
   -694343.25800  28425986.74300                   -488702.39840  28425991.23140
  15932399.67600  25890495.98500                  12437886.45940  25890500.50940
  -8599629.23500  24675894.97700                  -6320546.30140  24675898.68140
  -5852525.83100  26221260.40700                  -4461310.93040  26221264.95440
   4322648.77500  25709029.20400                   3427388.28340  25709032.90740
  10796511.69600  24817198.12600                   8437774.70240  24817200.85640
 96  9 13  3 33 30.0130000  0  6  3 14 18 19 22 29
   -727360.67700  28419699.22700                   -514430.16340  28419706.33340
  16060872.55700  25914943.56300                  12537995.18740  25914947.97040
  -8613297.61700  24673294.16500                  -6331196.97640  24673297.61040
  -5879530.74800  26216120.48500                  -4482353.70740  26216124.50540
   4425087.42300  25728522.67300                   3507210.60440  25728526.68140
  10859959.76400  24829272.04800                   8487214.76040  24829274.84940
 96  9 13  3 34  0.0130000  0  6  3 14 18 19 22 29
   -760206.40900  28413452.80600                   -540024.20840  28413454.49340
  16189657.51400  25939450.57100                  12638347.09140  25939455.17740
  -8626718.59700  24670740.07100                  -6341654.86940  24670743.65740
  -5906351.51500  26211017.06300                  -4503252.98040  26211021.41140
   4527974.99500  25748101.43800                   3587382.74440  25748105.08340
  10923703.20600  24841401.99300                   8536884.96740  24841404.80640
 96  9 13  3 34 30.0130000  0  6  3 14 18 19 22 29
   -792931.53200  28407223.66500                   -565524.35040  28407227.91940
  16318729.12800  25964011.92300                  12738922.36040  25964016.71640
  -8639903.32200  24668231.33700                  -6351928.67240  24668234.72440
  -5933009.31700  26205944.36800                  -4524025.25940  26205948.76340
   4631288.50600  25767761.35200                   3667886.78640  25767765.22040
  10987743.11200  24853588.36800                   8586786.20040  24853591.07540
 96  9 13  3 35  0.0130000  0  6  3 14 18 19 22 29
   -825571.81300  28401014.38400                   -590958.20240  28401018.52040
  16448074.05500  25988625.57100                  12839710.60240  25988629.86040
  -8652871.80400  24665763.51700                  -6362033.97440  24665767.06740
  -5959501.33300  26200902.99300                  -4544668.34240  26200907.49340
   4735015.38300  25787499.79800                   3748712.92640  25787503.48940
  11052095.84700  24865834.15700                   8636931.18040  24865836.84140
 96  9 13  3 35 30.0130000  0  6  3 14 18 19 22 29
   -858135.79500  28394816.31300                   -616332.71840  28394820.57940
  16577694.43600  26013291.78200                  12940713.48740  26013295.96640
  -8665627.33700  24663336.14200                  -6371973.33640  24663339.68140
  -5985820.69800  26195894.17300                  -4565176.91540  26195898.43840
   4839168.60600  25807319.57100                   3829871.28840  25807323.69640
  11116744.13900  24878136.07100                   8687306.47540  24878139.01340
 96  9 13  3 36  0.0130000  0  6  3 14 18 19 22 29
   -890604.38300  28388638.28200                   -641632.89640  28388644.92740
  16707592.57400  26038010.29800                  13041932.81240  26038014.83340
  -8678158.16300  24660951.71200                  -6381737.60840  24660955.22740
  -6011979.54500  26190916.96200                  -4585560.40540  26190920.95840
   4943744.94200  25827219.53200                   3911359.34640  25827223.13040
  11181682.78000  24890493.77400                   8737908.01440  24890496.77440
 96  9 13  3 36 30.0130000  0  6  3 14 18 19 22 29
   -922966.73200  28382480.58700                   -666850.27940  28382485.40340
  16837758.09400  26062779.68100                  13143360.47840  26062783.91140
  -8690454.07900  24658612.09500                  -6391318.83140  24658615.45840
  -6037987.60100  26185967.47700                  -4605826.42340  26185971.80240
   5048742.18500  25847199.97000                   3993175.37940  25847203.83740
  11246905.34300  24902905.30600                   8788730.78840  24902908.21240
 96  9 13  3 37  0.0130000  0  6  3 14 18 19 22 29
   -955188.29700  28376346.89900                   -691957.93840  28376352.60640
  16968187.46100  26087599.93100                  13244993.73940  26087604.31340
  -8702517.38000  24656316.50900                  -6400718.79540  24656319.91940
  -6063839.23800  26181048.10200                  -4625970.53540  26181052.32140
   5154152.63200  25867259.24300                   4075313.39940  25867263.13440
  11312395.10500  24915367.29800                   8839761.77840  24915370.23940
 96  9 13  3 37 30.0130000  0  6  3 14 18 19 22 29
   -987248.45300  28370247.96200                   -716939.85740  28370250.43440
  17098879.92900  26112470.13400                  13346832.02040  26112474.44640
  -8714321.11200  24654070.05600                  -6409916.49840  24654073.52440
  -6089534.36800  26176158.01700                  -4645992.67640  26176162.36440
   5259961.35100  25887393.98500                   4157761.75640  25887397.84140
  11378154.18200  24927880.76700                   8891002.61640  24927883.68440
 96  9 13  3 38  0.0130000  0  6  3 14 18 19 22 29
  -1019164.53600  28364173.53200                   -741809.53040  28364177.25940
  17229825.17700  26137388.00900                  13448867.26440  26137392.72040
  -8725866.85400  24651872.88400                  -6418913.17040  24651876.36440
  -6115077.67700  26171297.85200                  -4665896.52340  26171302.00140
   5366135.83300  25907598.09500                   4240495.12440  25907601.64540
  11444197.78100  24940448.60200                   8942465.16540  24940451.36840
 96  9 13  3 38 30.0130000  0  6  3 14 18 19 22 29
  -1050914.99100  28358130.68800                   -766550.10540  28358134.34540
  17361035.05500  26162356.60200                  13551108.71040  26162361.37240
  -8737143.28300  24649727.13400                  -6427699.99040  24649730.76740
  -6140448.58300  26166469.61000                  -4685666.03840  26166474.35640
   5472691.24200  25927874.92300                   4323525.31240  25927878.98940
  11510550.90200  24953075.27400                   8994168.89240  24953078.12240
 96  9 13  3 39  0.0130000  0  6  3 14 18 19 22 29
  -1082506.02300  28352122.36800                   -791166.48940  28352124.91140
  17492490.75000  26187371.73500                  13653541.71140  26187376.03640
  -8748168.28100  24647628.84500                  -6436290.88340  24647632.48940
  -6165635.09600  26161677.01700                  -4705291.85440  26161681.25940
   5579604.76900  25948219.77400                   4406834.55440  25948223.63040
  11577210.26500  24965759.89900                   9046111.25640  24965762.78240
 96  9 13  3 39 30.0130000  0  6  3 14 18 19 22 29
  -1113953.73700  28346135.43100                   -815671.13140  28346140.28240
  17624184.68800  26212432.07900                  13756160.35340  26212436.77840
  -8758940.39200  24645579.16500                  -6444684.73040  24645582.54040
  -6190630.59400  26156920.19600                  -4724768.86140  26156924.39240
   5686891.10400  25968635.97700                   4490434.31040  25968639.57540
  11644180.23900  24978503.97000                   9098295.65340  24978506.80640
 96  9 13  3 40  0.0130000  0  6  3 14 18 19 22 29
  -1145259.03900  28340179.07900                   -840064.86340  28340183.11040
  17756105.88200  26237535.67300                  13858956.07440  26237540.10240
  -8769488.32800  24643571.96200                  -6452903.89240  24643575.33740
  -6215436.40400  26152200.63400                  -4744098.01140  26152205.14540
   5794554.27700  25989123.44600                   4574327.70340  25989126.78640
  11711434.37100  24991301.99300                   9150701.46040  24991305.00540
 96  9 13  3 40 30.0130000  0  6  3 14 18 19 22 29
  -1176403.27500  28334251.66500                   -864333.02440  28334257.77040
  17888252.47400  26262682.81300                  13961927.41740  26262687.36040
  -8779810.30700  24641607.89200                  -6460946.98340  24641611.29040
  -6240047.69900  26147516.86000                  -4763275.60940  26147521.19640
   5902619.96200  26009688.07900                   4658534.73540  26009691.53640
  11778966.24500  25004152.99300                   9203323.70340  25004155.99340
 96  9 13  3 41  0.0130000  0  6  3 14 18 19 22 29
  -1207395.12000  28328355.80600                   -888482.52240  28328358.13840
  18020628.52900  26287872.54000                  14065077.58540  26287876.99340
  -8789903.94600  24639687.29800                  -6468812.14340  24639690.63840
  -6264467.11000  26142869.95400                  -4782303.68940  26142874.29040
   6011083.16700  26030327.78200                   4743051.53440  26030331.67340
  11846763.10300  25017054.24300                   9256152.41540  25017057.25540
 96  9 13  3 41 30.0130000  0  6  3 14 18 19 22 29
  -1238239.13300  28322484.22000                   -912516.75340  28322489.20040
  18153232.68800  26313106.73500                  14168405.48840  26313111.47040
  -8799772.88300  24637809.04800                  -6476502.21340  24637812.47040
  -6288746.83400  26138249.86000                  -4801222.92640  26138254.20840
   6119928.71900  26051040.40700                   4827866.25840  26051043.85240
  11914806.86300  25030002.70400                   9309173.52340  25030005.59940
 96  9 13  3 42  0.0130000  0  7  3 14 18 19 22 28 29
  -1268920.06400  28316646.84500                   -936423.94440  28316652.02440
  18286074.48200  26338385.75900                  14271918.56840  26338390.11840
  -8809410.63600  24635974.89900                  -6484012.14340  24635978.33340
  -6312897.83300  26133653.86000                  -4820041.86040  26133658.45440
   6229127.85800  26071819.82100                   4912956.49840  26071823.23140
      7463.84410  28765416.04800                      5815.20810  28765419.57100
  11983106.72900  25042999.73500                   9362394.19940  25043002.38440
 96  9 13  3 42 30.0130000  0  7  3 14 18 19 22 28 29
  -1299432.99300  28310840.47000                   -960200.26140  28310843.95040
  18419166.63400  26363712.53200                  14375626.73340  26363717.00940
  -8818788.96800  24634190.55600                  -6491319.92140  24634193.95440
  -6336918.53400  26129082.69600                  -4838759.30440  26129086.52840
   6338684.31000  26092667.66500                   4998325.17240  26092671.09940
     28109.76000  28769345.06300                     21902.95800  28769348.42700
  12051681.54200  25056048.94600                   9415829.11940  25056051.68840
 96  9 13  3 43  0.0130000  0  7  3 14 18 19 22 28 29
  -1329790.06900  28305064.38400                   -983855.03540  28305068.95440
  18552504.64500  26389085.51700                  14479526.47640  26389089.88840
  -8827917.10400  24632453.37600                  -6498432.75040  24632456.82140
  -6360824.87000  26124533.22700                  -4857387.58540  26124537.43440
   6448559.26200  26113576.21200                   5083942.02040  26113579.76340
     49174.04000  28773353.84500                     38316.68900  28773356.73100
  12120507.20100  25069145.89900                   9469459.49640  25069148.72440
 96  9 13  3 43 30.0130000  0  7  3 14 18 19 22 28 29
  -1359973.29100  28299319.59500                  -1007374.44240  28299324.24740
  18686089.68300  26414506.18800                  14583618.70640  26414510.36040
  -8836771.91900  24630768.54000                  -6505332.59940  24630772.02040
  -6384597.91600  26120009.08700                  -4875912.01040  26120013.62240
   6558764.47200  26134547.75900                   5169816.22240  26134551.81340
     70665.60500  28777443.50900                     55063.35500  28777446.38400
  12189610.08600  25082295.58700                   9523305.90540  25082298.34140
 96  9 13  3 44  0.0130000  0  7  3 14 18 19 22 28 29
  -1389980.54000  28293611.17300                  -1030756.64540  28293615.20440
  18819923.53900  26439973.75100                  14687904.80440  26439978.56740
  -8845336.77500  24629138.66500                  -6512006.49640  24629141.98140
  -6408195.18200  26115519.29800                  -4894299.46640  26115523.52840
   6669330.56500  26155587.64900                   5255971.62640  26155591.49340
     92600.88200  28781617.62600                     72155.78200  28781620.84900
  12259012.15300  25095502.64200                   9577385.44040  25095505.45440
 96  9 13  3 44 30.0130000  0  7  3 14 18 19 22 28 29
  -1419824.73600  28287930.69600                  -1054011.92040  28287934.58740
  18953984.52400  26465484.70400                  14792367.90340  26465489.05240
  -8853628.15400  24627560.80600                  -6518467.30940  24627564.18140
  -6431619.32000  26111061.84500                  -4912552.02540  26111066.15740
   6780271.05700  26176699.01700                   5342418.76740  26176702.76740
    114977.64700  28785876.17300                     89592.24000  28785879.54800
  12328697.35000  25108763.05600                   9631685.59140  25108765.97440
 96  9 13  3 45  0.0130000  0  7  3 14 18 19 22 28 29
  -1449505.77000  28282281.51700                  -1077139.91140  28282284.38840
  19088262.30100  26491037.24300                  14896999.92140  26491041.28640
  -8861653.38500  24626033.83700                  -6524720.72840  24626037.31740
  -6454859.25700  26106639.18100                  -4930661.05240  26106642.91940
   6891586.00700  26197881.77400                   5429157.70140  26197884.97440
    137792.42500  28790217.11800                    107369.98900  28790220.71600
  12398679.09000  25122080.38400                   9686216.81740  25122083.29040
 96  9 13  3 45 30.0130000  0  7  3 14 18 19 22 28 29
  -1479025.08700  28276665.02400                  -1100141.95440  28276670.06340
  19222742.03300  26516627.32900                  15001789.30340  26516632.30940
  -8869409.80200  24624557.50100                  -6530764.67340  24624560.98140
  -6477911.18200  26102252.60200                  -4948623.56140  26102256.65740
   7003296.05200  26219139.43800                   5516204.50140  26219142.96640
    161046.99000  28794642.29000                    125490.47100  28794646.43800
  12468973.21200  25135457.04000                   9740991.45640  25135459.77040
 96  9 13  3 46  0.0130000  0  7  3 14 18 19 22 28 29
  -1508389.31100  28271077.91500                  -1123023.15540  28271080.32940
  19357426.12900  26542257.41500                  15106737.94540  26542261.78640
  -8876922.51400  24623127.86800                  -6536618.72340  24623131.27840
  -6500780.68000  26097900.56300                  -4966443.93040  26097904.44240
   7115391.91000  26240470.11000                   5603551.92240  26240473.91940
    184739.22500  28799150.14200                    143951.96600  28799154.22400
  12539562.22900  25148889.73500                   9795995.87540  25148892.44240
 96  9 13  3 46 30.0130000  0  7  3 14 18 19 22 28 29
  -1537585.50700  28265520.01700                  -1145773.38840  28265527.15740
  19492311.23400  26567924.84500                  15211843.20040  26567929.76740
  -8884198.96700  24621743.15700                  -6542288.67740  24621746.60240
  -6523477.60000  26093581.56300                  -4984129.83940  26093585.30240
   7227840.01700  26261868.18100                   5691173.82840  26261871.95440
    208862.01000  28803740.10200                    162748.95800  28803744.30900
  12610433.48300  25162375.99300                   9851220.22540  25162378.70040
 96  9 13  3 47  0.0130000  0  7  3 14 18 19 22 28 29
  -1566577.04000  28260005.37600                  -1168364.22140  28260008.43440
  19627420.00500  26593634.89200                  15317122.75140  26593639.93140
  -8891204.73100  24620410.22700                  -6547747.70340  24620413.59140
  -6545990.66700  26089297.64900                  -5001672.45840  26089301.43440
   7340638.80600  26283333.37600                   5779068.98940  26283337.51340
    233431.07300  28808416.32100                    181893.74800  28808420.18100
  12681605.40100  25175919.70400                   9906678.86140  25175922.38840
 96  9 13  3 47 30.0130000  0  7  3 14 18 19 22 28 29
  -1595341.53700  28254531.04800                  -1190778.06040  28254536.13440
  19762754.07500  26619388.60200                  15422577.85440  26619392.58740
  -8897926.49600  24619131.07900                  -6552985.44140  24619134.27840
  -6568328.82300  26085046.89900                  -5019078.79840  26085050.55640
   7453786.38100  26304864.59500                   5867235.94440  26304868.54440
    258456.08800  28813178.56300                    201393.76200  28813181.54000
  12753074.90600  25189519.74300                   9962369.38040  25189522.62640
 96  9 13  3 48  0.0130000  0  7  3 14 18 19 22 28 29
  -1623871.90800  28249101.07900                  -1213009.55340  28249105.50940
  19898303.11100  26645182.82900                  15528200.46940  26645187.13040
  -8904368.22000  24617905.04000                  -6558004.96240  24617908.35640
  -6590507.91400  26080825.86800                  -5036361.18840  26080830.20440
   7567254.52900  26326456.50100                   5955652.67440  26326460.32140
    283925.48100  28818024.88400                    221240.00600  28818027.57100
  12824831.04200  25203174.54000                  10018283.24940  25203177.54040
 96  9 13  3 48 30.0130000  0  7  3 14 18 19 22 28 29
  -1652148.95200  28243721.63400                  -1235043.51540  28243725.24340
  20034059.85800  26671016.32900                  15633984.93240  26671020.82940
  -8910501.86100  24616737.68800                  -6562784.40840  24616740.97040
  -6612528.22200  26076636.13400                  -5053519.85840  26076640.38840
   7681061.65200  26348113.81300                   6044333.54840  26348117.27040
    309848.98800  28822958.14200                    241440.14100  28822961.61000
  12896895.49800  25216887.67300                  10074437.36640  25216890.55640
 96  9 13  3 49  0.0130000  0  7  3 14 18 19 22 28 29
  -1680171.33400  28238387.28200                  -1256879.18640  28238392.30940
  20170018.21800  26696888.32900                  15739926.51040  26696892.65340
  -8916322.31500  24615630.14900                  -6567319.81940  24615633.59540
  -6634383.50500  26072476.50100                  -5070549.93040  26072480.86040
   7795237.97800  26369840.69600                   6133302.12340  26369844.38840
    336238.46800  28827979.48500                    262003.41200  28827983.38400
  12969291.62600  25230664.16500                  10130849.94040  25230667.10640
 96  9 13  3 49 30.0130000  0  7  3 14 18 19 22 28 29
  -1707952.62600  28233102.75100                  -1278526.89040  28233106.84140
  20306167.32800  26722796.95400                  15846016.72040  26722801.13840
  -8921841.23600  24614579.96200                  -6571620.26940  24614583.32540
  -6656062.16800  26068351.22700                  -5087442.36040  26068355.07140
   7909788.18200  26391638.83700                   6222562.03340  26391642.24740
    363093.13400  28833090.50900                    282929.11200  28833093.17300
  13042025.30400  25244505.29800                  10187525.52840  25244508.18140
 96  9 13  3 50  0.0130000  0  7  3 14 18 19 22 28 29
  -1735496.72800  28227859.14200                  -1299989.80640  28227863.38440
  20442518.55900  26748743.50900                  15952264.42140  26748747.99740
  -8927057.48300  24613587.61000                  -6575684.86440  24613591.02040
  -6677545.12100  26064263.54800                  -5104182.31740  26064267.63840
   8024717.97900  26413509.21200                   6312117.72040  26413512.75140
    390419.37900  28838289.76700                    304222.32700  28838293.31300
  13115106.69000  25258412.23500                  10244472.06540  25258414.97740
 96  9 13  3 50 30.0130000  0  7  3 14 18 19 22 28 29
  -1762829.13500  28222659.77400                  -1321287.78640  28222665.28240
  20579058.01600  26774726.04000                  16058658.79340  26774730.82140
  -8931989.95900  24612648.95400                  -6579528.35040  24612652.16540
  -6698841.61800  26060210.84500                  -5120776.94940  26060215.06340
   8140010.38800  26435448.61000                   6401955.97040  26435452.30240
    418203.08900  28843576.62600                    325871.98900  28843580.54000
  13188512.26800  25272380.64200                  10301671.21040  25272383.38440
 96  9 13  3 51  0.0130000  0  7  3 14 18 19 22 28 29
  -1789941.15400  28217498.88400                  -1342413.97440  28217504.28640
  20715791.75000  26800745.67300                  16165204.54440  26800750.14940
  -8936630.13200  24611765.97000                  -6583144.05840  24611769.20440
  -6719940.92200  26056195.75900                  -5137217.94040  26056200.15340
   8255658.81400  26457455.83700                   6492071.62340  26457459.23540
    446454.30200  28848953.68800                    347885.93900  28848956.25100
  13262234.17200  25286409.50100                  10359116.84340  25286412.25540
 96  9 13  3 51 30.0130000  0  7  3 14 18 19 22 28 29
  -1816816.58900  28212386.68800                  -1363355.93240  28212388.27040
  20852741.74600  26826805.89200                  16271918.80140  26826810.52040
  -8940958.34000  24610942.32100                  -6586516.68840  24610945.57940
  -6740844.80100  26052217.86800                  -5153506.68640  26052221.73540
   8371654.44200  26479529.11800                   6582457.84540  26479532.63440
    475181.27600  28854419.86800                    370270.61700  28854423.26700
  13336267.36200  25300497.54000                  10416805.04140  25300500.47040
 96  9 13  3 52  0.0130000  0  7  3 14 18 19 22 28 29
  -1843450.06600  28207317.20400                  -1384109.13140  28207323.94240
  20989916.38200  26852909.69600                  16378808.11540  26852914.27840
  -8944964.40500  24610180.09500                  -6589638.28940  24610183.42340
  -6761568.39600  26048274.10200                  -5169654.89840  26048278.50940
   8487989.92400  26501667.43800                   6673108.87440  26501670.89540
    504385.61300  28859977.26700                    393027.24400  28859980.55900
  13410599.35200  25314642.42300                  10474726.06840  25314645.29440
 96  9 13  3 52 30.0130000  0  7  3 14 18 19 22 28 29
  -1869832.69200  28202294.41500                  -1404667.17940  28202298.01340
  21127302.24200  26879053.05600                  16485862.01540  26879057.61440
  -8948641.47800  24609480.16500                  -6592503.53940  24609483.69240
  -6782124.40900  26044362.59500                  -5185672.54540  26044366.41540
   8604660.58300  26523868.95400                   6764021.08440  26523872.27040
    534063.84800  28865624.70400                    416153.16300  28865628.23900
  13485217.12100  25328841.64200                  10532869.78340  25328844.55940
 96  9 13  3 53  0.0140000  0  8  3 14 18 19 22 28 29 31
  -1895964.17700  28197326.03700                  -1425029.22740  28197330.60740
  21264893.73000  26905236.70100                  16593076.15340  26905241.74040
  -8951997.43100  24608841.70100                  -6595118.56540  24608845.05340
  -6802522.84600  26040481.31800                  -5201567.45640  26040485.56040
   8721657.08900  26546132.49800                   6855187.17940  26546135.95540
    564210.83600  28871361.63900                    439644.33500  28871364.75200
  13560127.17700  25343096.63100                  10591241.24240  25343099.65440
     -9402.82210  28819766.03700
 96  9 13  3 53 30.0140000  0  8  3 14 18 19 22 28 29 31
  -1921830.12400  28192400.68500                  -1445184.60240  28192404.74040
  21402698.01200  26931459.88100                  16700456.10240  26931464.12340
  -8955029.51200  24608264.47500                  -6597481.21240  24608267.92040
  -6822745.74300  26036632.69300                  -5217325.51640  26036636.64240
   8838968.60400  26568456.23200                   6946598.75540  26568459.72540
    594831.80700  28877188.95900                    463504.83000  28877192.46700
  13635347.28500  25357410.67800                  10649854.31240  25357413.59640
    -65859.62100  28809021.97500
 96  9 13  3 54  0.0140000  0  8  3 14 18 19 22 28 29 31
  -1947423.58800  28187531.92000                  -1465127.47040  28187536.30340
  21540714.83000  26957723.59200                  16808001.66840  26957727.96340
  -8957728.97100  24607750.81000                  -6599584.68740  24607754.29140
  -6842765.17900  26032822.92800                  -5232925.08840  26032826.95940
   8956608.53200  26590842.07600                   7038266.24540  26590845.87340
    625939.65200  28883108.65400                    487744.71800  28883111.67800
  13710891.23000  25371786.12300                  10708719.72440  25371789.04140
   -122339.09200  28798275.88900                     -8800.85550  28798279.02940
 96  9 13  3 54 30.0140000  0  8  3 14 18 19 22 28 29 31
  -1972737.76100  28182713.98200                  -1484852.76740  28182717.63940
  21678927.52900  26984024.10000                  16915699.87640  26984029.03340
  -8960098.32500  24607300.17800                  -6601430.92740  24607303.62340
  -6862573.16200  26029053.90400                  -5248359.81440  26029057.83040
   9074586.75400  26613292.33400                   7130197.32140  26613295.56840
    657538.02800  28889121.47500                    512366.84200  28889124.08400
  13786776.19300  25386226.55300                  10767850.86240  25386229.43540
   -178830.07900  28787524.40400                    -52819.80740  28787529.29140
 96  9 13  3 55  0.0140000  0  8  3 14 18 19 22 28 29 31
  -1997784.18400  28177949.60700                  -1504369.47740  28177952.60740
  21817325.29800  27010360.39600                  17023542.28640  27010365.36540
  -8962157.20000  24606908.26400                  -6603035.24240  24606911.63940
  -6882175.13900  26025323.68500                  -5263634.06540  26025327.45940
   9192879.02900  26635803.10000                   7222373.12740  26635806.53340
    689618.33600  28895225.86500                    537364.47600  28895228.76700
  13863006.59100  25400732.80300                  10827251.16640  25400735.77940
   -235346.47900  28776770.33400                    -96858.56440  28776773.06440
 96  9 13  3 55 30.0140000  0  8  3 14 18 19 22 28 29 31
  -2022551.86500  28173235.23200                  -1523668.95140  28173239.33440
  21955905.25200  27036731.27900                  17131526.64040  27036736.07240
  -8963904.94800  24606575.66200                  -6604397.11540  24606579.06040
  -6901573.42100  26021632.47500                  -5278749.59940  26021636.58840
   9311499.78800  26658375.92000                   7314804.88440  26658379.56440
    722187.36900  28901422.94300                    562742.97400  28901426.59600
  13939586.46100  25415305.45900                  10886923.79440  25415308.23640
   -291880.31100  28766013.13100                   -140910.85640  28766017.93540
 96  9 13  3 56  0.0140000  0  9  3 14 18 19 22 27 28 29 31
  -2047038.05400  28168574.90400                  -1542749.07940  28168577.95140
  22094667.31000  27063136.89600                  17239652.92240  27063141.06840
  -8965330.59300  24606304.39600                  -6605508.00340  24606307.81840
  -6920781.28100  26017976.60700                  -5293716.73740  26017980.85040
   9430463.16100  26681013.63900                   7407503.62040  26681016.79140
     -7651.55010  28981896.54500
    755251.24800  28907715.73200                    588507.05500  28907718.85300
  14016511.21000  25429943.73200                  10946865.14840  25429946.73240
   -348432.67400  28755249.54500                   -184977.58140  28755253.67040
 96  9 13  3 56 30.0140000  0  9  3 14 18 19 22 27 28 29 31
  -2071236.58600  28163970.35700                  -1561605.04040  28163973.79140
  22233616.35900  27089578.58400                  17347924.89640  27089583.51740
  -8966447.04400  24606091.76400                  -6606377.97240  24606095.18540
  -6939820.43600  26014354.05300                  -5308552.44240  26014358.11940
   9549755.00900  26703714.22500                   7500458.31340  26703717.76440
    -53536.23800  28973163.85700
    788800.60700  28914100.19300                    614649.43900  28914102.45500
  14093778.11500  25444647.06800                  11007073.11940  25444649.99840
   -405033.68700  28744479.34200                   -229082.23140  28744484.70940
 96  9 13  3 57  0.0140000  0  9  3 14 18 19 22 27 28 29 31
  -2095132.19900  28159422.68500                  -1580224.98140  28159428.43940
  22372777.61200  27116059.64600                  17456362.22540  27116064.58040
  -8967239.62600  24605940.88900                  -6606995.55140  24605944.29940
  -6958670.33500  26010766.69300                  -5323240.65540  26010770.81840
   9669378.08600  26726477.60700                   7593671.10840  26726480.83040
    -99370.68600  28964443.48200
    822847.13300  28920577.92000                    641179.14600  28920581.92000
  14171387.46900  25459415.53700                  11067547.93340  25459418.63140
   -461657.56500  28733705.84200                   -273204.73940  28733708.50240
 96  9 13  3 57 30.0140000  0  9  3 14 18 19 22 27 28 29 31
  -2118734.82900  28154932.50600                  -1598616.61140  28154937.86140
  22512145.40200  27142579.85000                  17564960.49740  27142585.14640
  -8967704.53800  24605852.56000                  -6607357.82140  24605855.90040
  -6977344.09300  26007213.25600                  -5337791.62740  26007217.51040
   9789335.41400  26749304.81000                   7687144.34240  26749308.78340
   -145167.96400  28955727.34200
    857380.17300  28927149.40400                    668088.02200  28927153.15400
  14249312.21300  25474244.27100                  11128268.50640  25474247.20140
   -518308.48400  28722925.09200                   -317348.26140  28722927.58840
 96  9 13  3 58  0.0140000  0  9  3 14 18 19 22 27 28 29 31
  -2142032.54900  28150498.83400                  -1616770.67240  28150501.65840
  22651742.86400  27169144.68500                  17673737.72740  27169149.54940
  -8967801.94100  24605833.82600                  -6607433.71040  24605837.03740
  -6995803.11900  26003700.68500                  -5352175.28340  26003704.86940
   9909638.28200  26772197.13100                   7780886.83740  26772200.43540
   -190919.52900  28947021.92800                     -2374.61450  28947026.08840
    892419.04000  28933817.51400                    695391.07400  28933821.23600
  14327561.22100  25489134.45100                  11189241.75040  25489137.36940
   -574977.04400  28712140.27900                   -361505.62040  28712144.56840
 96  9 13  3 58 30.0140000  0  9  3 14 18 19 22 27 28 29 31
  -2165041.65300  28146120.43500                  -1634699.83640  28146124.80740
  22791544.11600  27195747.76400                  17782673.75540  27195752.99040
  -8967547.29800  24605882.35000                  -6607235.28340  24605885.63140
  -7014032.50700  26000231.50600                  -5366379.98440  26000235.84240
  10030261.41200  26795151.38100                   7874878.87140  26795154.88540
   -236620.73200  28938324.67800                    -37985.82040  28938331.12340
    927948.32900  28940578.36500                    723076.23000  28940581.65800
  14406119.12500  25504083.64600                  11250455.69940  25504086.71740
   -631670.11000  28701352.61500                   -405681.96540  28701356.55340
 96  9 13  3 59  0.0140000  0  9  3 14 18 19 22 27 28 29 31
  -2187777.12000  28141793.39600                  -1652415.76240  28141797.74440
  22931526.61200  27222386.84200                  17891751.02540  27222391.96340
  -8966931.48300  24605999.67800                  -6606755.41840  24606003.05340
  -7032028.91600  25996807.73200                  -5380403.15140  25996811.52940
  10151199.19000  26818164.90400                   7969116.11440  26818168.11540
   -282246.50700  28929641.97500                    -73538.31740  28929647.44740
    963969.18600  28947433.06800                    751144.42900  28947436.08800
  14484987.88600  25519091.60000                  11311911.87640  25519094.57640
   -688378.01000  28690559.58400                   -449869.96940  28690564.97540
 96  9 13  3 59 30.0140000  0  9  3 14 18 19 22 27 28 29 31
  -2210243.24400  28137518.27100                  -1669921.80940  28137519.83040
  23071671.78100  27249055.01400                  18000955.02240  27249059.50240
  -8965956.74300  24606185.10000                  -6605995.87440  24606188.47540
  -7049805.47300  25993424.38900                  -5394255.01240  25993428.33840
  10272444.71900  26841237.67800                   8063593.15140  26841241.28740
   -327783.58900  28920976.02100                   -109021.74340  28920980.01740
   1000481.57800  28954380.80300                    779595.62200  28954384.03300
  14564177.96500  25534161.06000                  11373618.42140  25534163.86140
   -745115.29300  28679763.67000                   -494080.83940  28679766.38940
 96  9 13  4  0  0.0140000  0  9  3 14 18 19 22 27 28 29 31
  -2232431.87700  28133295.99800                  -1687211.61140  28133299.64240
  23211974.68300  27275753.54500                  18110281.96240  27275758.40840
  -8964625.96000  24606438.31000                  -6604958.89640  24606441.74440
  -7067360.78400  25990083.82600                  -5407934.42940  25990087.76440
  10393988.72800  26864366.63900                   8158302.77240  26864370.22540
   -373219.61300  28912330.17800                   -144426.35640  28912333.08440
   1037492.61200  28961424.26400                    808435.40200  28961427.47500
  14643717.83000  25549296.99000                  11435597.53740  25549299.74440
   -801861.79700  28668965.68500                   -538298.85740  28668972.54540
 96  9 13  4  0 30.0140000  0  9  3 14 18 19 22 27 28 29 31
  -2254348.75000  28129124.24000                  -1704289.69740  28129126.78340
  23352417.99500  27302478.96700                  18219718.29540  27302484.19340
  -8962959.84900  24606755.17000                  -6603660.62940  24606758.49840
  -7084725.61000  25986779.20100                  -5421465.47040  25986783.44340
  10515814.14500  26887549.34200                   8253231.68340  26887552.54140
   -418575.66700  28903700.62300                   -179768.64940  28903704.46740
   1074993.41000  28968560.38100                    837656.81100  28968563.36100
  14723612.91400  25564500.58400                  11497853.43940  25564503.18540
   -858613.34400  28658166.02100                   -582520.77640  28658172.24440
 96  9 13  4  1  0.0140000  0  9  3 14 18 19 22 27 28 29 31
  -2275985.04500  28125007.97500                  -1721149.14340  28125011.12740
  23493006.17300  27329232.30300                  18329267.53540  27329237.26040
  -8960952.11100  24607137.60000                  -6602096.14740  24607140.93940
  -7101930.16400  25983505.48200                  -5434871.60340  25983509.84240
  10637935.29900  26910787.76400                   8348391.02040  26910791.12740
   -463874.42500  28895079.82600                   -215066.34240  28895084.47840
   1112988.63800  28975790.68500                    867263.49000  28975793.34600
  14803872.55600  25579773.81000                  11560393.41640  25579776.47140
   -915369.93300  28647366.93500                   -626746.72640  28647369.10340
 96  9 13  4  1 30.0140000  0  9  3 14 18 19 22 27 28 29 31
  -2297328.35000  28120946.31800                  -1737780.22640  28120949.76440
  23633750.15300  27356015.49800                  18438938.15340  27356020.40840
  -8958593.46000  24607586.45100                  -6600258.23340  24607589.92040
  -7118972.15200  25980262.38100                  -5448151.06140  25980266.50640
  10760367.59300  26934085.57600                   8443792.81040  26934089.10340
   -509127.64600  28886469.10700                   -250328.58040  28886474.45140
   1151479.81100  28983114.63900                    897256.61600  28983118.84600
  14884488.53500  25595114.48200                  11623211.05540  25595117.15440
   -972143.69600  28636561.23200                   -670985.95140  28636565.95540
 96  9 13  4  2  0.0140000  0  9  3 14 18 19 22 27 28 29 31
  -2318354.54700  28116945.32600                  -1754164.30040  28116948.88940
  23774665.64300  27382830.10700                  18548742.42640  27382834.98240
  -8955863.70800  24608105.86500                  -6598131.15240  24608109.27540
  -7135824.90700  25977055.39600                  -5461283.06240  25977059.66240
  10883118.34100  26957444.81800                   8539442.74240  26957448.18240
   -554338.53600  28877865.57600                   -285557.77840  28877869.51440
   1190475.50600  28990535.67800                    927642.89100  28990538.95100
  14965446.18700  25610520.02900                  11686294.93540  25610522.66640
  -1028934.69500  28625755.56800                   -715238.65940  28625759.50640
 96  9 13  4  2 30.0140000  0  9  3 14 18 19 22 27 28 29 31
  -2339051.31300  28113007.95100                  -1770291.65140  28113010.70540
  23915734.56300  27409674.72500                  18658666.25040  27409678.96740
  -8952772.70000  24608694.04500                  -6595722.57140  24608697.25640
  -7152496.13000  25973882.60700                  -5474273.61940  25973886.75640
  11006192.71700  26980864.83400                   8635344.86540  26980867.86940
   -599524.61800  28869266.24000                   -320767.70440  28869269.88540
   1229967.47600  28998050.43500                    958415.83900  28998053.30300
  15046704.94300  25625983.18500                  11749613.43240  25625985.88140
  -1085759.36100  28614941.17800                   -759517.70740  28614942.71340
 96  9 13  4  3  0.0140000  0  9  3 14 18 19 22 27 28 29 31
  -2359385.36300  28109137.28700                  -1786136.31140  28109142.94740
  24056965.00200  27436550.16200                  18768715.93140  27436554.94340
  -8949295.96900  24609355.51400                  -6593013.42140  24609358.72540
  -7168967.08400  25970748.55300                  -5487108.11340  25970752.65440
  11129609.84700  27004350.22500                   8731514.05240  27004353.56440
   -644655.10400  28860678.60000                   -355934.19340  28860683.61540
   1269968.73400  29005662.66200                    989585.64700  29005665.87700
  15128270.63100  25641504.43500                  11813171.10740  25641507.45940
  -1142606.44300  28604125.28700                   -803814.00240  28604128.69740
 96  9 13  4  3 30.0140000  0  9  3 14 18 19 22 27 28 29 31
  -2379342.49300  28105339.63900                  -1801687.37440  28105342.88540
  24198353.23900  27463455.48200                  18878888.57940  27463459.43240
  -8945442.29900  24610088.85000                  -6590010.56940  24610092.03740
  -7185219.93200  25967655.35700                  -5499772.65140  25967659.51740
  11253346.29300  27027896.99800                   8827932.06240  27027900.68940
   -689718.97700  28852102.52100                   -391048.89340  28852107.22140
   1310476.30000  29013370.99800                   1021150.00000  29013374.00600
  15210137.97700  25657083.49800                  11876963.83640  25657086.34640
  -1199457.14400  28593306.02100                   -848113.25340  28593314.24040
 96  9 13  4  4  0.0140000  0  9  3 14 18 19 22 27 28 29 31
  -2398926.24300  28101613.39600                  -1816947.38940  28101618.54140
  24339879.45200  27490386.81000                  18989168.73640  27490391.13540
  -8941241.09500  24610888.49000                  -6586736.90440  24610891.79540
  -7201274.17600  25964600.58400                  -5512282.44440  25964604.72140
  11377369.38800  27051497.18500                   8924573.43340  27051501.25240
   -734732.47500  28843536.80300                   -426124.27840  28843540.13140
   1351477.96100  29021173.40400                   1053099.39700  29021176.78700
  15292304.83500  25672719.13900                  11940989.95140  25672721.97540
  -1256285.36800  28582491.57600                   -892394.97640  28582497.85740
 96  9 13  4  4 30.0140000  0  9  3 14 18 19 22 27 28 29 31
  -2418150.68000  28097954.17000                  -1831927.44040  28097958.90440
  24481539.83600  27517343.89600                  19099553.43940  27517347.76440
  -8936695.08500  24611753.55300                  -6583194.55740  24611757.06840
  -7217142.97400  25961580.74800                  -5524647.72440  25961585.26040
  11501676.99200  27075152.45100                   9021436.48540  27075156.20140
   -779681.16900  28834983.34200                   -461149.22540  28834986.67040
   1392978.94200  29029070.81000                   1085437.83500  29029073.56800
  15374811.90200  25688419.78700                  12005281.16240  25688422.71740
  -1313061.12200  28571688.97500                   -936635.77340  28571693.83840
 96  9 13  4  5  0.0140000  0  9  3 14 18 19 22 27 28 29 31
  -2437041.89400  28094358.90400                  -1846647.83840  28094364.36540
  24623340.04200  27544327.66200                  19210047.08440  27544332.67840
  -8931806.97900  24612683.54500                  -6579385.64040  24612686.93240
  -7232822.03700  25958597.41200                  -5536865.14440  25958601.38540
  11626244.88000  27098856.43500                   9118502.36740  27098860.43240
   -824561.05500  28826443.64600                   -496120.54340  28826447.36140
   1434976.53800  29037063.16200                   1118163.22600  29037065.32200
  15457683.51200  25704189.45900                  12069856.43540  25704192.29540
  -1369779.72100  28560895.71700                   -980832.09040  28560897.01740
 96  9 13  4  5 30.0140000  0  9  3 14 18 19 22 27 28 29 31
  -2455608.95600  28090827.25600                  -1861115.69440  28090829.08440
  24765291.90300  27571340.10000                  19320658.92040  27571344.91640
  -8926572.59800  24613679.46700                  -6575306.89340  24613682.84240
  -7248295.55800  25955652.88900                  -5548922.41340  25955657.03740
  11751075.45100  27122611.60700                   9215772.94840  27122614.85340
   -869367.76300  28817916.37300                   -531034.81240  28817922.85340
   1477480.05500  29045150.42000                   1151282.84600  29045153.81000
  15540919.89800  25720029.02100                  12134715.95040  25720031.88140
  -1426424.11700  28550115.88100                  -1024970.55640  28550119.70140
 96  9 13  4  6  0.0140000  0  9  3 14 18 19 22 27 28 29 31
  -2473871.12500  28087351.81800                  -1875345.88040  28087356.15440
  24907383.09700  27598378.93500                  19431379.32640  27598383.54140
  -8920974.97800  24614744.87300                  -6570945.11140  24614748.24840
  -7263574.66800  25952745.45900                  -5560828.20840  25952749.18540
  11876185.14400  27146419.04500                   9313261.01440  27146422.97140
   -914097.93900  28809404.18500                   -565889.47240  28809408.53340
   1520486.91000  29053334.26400                   1184794.70300  29053337.58400
  15624515.71300  25735936.95900                  12199855.53140  25735939.91240
  -1483012.05400  28539346.38900                  -1069065.06840  28539350.06840
 96  9 13  4  6 30.0140000  0  9  3 14 18 19 22 27 28 29 31
  -2491836.70100  28083932.24000                  -1889345.04940  28083936.83440
  25049601.86700  27625442.06800                  19542199.13040  27625446.66240
  -8915001.77600  24615881.48200                  -6566290.66840  24615884.82240
  -7278662.15000  25949873.95100                  -5572584.68240  25949878.13540
  12001579.23300  27170280.68500                   9410970.69040  27170284.37740
   -958749.34400  28800908.02900                   -600682.73340  28800911.54540
   1563992.52100  29061613.52100                   1218695.18000  29061616.49000
  15708461.74500  25751911.14600                  12265268.01140  25751914.29940
  -1539565.93500  28528583.99800                  -1113132.99440  28528588.24040
 96  9 13  4  7  0.0140000  0  9  3 14 18 19 22 27 28 29 31
  -2509482.98900  28080575.14600                  -1903095.35340  28080579.57640
  25191952.06900  27652530.41200                  19653121.36740  27652535.08840
  -8908643.33100  24617091.40400                  -6561336.03640  24617094.62740
  -7293550.42400  25947040.98200                  -5584185.91840  25947045.31840
  12127263.84600  27194197.66200                   9508906.75040  27194201.07240
  -1003329.27600  28792424.76400                   -635420.29240  28792429.52140
   1607998.56900  29069987.20100                   1252985.61600  29069991.21700
  15792722.13300  25767945.32600                  12330925.45640  25767948.33840
  -1596093.95700  28517827.63900                  -1157180.76040  28517832.33840
 96  9 13  4  7 30.0140000  0  9  3 14 18 19 22 27 28 29 31
  -2526793.88500  28077280.56800                  -1916584.38840  28077285.20940
  25334428.24400  27679643.40400                  19764141.75440  27679648.12740
  -8901885.27600  24618377.52100                  -6556070.01540  24618380.86140
  -7308237.01600  25944246.21700                  -5595630.00940  25944250.16640
  12253235.79600  27218169.35000                   9607066.71440  27218172.90040
  -1047840.37300  28783952.63900                   -670104.25440  28783959.17840
   1652504.56500  29078456.97500                   1287665.63600  29078460.11500
  15877288.34200  25784038.15400                  12396821.19240  25784041.15440
  -1652598.84200  28507074.22500                  -1201210.55540  28507079.00640
 96  9 13  4  8  0.0140000  0  9  3 14 18 19 22 27 28 29 31
  -2543760.01200  28074051.98200                  -1929804.72840  28074056.45940
  25477026.88900  27706779.00600                  19875257.56840  27706784.66640
  -8894729.20500  24619739.06800                  -6550493.85340  24619742.23240
  -7322724.74700  25941489.43500                  -5606919.14740  25941493.50240
  12379479.47600  27242193.21700                   9705438.42640  27242196.21740
  -1092286.88800  28775496.38900                   -704737.82140  28775500.13940
   1697511.23800  29087022.24000                   1322735.75700  29087024.77900
  15962176.14000  25800191.51400                  12462967.52240  25800194.52540
  -1709090.12300  28496325.63900                  -1245229.71140  28496330.13940
 96  9 13  4  8 30.0140000  0  9  3 14 18 19 22 27 28 29 31
  -2560370.08400  28070891.08400                  -1942747.60340  28070896.46340
  25619762.47800  27733940.30300                  19986480.10540  27733944.65040
  -8887188.73000  24621174.31800                  -6544618.15440  24621177.51740
  -7337002.34300  25938772.53700                  -5618044.51540  25938776.24040
  12505960.59900  27266261.62300                   9803995.14840  27266264.34240
  -1136669.91100  28767050.67000                   -739321.98240  28767055.95540
   1743023.05200  29095682.48200                   1358199.53400  29095684.92800
  16047385.57100  25816406.40400                  12529364.47540  25816409.55740
  -1765556.74200  28485580.76400                  -1289229.60340  28485585.34640
 96  9 13  4  9  0.0140000  0  8  3 14 18 19 22 27 29 31
  -2576625.98100  28067798.11500                  -1955414.52840  28067802.22840
  25762624.81100  27761126.15400                  20097801.37640  27761130.79540
  -8879274.06000  24622680.34200                  -6538450.88240  24622683.40040
  -7351067.46500  25936095.73200                  -5629004.32840  25936099.86940
  12632654.57200  27290370.28700                   9902717.72940  27290374.01440
  -1180996.07100  28758614.44300                   -773861.79040  28758620.30340
  16132908.59500  25832680.85700                  12596005.78340  25832683.78740
  -1821993.20700  28474840.29500                  -1333206.09440  28474846.06040
 96  9 13  4  9 30.0140000  0  8  3 14 18 19 22 27 29 31
  -2592529.28900  28064772.31800                  -1967806.70640  28064774.45140
  25905612.91000  27788335.59200                  20209220.68340  27788339.21340
  -8870985.97300  24624257.50600                  -6531992.62640  24624260.79940
  -7364924.88500  25933458.92000                  -5639802.32740  25933462.74040
  12759570.35400  27314521.95900                  10001613.12940  27314525.36940
  -1225256.55300  28750193.11500                   -808350.44440  28750198.40040
  16218765.75500  25849019.13900                  12662907.45840  25849022.03340
  -1878385.37500  28464109.13100                  -1377147.99840  28464116.07240
 96  9 13  4 10  0.0140000  0  8  3 14 18 19 22 27 29 31
  -2608083.09400  28061812.27100                  -1979926.52940  28061816.16240
  26048714.72500  27815567.38900                  20320728.58740  27815571.37340
  -8862332.91400  24625904.08400                  -6525249.98540  24625907.38940
  -7378589.71000  25930858.57600                  -5650450.22340  25930862.91240
  12886717.86200  27338717.10000                  10100689.12540  27338720.27540
  -1269460.21100  28741781.57600                   -842794.80940  28741786.12340
  16304944.57600  25865418.31000                  12730059.78140  25865421.21740
  -1934727.07100  28453389.07600                  -1421050.66440  28453390.48240
 96  9 13  4 10 30.0140000  0  8  3 14 18 19 22 27 29 31
  -2623293.99600  28058917.07600                  -1991779.13740  28058918.96340
  26191904.37300  27842815.33400                  20432304.93240  27842819.31840
  -8853331.69400  24627616.94300                  -6518236.03640  24627620.28340
  -7392082.23400  25928290.91200                  -5660963.88340  25928294.97840
  13014105.22600  27362958.38900                  10199951.99240  27362961.52940
  -1313629.82800  28733377.02100                   -877212.68240  28733380.93540
  16391419.84500  25881873.58400                  12797443.10040  25881876.53740
  -1991018.60100  28442677.06800                  -1464914.10440  28442680.42040
 96  9 13  4 11  0.0140000  0  8  3 14 18 19 22 27 29 31
  -2638144.97200  28056090.77100                  -2003351.34340  28056094.72140
  26335175.74300  27870079.10000                  20543944.94040  27870083.41240
  -8843967.57200  24629398.84200                  -6510939.31740  24629402.05340
  -7405400.90900  25925756.57600                  -5671342.05240  25925760.45540
  13141779.88300  27387254.08400                  10299438.73640  27387257.86940
  -1357763.48400  28724977.42000                   -911602.51040  28724982.99840
  16478209.12400  25898389.17800                  12865071.09840  25898392.18940
  -2047250.41500  28431976.70100                  -1508731.12140  28431982.60740
 96  9 13  4 11 30.0140000  0  8  3 14 18 19 22 27 29 31
  -2652639.78400  28053333.74000                  -2014645.95640  28053336.30740
  26478529.99500  27897358.42000                  20655649.54140  27897363.52940
  -8834236.57400  24631250.56800                  -6503356.72240  24631253.75640
  -7418544.79400  25923255.35000                  -5681584.02840  25923259.25240
  13269750.21700  27411605.50600                  10399155.88140  27411608.52940
  -1401863.81300  28716584.69300                   -945966.30940  28716588.79540
  16565321.97500  25914966.37300                  12932951.23540  25914969.30340
  -2103425.45700  28421285.56800                  -1552503.87940  28421287.74840
 96  9 13  4 12  0.0140000  0  8  3 14 18 19 22 27 29 31
  -2666759.32800  28050645.45900                  -2025648.19140  28050650.26440
  26621968.90300  27924654.35700                  20767420.11740  27924659.25640
  -8824134.71900  24633172.95100                  -6495485.14040  24633175.93940
  -7431494.27500  25920790.95900                  -5691674.54440  25920795.27140
  13398003.62700  27436011.73200                  10499093.60840  27436014.72140
  -1445917.74400  28708202.72500                   -980294.03540  28708208.38540
  16652767.02600  25931606.33400                  13001090.22240  25931609.51040
  -2159529.12600  28410610.30300                  -1596220.96640  28410613.05740
 96  9 13  4 12 30.0140000  0  8  3 14 18 19 22 27 29 31
  -2680523.57100  28048027.56000                  -2036373.55040  28048030.52540
  26765474.77700  27951962.05300                  20879242.85740  27951966.14240
  -8813678.55100  24635162.85000                  -6487337.48940  24635165.83840
  -7444266.97700  25918360.24800                  -5701627.27540  25918364.26740
  13526500.29600  27460463.51400                  10599220.86640  27460466.24440
  -1489932.10600  28699826.61500                  -1014590.90140  28699831.24440
  16740543.19800  25948309.82600                  13069487.23040  25948312.86140
  -2215577.12900  28399943.70900                  -1639894.73340  28399948.08040
 96  9 13  4 13  0.0140000  0  8  3 14 18 19 22 27 29 31
  -2693928.57800  28045475.83400                  -2046818.99340  28045480.34640
  26909072.14000  27979288.06000                  20991136.91140  27979293.55740
  -8802838.93400  24637225.51400                  -6478891.04140  24637228.76040
  -7456840.70600  25915968.12300                  -5711424.96740  25915972.10740
  13655236.61800  27484961.06000                  10699534.88440  27484964.52940
  -1533881.02300  28691463.72500                  -1048836.80840  28691468.27140
  16828668.08500  25965079.45900                  13138155.96240  25965082.54140
  -2271541.95100  28389293.77900                  -1683503.67340  28389298.50240
 96  9 13  4 13 30.0140000  0  8  3 14 18 19 22 27 29 31
  -2706986.28400  28042990.47500                  -2056993.82440  28042994.21340
  27052762.22900  28006631.56000                  21103103.22440  28006636.93940
  -8791615.15100  24639361.11500                  -6470145.23140  24639364.44340
  -7469218.77300  25913612.28700                  -5721070.20640  25913615.86140
  13784175.75600  27509496.85000                  10800006.93140  27509500.41240
  -1577765.90900  28683111.81800                  -1083032.78640  28683116.10740
  16917130.61900  25981913.65400                  13207087.79640  25981916.50240
  -2327421.96300  28378661.67800                  -1727046.53440  28378665.89640
 96  9 13  4 14  0.0140000  0  8  3 14 18 19 22 27 29 31
  -2719679.95300  28040575.45100                  -2066884.98240  28040579.44740
  27196545.31600  28033992.52100                  21215141.96440  28033997.66640
  -8780001.54200  24641571.10700                  -6461095.66140  24641574.38940
  -7481410.98600  25911292.18500                  -5730570.62240  25911296.01740
  13913310.93500  27534071.73200                  10900631.75140  27534074.22840
  -1621584.74900  28674773.84200                  -1117177.28940  28674778.79940
  17005932.29700  25998811.98200                  13276283.89640  25998815.01740
  -2383219.70000  28368044.13100                  -1770525.24340  28368050.14240
 96  9 13  4 14 30.0140000  0  8  3 14 18 19 22 27 29 31
  -2732019.76900  28038228.73200                  -2076500.41740  28038232.01440
  27340419.09600  28061370.33400                  21327251.40540  28061375.99440
  -8767988.98400  24643857.16200                  -6451735.22140  24643860.43240
  -7493423.70300  25909006.35700                  -5739931.16540  25909010.17840
  14042649.05300  27558683.26400                  11001414.69440  27558686.86140
  -1665356.86700  28666444.52900                  -1151285.41940  28666449.59240
  17095076.05800  26015775.31000                  13345746.55340  26015778.01740
  -2438952.31300  28357439.40400                  -1813953.24440  28357443.02540
 96  9 13  4 15  0.0140000  0  8  3 14 18 19 22 27 29 31
  -2743998.11100  28035948.92000                  -2085834.11240  28035954.82640
  27484378.30400  28088765.02100                  21439427.41740  28088769.54540
  -8755582.81100  24646217.85000                  -6442068.06440  24646220.99040
  -7505254.12300  25906754.92000                  -5749149.66040  25906759.36140
  14172186.47800  27583333.88100                  11102352.95840  27583337.16240
  -1709101.02000  28658120.12300                  -1185371.71040  28658124.31840
  17184537.55400  26032799.27100                  13415456.80140  26032802.36540
  -2494642.62100  28346840.09200                  -1857348.23140  28346842.56440
 96  9 13  4 15 30.0140000  0  8  3 14 18 19 22 27 29 31
  -2755592.38900  28033741.50600
  27628420.43400  28116174.66200                  21551668.00840  28116179.39640
  -8742777.17800  24648654.96700                  -6432089.64740  24648658.17840
  -7516904.87500  25904537.87300                  -5758228.16140  25904542.06840
  14301925.35800  27608022.02100                  11203448.20140  27608026.14640
  -1752802.21800  28649804.41200                  -1219424.55240  28649809.20540
  17274324.55400  26049884.95900                  13485420.68440  26049888.04140
  -2550301.05700  28336248.72500                  -1900718.44840  28336252.43940
 96  9 13  4 16  0.0140000  0  8  3 14 18 19 22 27 29 31
  -2766790.92900  28031610.37300                     -6956.76150  28031614.82640
  27772539.16800  28143600.84200                  21663968.32140  28143605.31840
  -8729571.85600  24651167.56800                  -6421799.78840  24651170.74440
  -7528377.81600  25902354.81000                  -5767168.09140  25902358.80740
  14431879.45200  27632751.85700                  11304711.10640  27632754.22540
  -1796444.12900  28641498.76400                  -1253431.20240  28641503.66240
  17364448.58800  26067035.11500                  13555647.19640  26067038.04540
  -2605914.61600  28325665.97500                  -1944053.69240  28325669.63140
 96  9 13  4 16 30.0140000  0  8  3 14 18 19 22 27 29 31
  -2777608.29800  28029551.07600                    -15385.86640  28029554.56840
  27916730.61000  28171039.00600                  21776325.28540  28171044.03340
  -8715971.84900  24653755.67000                  -6411202.37840  24653758.90440
  -7539672.25800  25900205.76400                  -5775968.94740  25900209.78340
  14562047.77100  27657521.73200                  11406140.96740  27657525.49440
  -1840022.59900  28633206.74800                  -1287388.40040  28633211.88140
  17454882.71100  26084244.16200                  13626115.33840  26084247.38540
  -2661476.96200  28315092.30300                  -1987348.96740  28315096.36940
 96  9 13  4 17  0.0150000  0  8  3 14 18 19 22 27 29 31
  -2788049.29000  28027565.28400                    -23521.68540  28027569.23340
  28060991.83000  28198490.43300                  21888736.59440  28198495.82340
  -8701975.42900  24656418.95600                  -6400296.07640  24656422.15540
  -7550797.84000  25898088.55000                  -5784638.21140  25898092.35840
  14692421.22500  27682330.80800                  11507730.68140  27682333.28040
  -1883524.62700  28624928.39300                  -1321286.07140  28624932.14340
  17545610.21700  26101508.95600                  13696812.08340  26101511.95640
  -2716970.05500  28304531.95600                  -2030590.32140  28304537.33540
 96  9 13  4 17 30.0150000  0  8  3 14 18 19 22 27 29 31
  -2798115.60700  28025649.58100                    -31365.56940  28025653.01540
  28205307.49600  28225952.30800                  22001190.33540  28225957.92140
  -8687578.79000  24659158.67500                  -6389077.91240  24659161.96840
  -7561772.47700  25896000.08900                  -5793189.86640  25896004.13240
  14823004.05900  27707180.33900                  11609483.54440  27707183.21040
  -1926938.39000  28616666.57300                  -1355114.90740  28616670.93340
  17636639.17700  26118831.14300                  13767743.72340  26118834.16740
  -2772354.84400  28293993.22200                  -2073747.29740  28293996.31540
 96  9 13  4 18  0.0150000  0  8  3 14 18 19 22 27 29 31
  -2807796.72300  28023807.19000                    -38909.26940  28023810.19040
  28349693.96200  28253428.68300                  22113699.24340  28253433.42940
  -8672778.50900  24661975.08100                  -6377545.22240  24661978.40940
  -7572582.47700  25893942.75300                  -5801613.23040  25893946.84340
  14953821.08400  27732073.42500                  11711418.90140  27732077.19840
  -1970274.54200  28608420.69000                  -1388883.32440  28608425.16740
  17727977.74200  26136212.51800                  13838916.62340  26136215.58940
  -2827608.01900  28283478.40100                  -2116801.70740  28283482.09340
 96  9 13  4 18 30.0150000  0  8  3 14 18 19 22 27 29 31
  -2817095.43300  28022038.18300                    -46154.99940  28022040.64340
  28494144.56500  28280916.96400                  22226258.16040  28280922.40140
  -8657581.94300  24664866.83100                  -6365703.74140  24664869.99540
  -7583227.53000  25891917.36200                  -5809908.08340  25891921.19440
  15084862.10700  27757009.44800                  11813528.77440  27757013.40940
  -2013556.63500  28600183.08900                  -1422609.60240  28600187.36640
  17819622.53600  26153652.35400                  13910328.13840  26153655.36640
  -2882740.04700  28272987.30800                  -2159761.68940  28272989.07740
 96  9 13  4 19  0.0150000  0  8  3 14 18 19 22 27 29 31
  -2826008.69700  28020341.82300                    -53100.37440  28020344.74140
  28638637.84700  28308412.54200                  22338850.31440  28308416.91340
  -8642006.67000  24667830.65900                  -6353567.16940  24667833.82340
  -7593722.80200  25889919.71400                  -5818086.20240  25889923.67540
  15216111.07800  27781985.72200                  11915800.70640  27781989.33140
  -2056794.20700  28591955.85400                  -1456301.16740  28591960.07340
  17911587.00900  26171152.17500                  13981988.75940  26171155.15140
  -2937746.36400  28262520.19800                  -2202623.70040  28262525.46040
 96  9 13  4 19 30.0150000  0  8  3 14 18 19 22 27 29 31
  -2834496.06100  28018726.80800                    -59713.90740  28018730.53440
  28783197.43200  28335921.30000                  22451494.16340  28335926.56140
  -8626049.45900  24670867.19800                  -6341132.98640  24670870.49140
  -7604036.08500  25887957.10400                  -5826122.51240  25887961.08940
  15347584.01700  27807003.63600                  12018247.13040  27807007.28040
  -2099977.60400  28583739.30800                  -1489950.52240  28583744.55840
  18003902.42600  26188719.29200                  14053922.84440  26188722.19840
  -2992608.21200  28252080.19800                  -2245373.20140  28252085.77640
